[[{"header":{"parameterUnit":"m.s-1","parameterCategory":1,"la1":31.0,"la2":29.5877,"lo1":-88.7671,"lo2":-86.6584,"dy":0.0162,"dx":0.0185,"nx":115,"ny":88,"refTime":"2023-05-19T06:00:00:Z","depth":0,"parameterNumber":2,"parameterNumberName":"U-component_of_WINDS"},"data":[0.0,0.0,0.0,0.0,0.0,0.0,0.0,0.0,0.0,0.0,0.0,0.0,0.0,0.0,0.0,0.0,0.0,0.0,0.0,0.0,0.0,0.0,0.0,0.0,0.0,0.0,0.0,0.0,0.0,0.0,0.0,0.0,0.0,0.0,0.0,0.0,0.0,0.0,0.0,0.0,0.0,0.0,0.0,0.0,0.0,0.0,0.0,0.0,0.0,0.0,0.0,0.0,0.0,0.0,0.0,0.0,0.0,0.0,0.0,0.0,0.0,0.0,0.0,0.0,0.0,0.0,0.0,0.0,0.0,0.0,0.0,0.0,0.0,0.0,0.0,0.0,0.0,0.0,0.0,0.0,0.0,0.0,0.0,0.0,0.0,0.0,0.0,0.0,0.0,0.0,0.0,0.0,0.0,0.0,0.0,0.0,0.0,0.0,0.0,0.0,0.0,0.0,0.0,0.0,0.0,0.0,0.0,0.0,0.0,0.0,0.0,0.0,0.0,0.0,0.0,0.0,0.0,0.0,0.0,0.0,0.0,0.0,0.0,0.0,0.0,0.0,0.0,0.0,0.0,0.0,0.0,0.0,0.0,0.0,0.0,0.0,0.0,0.0,0.0,0.0,0.0,0.0,0.0,0.0,0.0,0.0,0.0,0.0,0.0,0.0,0.0,0.0,0.0,0.0,0.0,0.0,0.0,0.0,0.0,0.0,0.0,0.0,0.0,0.0,0.0,0.0,0.0,0.0,0.0,0.0,0.0,0.0,0.0,0.0,0.0,0.0,0.0,0.0,0.0,0.0,0.0,0.0,0.0,0.0,0.0,0.0,0.0,0.0,0.0,0.0,0.0,0.0,0.0,0.0,0.0,0.0,0.0,0.0,0.0,0.0,0.0,0.0,0.0,0.0,0.0,0.0,0.0,0.0,0.0,0.0,0.0,0.0,0.0,0.0,0.0,0.0,0.0,0.0,0.0,0.0,0.0,0.0,0.0,0.0,0.0,0.0,0.0,0.0,0.0,0.0,0.0,0.0,0.0,0.0,0.0,0.0,0.0,0.0,0.0,0.0,0.0,0.0,0.0,0.0,0.0,0.0,0.0,0.0,0.0,0.0,0.0,0.0,0.0,0.0,0.0,0.0,0.0,0.0,0.0,0.0,0.0,0.0,0.0,0.0,0.0,0.0,0.0,0.0,0.0,0.0,0.0,0.0,0.0,0.0,0.0,0.0,0.0,0.0,0.0,0.0,0.0,0.0,0.0,0.0,0.0,0.0,0.0,0.0,0.0,0.0,0.0,0.0,0.0,0.0,0.0,0.0,0.0,0.0,0.0,0.0,0.0,0.0,0.0,0.0,0.0,0.0,0.0,0.0,0.0,0.0,0.0,0.0,0.0,0.0,0.0,0.0,0.0,0.0,0.0,0.0,0.0,0.0,0.0,0.0,0.0,0.0,0.0,0.0,0.0,0.0,0.0,0.0,0.0,0.0,0.0,0.0,0.0,0.0,0.0,0.0,0.0,0.0,0.0,0.0,0.0,0.0,0.0,0.0,0.0,0.0,0.0,0.0,0.0,0.0,0.0,0.0,0.0,0.0,0.0,0.0,0.0,0.0,0.0,0.0,0.0,0.0,0.0,0.0,0.0,0.0,0.0,0.0,0.0,0.0,0.0,0.0,0.0,0.0,0.0,0.0,0.0,0.0,0.0,0.0,0.0,0.0,0.0,0.0,0.0,0.0,0.0,0.0,0.0,0.0,0.0,0.0,0.0,0.0,0.0,0.0,0.0,0.0,0.0,0.0,0.0,0.0,0.0,0.0,0.0,0.0,0.0,0.0,0.0,0.0,0.0,0.0,0.0,0.0,0.0,0.0,0.0,0.0,0.0,0.0,0.0,0.0,0.0,0.0,0.0,0.0,0.0,0.0,0.0,0.0,0.0,0.0,0.0,0.0,0.0,0.0,0.0,0.0,0.0,0.0,0.0,0.0,0.0,0.0,0.0,0.0,0.0,0.0,0.0,0.0,0.0,0.0,0.0,0.0,0.0,0.0,0.0,0.0,0.0,0.0,0.0,0.0,0.0,0.0,0.0,0.0,0.0,0.0,0.0,0.0,0.0,0.0,0.0,0.0,0.0,0.0,0.0,0.0,0.0,0.0,0.0,0.0,0.0,0.0,0.0,0.0,0.0,0.0,0.0,0.0,0.0,0.0,0.0,0.0,0.0,0.0,0.0,0.0,0.0,0.0,0.0,0.0,0.0,0.0,0.0,0.0,0.0,0.0,0.0,0.0,0.0,0.0,0.0,0.0,0.0,0.0,0.0,0.0,0.0,0.0,0.0,0.0,0.0,0.0,0.0,0.0,0.0,0.0,0.0,0.0,0.0,0.0,0.0,0.0,0.0,0.0,0.0,0.0,0.0,0.0,0.0,0.0,0.0,0.0,0.0,0.0,0.0,0.0,0.0,0.0,0.0,0.0,0.0,0.0,0.0,0.0,0.0,0.0,0.0,0.0,0.0,0.0,0.0,0.0,0.0,0.0,0.0,0.0,0.0,0.0,0.0,0.0,0.0,0.0,0.0,0.0,0.0,0.0,0.0,0.0,0.0,0.0,0.0,0.0,0.0,0.0,0.0,0.0,0.0,0.0,0.0,0.0,0.0,0.0,0.0,0.0,0.0,0.0,0.0,0.0,0.0,0.0,0.0,0.0,0.0,0.0,0.0,0.0,0.0,0.0,0.0,0.0,0.0,0.0,0.0,0.0,0.0,0.0,0.0,0.0,0.0,0.0,0.0,0.0,0.0,0.0,0.0,0.0,0.0,0.0,0.0,0.0,0.0,0.0,0.0,0.0,0.0,0.0,0.0,0.0,0.0,0.0,0.0,0.0,0.0,0.0,0.0,0.0,0.0,0.0,0.0,0.0,0.0,0.0,0.0,0.0,0.0,0.0,0.0,0.0,0.0,0.0,0.0,0.0,0.0,0.0,0.0,0.0,0.0,0.0,0.0,0.0,0.0,0.0,0.0,0.0,0.0,0.0,0.0,0.0,0.0,0.0,0.0,0.0,0.0,0.0,0.0,0.0,0.0,0.0,0.0,0.0,0.0,0.0,0.0,0.0,0.0,0.0,0.0,0.0,0.0,0.0,0.0,0.0,0.0,0.0,0.0,0.0,0.0,0.0,0.0,0.0,0.0,0.0,0.0,0.0,0.0,0.0,0.0,0.0,0.0,0.0,0.0,0.0,0.0,0.0,0.0,0.0,0.0,0.0,0.0,0.0,0.0,0.0,0.0,0.0,0.0,0.0,0.0,0.0,0.0,0.0,0.0,0.0,0.0,0.0,0.0,0.0,0.0,0.0,0.0,0.0,0.0,0.0,0.0,0.0,0.0,0.0,0.0,0.0,0.0,0.0,0.0,0.0,0.0,0.0,0.0,0.0,0.0,0.0,0.0,0.0,0.0,0.0,0.0,0.0,0.0,0.0,0.0,0.0,0.0,0.0,0.0,0.0,0.0,0.0,0.0,0.0,0.0,0.0,0.0,0.0,0.0,0.0,0.0,0.0,0.0,0.0,0.0,0.0,0.0,0.0,0.0,0.0,0.0,0.0,0.0,0.0,0.0,0.0,0.0,0.0,0.0,0.0,0.0,0.0,0.0,0.0,0.0,0.0,0.0,0.0,0.0,0.0,0.0,0.0,0.0,0.0,0.0,0.0,0.0,0.0,0.0,0.0,0.0,0.0,0.0,0.0,0.0,0.0,0.0,0.0,0.0,0.0,0.0,0.0,0.0,0.0,0.0,0.0,0.0,0.0,0.0,0.0,0.0,0.0,0.0,0.0,0.0,0.0,0.0,0.0,0.0,0.0,0.0,0.0,0.0,0.0,0.0,0.0,0.0,0.0,0.0,0.0,0.0,0.0,0.0,0.0,0.0,0.0,0.0,0.0,0.0,0.0,0.0,0.0,0.0,0.0,0.0,0.0,0.0,0.0,0.0,0.0,0.0,0.0,0.0,0.0,0.0,0.0,0.0,0.0,0.0,0.0,0.0,0.0,0.0,0.0,0.0,0.0,0.0,0.0,0.0,0.0,0.0,0.0,0.0,0.0,0.0,0.0,0.0,0.0,0.0,0.0,0.0,0.0,0.0,0.0,0.0,0.0,0.0,0.0,0.0,0.0,0.0,0.0,0.0,0.0,0.0,0.0,0.0,0.0,0.0,0.0,0.0,0.0,0.0,0.0,0.0,0.0,0.0,0.0,0.0,0.0,0.0,0.0,0.0,0.0,0.0,0.0,0.0,0.0,2.542,0.0,0.0,0.0,0.0,0.0,0.0,0.0,0.0,0.0,0.0,0.0,0.0,0.0,0.0,0.0,0.0,0.0,0.0,0.0,0.0,0.0,0.0,0.0,0.0,0.0,0.0,0.0,0.0,0.0,0.0,0.0,0.0,0.0,0.0,0.0,0.0,0.0,0.0,0.0,0.0,0.0,0.0,0.0,0.0,0.0,0.0,0.0,0.0,0.0,0.0,0.0,0.0,0.0,0.0,0.0,0.0,0.0,0.0,0.0,0.0,0.0,0.0,0.0,0.0,0.0,0.0,0.0,0.0,0.0,0.0,0.0,0.0,0.0,0.0,0.0,0.0,0.0,0.0,0.0,0.0,0.0,0.0,0.0,0.0,0.0,0.0,0.0,0.0,0.0,0.0,0.0,0.0,0.0,0.0,0.0,0.0,0.0,0.0,0.0,0.0,0.0,0.0,0.0,0.0,0.0,0.0,0.0,0.0,0.0,0.0,2.5294,2.5294,2.5294,2.5294,2.5294,0.0,0.0,0.0,0.0,0.0,0.0,0.0,0.0,0.0,0.0,0.0,0.0,0.0,0.0,0.0,0.0,0.0,0.0,0.0,0.0,0.0,0.0,0.0,0.0,0.0,0.0,0.0,0.0,0.0,0.0,0.0,0.0,0.0,0.0,0.0,0.0,0.0,0.0,0.0,0.0,0.0,0.0,0.0,0.0,0.0,0.0,0.0,0.0,0.0,0.0,0.0,0.0,0.0,0.0,0.0,0.0,0.0,0.0,0.0,0.0,0.0,0.0,0.0,0.0,0.0,0.0,0.0,0.0,0.0,0.0,0.0,0.0,0.0,0.0,0.0,0.0,0.0,0.0,0.0,0.0,0.0,0.0,0.0,0.0,0.0,0.0,0.0,0.0,0.0,0.0,0.0,0.0,0.0,0.0,0.0,0.0,0.0,0.0,0.0,0.0,0.0,0.0,0.0,0.0,0.0,0.0,0.0,0.0,0.0,0.0,0.0,0.0,2.5294,2.5294,2.5294,0.0,0.0,0.0,0.0,0.0,0.0,0.0,0.0,0.0,0.0,0.0,0.0,0.0,0.0,0.0,0.0,0.0,0.0,0.0,0.0,0.0,0.0,0.0,0.0,0.0,0.0,0.0,0.0,0.0,0.0,0.0,0.0,0.0,0.0,0.0,0.0,0.0,0.0,0.0,0.0,0.0,0.0,0.0,0.0,0.0,0.0,0.0,0.0,0.0,0.0,0.0,0.0,0.0,0.0,0.0,0.0,0.0,0.0,0.0,0.0,0.0,0.0,0.0,0.0,0.0,0.0,0.0,0.0,0.0,0.0,0.0,0.0,0.0,0.0,0.0,0.0,0.0,0.0,0.0,0.0,0.0,0.0,0.0,0.0,0.0,0.0,0.0,0.0,0.0,0.0,0.0,0.0,0.0,0.0,0.0,0.0,0.0,0.0,0.0,0.0,0.0,0.0,0.0,0.0,0.0,0.0,0.0,0.0,0.0,0.0,2.5294,2.5294,2.5294,0.0,2.5294,0.0,0.0,0.0,0.0,0.0,0.0,0.0,0.0,0.0,0.0,0.0,0.0,0.0,0.0,0.0,0.0,0.0,0.0,0.0,0.0,0.0,0.0,0.0,0.0,0.0,0.0,0.0,0.0,0.0,0.0,0.0,0.0,0.0,0.0,0.0,0.0,0.0,0.0,0.0,0.0,0.0,0.0,0.0,0.0,0.0,0.0,0.0,0.0,0.0,0.0,0.0,0.0,0.0,0.0,0.0,0.0,0.0,0.0,0.0,0.0,0.0,0.0,0.0,0.0,0.0,0.0,0.0,0.0,0.0,0.0,0.0,0.0,0.0,0.0,0.0,0.0,0.0,0.0,0.0,0.0,0.0,0.0,0.0,0.0,0.0,0.0,0.0,0.0,0.0,0.0,0.0,0.0,0.0,0.0,0.0,0.0,0.0,0.0,0.0,0.0,0.0,0.0,0.0,0.0,0.0,0.0,0.0,0.0,0.0,0.0,2.5294,2.5294,2.5294,2.5294,0.0,0.0,0.0,0.0,0.0,0.0,0.0,0.0,0.0,0.0,0.0,0.0,0.0,0.0,0.0,0.0,0.0,0.0,0.0,0.0,0.0,0.0,0.0,0.0,0.0,0.0,0.0,0.0,0.0,0.0,0.0,0.0,0.0,0.0,0.0,0.0,0.0,0.0,0.0,0.0,0.0,0.0,0.0,0.0,0.0,0.0,0.0,0.0,0.0,0.0,0.0,0.0,0.0,0.0,0.0,0.0,0.0,0.0,0.0,0.0,0.0,0.0,0.0,0.0,0.0,0.0,0.0,0.0,0.0,0.0,0.0,0.0,0.0,0.0,0.0,0.0,0.0,0.0,0.0,0.0,0.0,0.0,0.0,0.0,0.0,0.0,0.0,0.0,0.0,0.0,0.0,0.0,0.0,0.0,0.0,0.0,0.0,0.0,0.0,0.0,0.0,0.0,0.0,0.0,0.0,0.0,0.0,0.0,0.0,0.0,2.5294,2.5294,2.5294,2.5294,2.5294,2.5294,0.0,0.0,0.0,0.0,0.0,0.0,0.0,0.0,0.0,0.0,0.0,0.0,0.0,0.0,0.0,0.0,0.0,0.0,0.0,0.0,0.0,0.0,0.0,0.0,0.0,0.0,0.0,0.0,0.0,0.0,0.0,0.0,0.0,0.0,0.0,0.0,0.0,0.0,0.0,0.0,0.0,0.0,0.0,0.0,0.0,0.0,0.0,0.0,0.0,0.0,0.0,0.0,0.0,0.0,0.0,0.0,0.0,0.0,0.0,0.0,0.0,0.0,0.0,0.0,0.0,0.0,0.0,0.0,0.0,0.0,0.0,0.0,0.0,0.0,0.0,0.0,0.0,0.0,0.0,0.0,0.0,0.0,0.0,0.0,0.0,0.0,0.0,0.0,0.0,0.0,0.0,0.0,0.0,0.0,0.0,0.0,0.0,0.0,0.0,0.0,0.0,0.0,0.0,0.0,0.0,0.0,0.0,0.0,2.5294,2.5294,2.5294,2.5294,2.5294,2.5294,0.0,0.0,0.0,0.0,0.0,0.0,0.0,0.0,0.0,0.0,0.0,0.0,0.0,0.0,0.0,0.0,0.0,0.0,0.0,0.0,0.0,0.0,0.0,0.0,0.0,0.0,0.0,0.0,0.0,0.0,0.0,0.0,0.0,0.0,0.0,0.0,0.0,0.0,0.0,0.0,0.0,0.0,0.0,0.0,0.0,0.0,0.0,0.0,0.0,0.0,0.0,0.0,0.0,0.0,0.0,0.0,0.0,0.0,0.0,0.0,0.0,0.0,0.0,0.0,0.0,0.0,0.0,0.0,0.0,0.0,0.0,0.0,0.0,0.0,0.0,0.0,0.0,0.0,0.0,0.0,0.0,0.0,0.0,0.0,0.0,0.0,0.0,0.0,0.0,0.0,0.0,0.0,0.0,0.0,0.0,0.0,0.0,0.0,0.0,0.0,0.0,0.0,0.0,0.0,0.0,0.0,0.0,0.0,0.0,2.5294,2.5294,2.5294,2.5294,2.5105,2.4975,0.0,0.0,0.0,0.0,0.0,0.0,0.0,0.0,0.0,0.0,0.0,0.0,0.0,0.0,0.0,0.0,0.0,0.0,0.0,0.0,0.0,0.0,0.0,0.0,0.0,0.0,0.0,0.0,0.0,0.0,0.0,0.0,0.0,0.0,0.0,0.0,0.0,0.0,0.0,0.0,0.0,0.0,0.0,0.0,0.0,0.0,0.0,0.0,0.0,0.0,0.0,0.0,0.0,0.0,0.0,0.0,0.0,0.0,0.0,0.0,0.0,0.0,0.0,0.0,0.0,0.0,0.0,0.0,0.0,0.0,0.0,0.0,0.0,0.0,0.0,0.0,0.0,0.0,0.0,0.0,0.0,0.0,0.0,0.0,0.0,0.0,0.0,0.0,0.0,0.0,0.0,0.0,0.0,0.0,0.0,0.0,0.0,0.0,0.0,0.0,0.0,0.0,0.0,0.0,0.0,0.0,0.0,0.0,0.0,2.5129,0.0,2.5294,2.5294,2.5076,2.4963,0.0,0.0,0.0,0.0,0.0,0.0,0.0,0.0,0.0,0.0,0.0,0.0,0.0,0.0,0.0,0.0,0.0,0.0,0.0,0.0,0.0,0.0,0.0,0.0,0.0,0.0,0.0,0.0,0.0,0.0,0.0,0.0,0.0,0.0,0.0,0.0,0.0,0.0,0.0,0.0,0.0,0.0,0.0,0.0,0.0,0.0,0.0,0.0,0.0,0.0,0.0,0.0,0.0,0.0,0.0,0.0,0.0,0.0,0.0,0.0,0.0,0.0,0.0,0.0,0.0,0.0,0.0,0.0,0.0,0.0,0.0,0.0,0.0,0.0,0.0,0.0,0.0,0.0,0.0,0.0,0.0,0.0,0.0,0.0,0.0,0.0,0.0,0.0,0.0,0.0,0.0,0.0,0.0,0.0,0.0,0.0,0.0,0.0,0.0,0.0,0.0,0.0,0.0,0.0,0.0,0.0,0.0,0.0,2.44,2.479,2.5123,2.5259,2.5294,2.5259,2.5259,0.0,0.0,0.0,0.0,0.0,0.0,0.0,0.0,0.0,0.0,0.0,0.0,0.0,0.0,0.0,0.0,0.0,0.0,0.0,0.0,0.0,0.0,0.0,0.0,0.0,0.0,0.0,0.0,0.0,0.0,0.0,0.0,0.0,0.0,0.0,0.0,0.0,0.0,0.0,0.0,0.0,0.0,0.0,0.0,0.0,0.0,0.0,0.0,0.0,0.0,0.0,0.0,0.0,0.0,0.0,0.0,0.0,0.0,0.0,0.0,0.0,0.0,0.0,0.0,0.0,0.0,0.0,0.0,0.0,0.0,0.0,0.0,0.0,0.0,0.0,0.0,0.0,0.0,0.0,0.0,0.0,0.0,0.0,0.0,0.0,0.0,0.0,0.0,0.0,0.0,0.0,0.0,0.0,0.0,0.0,0.0,0.0,0.0,0.0,0.0,0.0,0.0,0.0,0.0,0.0,0.0,0.0,0.0,0.0,2.4772,2.4634,2.4676,2.4939,2.4694,2.4539,0.0,0.0,0.0,0.0,0.0,0.0,0.0,0.0,0.0,0.0,0.0,0.0,0.0,0.0,0.0,0.0,0.0,0.0,0.0,0.0,0.0,0.0,0.0,0.0,0.0,0.0,0.0,0.0,0.0,0.0,0.0,0.0,0.0,0.0,0.0,0.0,0.0,0.0,0.0,0.0,0.0,0.0,0.0,0.0,0.0,0.0,0.0,0.0,0.0,0.0,0.0,0.0,0.0,0.0,0.0,0.0,0.0,0.0,0.0,0.0,0.0,0.0,0.0,0.0,0.0,0.0,0.0,0.0,0.0,0.0,0.0,0.0,0.0,0.0,0.0,0.0,0.0,0.0,0.0,0.0,0.0,0.0,0.0,0.0,0.0,0.0,0.0,0.0,0.0,0.0,0.0,0.0,0.0,0.0,0.0,0.0,0.0,0.0,0.0,0.0,0.0,0.0,0.0,0.0,0.0,0.0,0.0,0.0,0.0,2.4309,2.4255,2.4327,2.4562,2.4472,2.4418,2.4418,0.0,0.0,0.0,0.0,0.0,0.0,0.0,0.0,0.0,0.0,0.0,0.0,0.0,0.0,0.0,0.0,0.0,0.0,0.0,0.0,0.0,0.0,0.0,0.0,0.0,0.0,0.0,0.0,0.0,0.0,0.0,0.0,0.0,0.0,0.0,0.0,0.0,0.0,0.0,0.0,0.0,0.0,0.0,0.0,0.0,0.0,0.0,0.0,0.0,0.0,0.0,0.0,0.0,0.0,0.0,0.0,0.0,0.0,0.0,0.0,0.0,0.0,0.0,0.0,0.0,0.0,0.0,0.0,0.0,0.0,0.0,0.0,0.0,0.0,0.0,0.0,0.0,0.0,0.0,0.0,0.0,0.0,0.0,0.0,0.0,0.0,0.0,0.0,0.0,0.0,0.0,0.0,0.0,0.0,0.0,0.0,0.0,0.0,0.0,0.0,0.0,0.0,0.0,0.0,0.0,0.0,0.0,0.0,2.3567,2.3934,2.4134,2.4182,2.4538,2.4772,0.0,0.0,0.0,0.0,0.0,0.0,0.0,0.0,0.0,0.0,0.0,0.0,0.0,0.0,0.0,0.0,0.0,0.0,0.0,0.0,0.0,0.0,0.0,0.0,0.0,0.0,0.0,0.0,0.0,0.0,0.0,0.0,0.0,0.0,0.0,0.0,0.0,0.0,0.0,0.0,0.0,0.0,0.0,0.0,0.0,0.0,0.0,0.0,0.0,0.0,0.0,0.0,0.0,0.0,0.0,0.0,0.0,0.0,0.0,0.0,0.0,0.0,0.0,0.0,0.0,0.0,0.0,0.0,0.0,0.0,0.0,0.0,0.0,0.0,0.0,0.0,0.0,0.0,0.0,0.0,0.0,0.0,0.0,0.0,0.0,0.0,0.0,0.0,0.0,0.0,0.0,0.0,0.0,0.0,0.0,0.0,0.0,0.0,0.0,0.0,0.0,0.0,0.0,0.0,0.0,0.0,0.0,0.0,0.0,2.315,2.3272,2.3446,2.3769,2.4152,2.4363,0.0,0.0,0.0,0.0,0.0,0.0,0.0,0.0,0.0,0.0,0.0,0.0,0.0,0.0,0.0,0.0,0.0,0.0,0.0,0.0,0.0,0.0,0.0,0.0,0.0,0.0,0.0,0.0,0.0,0.0,0.0,0.0,0.0,0.0,0.0,0.0,0.0,0.0,0.0,0.0,0.0,0.0,0.0,0.0,0.0,0.0,0.0,0.0,0.0,0.0,0.0,0.0,0.0,0.0,0.0,0.0,0.0,0.0,0.0,0.0,0.0,0.0,0.0,0.0,0.0,0.0,0.0,0.0,0.0,0.0,0.0,0.0,0.0,0.0,0.0,0.0,0.0,0.0,0.0,0.0,0.0,0.0,0.0,0.0,0.0,0.0,0.0,0.0,0.0,0.0,0.0,0.0,0.0,0.0,0.0,0.0,0.0,0.0,0.0,0.0,0.0,0.0,0.0,0.0,0.0,0.0,0.0,0.0,2.302,2.302,2.302,2.3113,2.3335,2.3751,2.4025,0.0,0.0,0.0,0.0,0.0,0.0,0.0,0.0,0.0,0.0,0.0,0.0,0.0,0.0,0.0,0.0,0.0,0.0,0.0,0.0,0.0,0.0,0.0,0.0,0.0,0.0,0.0,0.0,0.0,0.0,0.0,0.0,0.0,0.0,0.0,0.0,0.0,0.0,0.0,0.0,0.0,0.0,0.0,0.0,0.0,0.0,0.0,0.0,0.0,0.0,0.0,0.0,0.0,0.0,0.0,0.0,0.0,0.0,0.0,0.0,0.0,0.0,0.0,0.0,0.0,0.0,0.0,0.0,0.0,0.0,0.0,0.0,0.0,0.0,0.0,0.0,0.0,0.0,0.0,0.0,0.0,0.0,0.0,0.0,0.0,0.0,0.0,0.0,0.0,0.0,0.0,0.0,0.0,0.0,0.0,0.0,0.0,0.0,0.0,0.0,0.0,0.0,0.0,0.0,0.0,0.0,0.0,0.0,2.302,2.302,2.302,2.302,2.302,2.339,2.3787,0.0,0.0,0.0,0.0,0.0,0.0,0.0,0.0,0.0,0.0,0.0,0.0,0.0,0.0,0.0,0.0,0.0,0.0,0.0,0.0,0.0,0.0,0.0,0.0,0.0,0.0,0.0,0.0,0.0,0.0,0.0,0.0,0.0,0.0,0.0,0.0,0.0,0.0,0.0,0.0,0.0,0.0,0.0,0.0,0.0,0.0,0.0,0.0,0.0,0.0,0.0,0.0,0.0,0.0,0.0,0.0,0.0,0.0,0.0,0.0,0.0,0.0,0.0,0.0,0.0,0.0,0.0,0.0,0.0,0.0,0.0,0.0,0.0,0.0,0.0,0.0,0.0,0.0,0.0,0.0,0.0,0.0,0.0,0.0,0.0,0.0,0.0,0.0,0.0,0.0,0.0,0.0,0.0,0.0,0.0,0.0,0.0,0.0,0.0,0.0,0.0,0.0,0.0,0.0,0.0,0.0,0.0,0.0,2.302,2.302,2.302,2.302,2.302,2.339,2.3787,0.0,0.0,0.0,0.0,0.0,0.0,0.0,0.0,0.0,0.0,0.0,0.0,0.0,0.0,0.0,0.0,0.0,0.0,0.0,0.0,0.0,0.0,0.0,0.0,0.0,0.0,0.0,0.0,0.0,0.0,0.0,0.0,0.0,0.0,0.0,0.0,0.0,0.0,0.0,0.0,0.0,0.0,0.0,0.0,0.0,0.0,0.0,0.0,2.312,0.0,0.0,0.0,0.0,0.0,0.0,0.0,0.0,0.0,0.0,0.0,0.0,0.0,0.0,0.0,0.0,0.0,0.0,0.0,0.0,0.0,0.0,0.0,0.0,0.0,0.0,0.0,0.0,0.0,0.0,0.0,0.0,0.0,0.0,0.0,0.0,0.0,0.0,0.0,0.0,0.0,0.0,0.0,0.0,0.0,0.0,0.0,0.0,0.0,0.0,0.0,0.0,0.0,0.0,0.0,0.0,0.0,0.0,0.0,2.302,2.302,2.302,2.302,2.302,2.3205,2.3593,0.0,0.0,0.0,0.0,0.0,0.0,0.0,0.0,0.0,0.0,0.0,0.0,0.0,0.0,0.0,0.0,0.0,0.0,0.0,0.0,0.0,0.0,0.0,0.0,0.0,0.0,0.0,0.0,0.0,0.0,0.0,0.0,0.0,0.0,0.0,0.0,0.0,0.0,0.0,0.0,0.0,0.0,0.0,0.0,0.0,0.0,0.0,0.0,0.0,0.0,0.0,0.0,0.0,0.0,0.0,0.0,0.0,0.0,0.0,0.0,0.0,0.0,0.0,0.0,0.0,0.0,0.0,0.0,0.0,0.0,0.0,0.0,0.0,0.0,0.0,0.0,0.0,0.0,0.0,0.0,0.0,0.0,0.0,0.0,0.0,0.0,0.0,0.0,0.0,0.0,0.0,0.0,0.0,0.0,0.0,0.0,0.0,0.0,0.0,0.0,0.0,0.0,0.0,0.0,0.0,0.0,0.0,2.302,2.302,2.302,2.302,2.302,2.302,2.302,2.3335,2.4061,0.0,0.0,0.0,0.0,0.0,0.0,0.0,0.0,0.0,0.0,0.0,0.0,0.0,0.0,0.0,0.0,0.0,0.0,0.0,0.0,0.0,0.0,0.0,0.0,0.0,0.0,0.0,0.0,0.0,0.0,0.0,0.0,0.0,0.0,0.0,0.0,0.0,0.0,2.3101,2.3101,0.0,0.0,0.0,0.0,0.0,0.0,0.0,0.0,2.3101,0.0,0.0,0.0,0.0,0.0,0.0,0.0,0.0,0.0,0.0,0.0,0.0,0.0,0.0,0.0,0.0,0.0,0.0,0.0,0.0,0.0,0.0,0.0,0.0,0.0,0.0,0.0,0.0,0.0,0.0,0.0,0.0,0.0,0.0,0.0,0.0,0.0,0.0,0.0,0.0,0.0,0.0,0.0,0.0,0.0,0.0,0.0,0.0,0.0,0.0,0.0,0.0,0.0,0.0,0.0,0.0,2.302,2.302,2.302,2.302,2.302,2.302,2.302,2.302,2.3224,2.3696,0.0,0.0,0.0,0.0,0.0,0.0,0.0,0.0,0.0,0.0,0.0,0.0,0.0,0.0,0.0,0.0,0.0,0.0,0.0,0.0,0.0,0.0,0.0,0.0,0.0,0.0,0.0,0.0,0.0,0.0,0.0,0.0,0.0,0.0,0.0,0.0,0.0,0.0,0.0,2.3101,2.3101,0.0,0.0,0.0,0.0,0.0,0.0,0.0,0.0,2.3101,0.0,0.0,0.0,0.0,0.0,0.0,0.0,0.0,0.0,0.0,0.0,0.0,0.0,0.0,0.0,0.0,0.0,0.0,0.0,0.0,0.0,0.0,0.0,0.0,0.0,0.0,0.0,0.0,0.0,0.0,0.0,0.0,0.0,0.0,0.0,0.0,0.0,0.0,0.0,0.0,0.0,0.0,0.0,0.0,0.0,0.0,0.0,0.0,0.0,0.0,0.0,0.0,0.0,0.0,0.0,2.2553,2.2852,2.302,2.302,2.302,2.302,2.302,2.302,2.3083,0.0,0.0,0.0,0.0,0.0,0.0,0.0,0.0,0.0,0.0,0.0,0.0,0.0,0.0,0.0,0.0,0.0,0.0,0.0,0.0,0.0,0.0,0.0,0.0,0.0,0.0,0.0,0.0,0.0,0.0,0.0,0.0,0.0,0.0,0.0,0.0,0.0,0.0,0.0,0.0,2.3035,2.3101,2.3101,0.0,0.0,0.0,0.0,0.0,0.0,2.3101,2.3101,0.0,0.0,0.0,0.0,0.0,0.0,0.0,0.0,0.0,0.0,0.0,0.0,0.0,0.0,0.0,0.0,0.0,0.0,0.0,0.0,0.0,0.0,0.0,0.0,0.0,0.0,0.0,0.0,0.0,0.0,0.0,0.0,0.0,0.0,0.0,0.0,0.0,0.0,0.0,0.0,0.0,0.0,0.0,0.0,0.0,0.0,0.0,0.0,0.0,0.0,0.0,0.0,0.0,0.0,0.0,2.212,2.2703,2.302,2.302,2.302,2.302,2.302,2.302,2.302,0.0,0.0,0.0,0.0,0.0,0.0,0.0,0.0,0.0,0.0,0.0,0.0,0.0,0.0,0.0,0.0,0.0,0.0,0.0,0.0,0.0,0.0,0.0,0.0,0.0,0.0,0.0,0.0,0.0,0.0,0.0,0.0,0.0,0.0,0.0,0.0,0.0,0.0,0.0,0.0,0.0,2.3101,2.3101,2.3101,0.0,0.0,0.0,0.0,2.3101,2.3101,0.0,0.0,0.0,0.0,0.0,0.0,0.0,0.0,0.0,0.0,0.0,0.0,0.0,0.0,0.0,0.0,0.0,0.0,0.0,0.0,0.0,0.0,0.0,0.0,0.0,0.0,0.0,0.0,0.0,0.0,0.0,0.0,0.0,0.0,0.0,0.0,0.0,0.0,0.0,0.0,0.0,0.0,0.0,0.0,0.0,0.0,0.0,0.0,0.0,0.0,0.0,0.0,0.0,0.0,0.0,0.0,2.212,2.2673,2.302,2.302,2.302,2.302,2.302,2.302,2.302,0.0,0.0,0.0,0.0,0.0,0.0,0.0,0.0,0.0,0.0,0.0,0.0,0.0,0.0,0.0,0.0,0.0,0.0,0.0,0.0,0.0,0.0,0.0,0.0,0.0,0.0,0.0,0.0,0.0,0.0,0.0,0.0,0.0,0.0,0.0,0.0,0.0,0.0,0.0,0.0,0.0,2.3101,2.3101,2.3101,2.3101,0.0,0.0,2.3101,2.3101,2.3101,0.0,0.0,0.0,0.0,0.0,0.0,0.0,0.0,0.0,0.0,0.0,0.0,0.0,0.0,0.0,0.0,0.0,0.0,0.0,0.0,0.0,0.0,0.0,0.0,0.0,0.0,0.0,0.0,0.0,0.0,0.0,0.0,0.0,0.0,0.0,0.0,0.0,0.0,0.0,0.0,0.0,0.0,0.0,0.0,0.0,0.0,0.0,0.0,0.0,0.0,0.0,0.0,0.0,0.0,0.0,2.1596,2.1615,2.2523,2.302,2.302,2.302,2.302,2.302,2.302,2.302,0.0,0.0,0.0,0.0,0.0,0.0,0.0,0.0,0.0,0.0,0.0,0.0,0.0,0.0,0.0,0.0,0.0,0.0,0.0,0.0,0.0,0.0,0.0,0.0,0.0,0.0,0.0,0.0,0.0,0.0,0.0,0.0,0.0,0.0,0.0,0.0,0.0,0.0,0.0,0.0,0.0,0.0,2.3101,2.3101,0.0,0.0,0.0,2.3101,2.3101,0.0,0.0,0.0,0.0,0.0,0.0,0.0,0.0,0.0,0.0,0.0,0.0,0.0,0.0,0.0,0.0,0.0,0.0,0.0,0.0,0.0,0.0,0.0,0.0,0.0,0.0,0.0,0.0,0.0,0.0,0.0,0.0,0.0,0.0,0.0,0.0,0.0,0.0,0.0,0.0,0.0,0.0,0.0,0.0,0.0,0.0,0.0,0.0,0.0,0.0,0.0,0.0,0.0,0.0,0.0,0.0,0.0,2.0953,2.2004,2.2617,2.2759,2.2777,2.2863,2.2983,2.2871,0.0,0.0,0.0,0.0,0.0,0.0,0.0,0.0,0.0,0.0,0.0,0.0,0.0,0.0,0.0,0.0,0.0,0.0,0.0,0.0,0.0,0.0,0.0,0.0,0.0,0.0,0.0,1.5489,0.0,0.0,0.0,0.0,0.0,0.0,0.0,0.0,0.0,0.0,0.0,0.0,0.0,0.0,2.3025,2.2775,2.296,2.3101,0.0,0.0,2.3101,2.3101,2.3101,2.3101,0.0,0.0,0.0,0.0,0.0,0.0,0.0,0.0,0.0,0.0,0.0,0.0,0.0,0.0,0.0,0.0,0.0,0.0,0.0,0.0,0.0,0.0,0.0,0.0,0.0,0.0,0.0,0.0,0.0,0.0,0.0,0.0,0.0,0.0,0.0,0.0,0.0,0.0,0.0,0.0,0.0,0.0,0.0,0.0,0.0,0.0,0.0,0.0,0.0,0.0,0.0,0.0,0.0,0.0,2.0255,2.0294,2.0953,2.1605,2.212,2.2168,2.2421,2.2964,2.244,2.2157,0.0,0.0,0.0,0.0,0.0,0.0,0.0,0.0,0.0,0.0,0.0,0.0,0.0,0.0,0.0,0.0,0.0,0.0,0.0,0.0,0.0,0.0,0.0,0.0,0.0,0.0,0.0,0.0,0.0,0.0,0.0,0.0,0.0,0.0,0.0,0.0,0.0,0.0,0.0,0.0,0.0,2.2775,2.1926,2.2533,2.3101,0.0,2.3101,2.3101,2.3101,2.3101,2.3101,2.3091,0.0,0.0,0.0,0.0,0.0,0.0,0.0,0.0,0.0,0.0,0.0,0.0,0.0,0.0,0.0,0.0,0.0,0.0,0.0,0.0,0.0,0.0,0.0,0.0,0.0,0.0,0.0,0.0,0.0,0.0,0.0,0.0,0.0,0.0,0.0,0.0,0.0,0.0,0.0,0.0,0.0,0.0,0.0,0.0,0.0,0.0,0.0,0.0,0.0,0.0,0.0,0.0,0.0,2.0206,2.0216,2.0857,2.1299,2.1529,2.1558,2.1643,2.1861,2.1672,2.1539,0.0,0.0,0.0,0.0,0.0,0.0,0.0,0.0,0.0,0.0,0.0,0.0,0.0,0.0,0.0,0.0,0.0,0.0,0.0,0.0,0.0,0.0,0.0,0.0,0.0,0.0,0.0,0.0,1.5077,1.513,1.5281,0.0,0.0,0.0,0.0,0.0,0.0,0.0,0.0,0.0,0.0,2.1872,2.0908,2.1628,0.0,0.0,2.1329,2.132,2.1297,2.1819,2.2258,2.2236,2.274,0.0,0.0,0.0,0.0,0.0,0.0,0.0,0.0,0.0,0.0,0.0,0.0,0.0,0.0,0.0,0.0,0.0,0.0,0.0,0.0,0.0,0.0,0.0,0.0,0.0,0.0,0.0,0.0,0.0,0.0,0.0,0.0,0.0,0.0,0.0,0.0,0.0,0.0,0.0,0.0,0.0,0.0,0.0,0.0,0.0,0.0,0.0,0.0,0.0,0.0,0.0,0.0,1.9932,1.9932,2.0391,2.0711,2.0895,2.0895,2.0992,2.1184,2.1011,2.0895,0.0,0.0,0.0,0.0,0.0,0.0,0.0,0.0,0.0,0.0,0.0,0.0,0.0,0.0,0.0,0.0,0.0,0.0,0.0,0.0,0.0,0.0,0.0,0.0,0.0,0.0,0.0,0.0,1.5224,1.5511,1.5775,0.0,0.0,0.0,0.0,0.0,0.0,0.0,0.0,0.0,0.0,2.0903,1.9914,2.0624,2.1096,2.0714,2.0647,2.0737,2.1006,2.1418,2.1695,2.1695,0.0,0.0,0.0,0.0,0.0,0.0,0.0,0.0,0.0,0.0,0.0,0.0,0.0,0.0,0.0,0.0,0.0,0.0,0.0,0.0,0.0,0.0,0.0,0.0,0.0,0.0,0.0,1.2279,0.0,0.0,1.2653,0.0,0.0,0.0,0.0,0.0,0.0,0.0,0.0,0.0,0.0,0.0,0.0,0.0,0.0,0.0,0.0,0.0,0.0,0.0,0.0,0.0,0.0,1.9341,1.9321,1.9381,1.9657,2.0196,2.0216,2.0508,2.1097,2.0566,2.0226,2.0196,0.0,0.0,0.0,0.0,0.0,0.0,0.0,0.0,0.0,0.0,0.0,0.0,0.0,0.0,0.0,0.0,0.0,0.0,0.0,0.0,0.0,0.0,0.0,0.0,0.0,0.0,1.5006,1.5247,1.5495,0.0,0.0,0.0,0.0,0.0,0.0,0.0,0.0,0.0,1.7396,1.8987,1.99,1.8949,1.9627,2.0534,2.1427,2.1561,2.1926,2.2709,2.2192,2.1695,0.0,0.0,0.0,0.0,0.0,0.0,0.0,0.0,0.0,0.0,0.0,0.0,0.0,0.0,0.0,0.0,0.0,0.0,0.0,0.0,0.0,0.0,0.0,0.0,0.0,0.0,0.0,1.0154,1.0474,0.0,0.0,0.0,0.0,0.0,0.0,0.0,0.0,0.0,0.0,0.0,1.225,1.2555,0.0,0.0,0.0,0.0,0.0,0.0,0.0,0.0,0.0,0.0,0.0,0.0,1.9292,1.9292,1.9292,1.94,1.9598,1.9598,1.9707,1.9923,1.9707,1.9598,1.9598,0.0,0.0,0.0,0.0,0.0,0.0,0.0,0.0,0.0,0.0,0.0,0.0,0.0,0.0,0.0,0.0,0.0,0.0,0.0,0.0,0.0,0.0,0.0,0.0,0.0,1.5354,0.0,0.0,0.0,0.0,0.0,0.0,0.0,0.0,0.0,0.0,1.6887,1.7131,1.7279,1.8442,1.8903,1.794,1.865,1.917,0.0,0.0,0.0,0.0,0.0,0.0,0.0,0.0,0.0,0.0,0.0,0.0,0.0,0.0,2.5708,2.5708,2.5708,2.5708,2.5708,0.0,0.0,0.0,0.0,0.0,0.0,0.0,0.0,0.0,0.0,0.0,0.0,0.0,0.0,0.9195,0.9526,0.9634,0.0,0.0,0.0,0.0,0.0,0.0,0.0,0.0,1.1601,1.1993,1.2015,1.2485,1.2705,1.2705,1.2705,1.2939,0.0,0.0,0.0,0.0,0.0,0.0,0.0,0.0,1.8547,1.8827,1.8856,1.8995,1.9273,1.9292,1.9292,1.9292,1.9292,1.9292,1.9292,1.9292,1.9222,0.0,0.0,0.0,0.0,0.0,0.0,0.0,0.0,0.0,0.0,0.0,0.0,0.0,0.0,0.0,0.0,0.0,0.0,0.0,0.0,0.0,0.0,0.0,1.5618,0.0,0.0,0.0,0.0,0.0,0.0,0.0,0.0,0.0,1.6541,1.6612,1.677,1.7232,1.7878,1.804,1.7396,0.0,0.0,0.0,0.0,0.0,0.0,0.0,1.8835,1.8955,1.9939,2.1026,2.1864,2.3527,2.4842,2.504,0.0,0.0,2.5708,2.5708,2.5708,2.5708,2.5708,2.5708,2.5708,2.5708,2.5757,0.0,0.0,0.0,0.0,0.7071,0.0,0.0,0.0,0.9018,0.915,0.0,0.9634,0.0,0.0,0.0,0.0,0.7944,0.9038,0.0,0.0,1.1181,1.193,1.2,1.2451,1.2695,1.2717,1.2683,1.2705,1.2726,1.296,0.0,0.0,0.0,0.0,0.0,0.0,1.7098,1.7917,1.7957,1.8379,1.9202,1.9262,1.9233,1.9242,1.9193,1.9154,1.9173,1.9125,1.8984,1.8612,1.7986,0.0,0.0,0.0,0.0,0.0,0.0,0.0,0.0,0.0,0.0,0.0,0.0,0.0,0.0,0.0,0.0,0.0,0.0,0.0,0.0,1.5641,0.0,0.0,0.0,0.0,0.0,0.0,0.0,0.0,0.0,1.6289,1.6541,1.6612,1.6793,1.7232,0.0,0.0,0.0,0.0,1.7667,1.8627,1.8781,1.9058,1.9942,1.9356,1.8885,1.9186,0.0,0.0,2.113,2.2983,2.441,2.4999,2.5449,2.5708,2.5708,2.5708,2.5708,2.5708,2.5708,2.5708,2.5708,2.5708,2.5708,0.3818,0.0,0.0,0.0,0.0,0.7037,0.7319,0.767,0.7861,0.85,0.9391,0.908,0.0,0.0,0.0,0.0,0.0,0.0,0.8624,0.867,1.0017,1.0834,1.1226,1.2037,1.2601,1.2973,1.2801,1.2705,1.2705,1.2769,1.2939,1.3222,0.0,0.0,0.0,0.0,1.6601,1.6825,1.6846,1.7362,1.8367,1.8359,1.8387,1.8367,1.7646,1.7232,1.722,1.7041,1.6891,1.6777,1.6585,0.0,0.0,0.0,0.0,0.0,0.0,0.0,0.0,0.0,0.0,0.0,0.0,0.0,0.0,0.0,0.0,0.0,0.0,0.0,1.5658,1.5755,1.5801,0.0,0.0,0.0,0.0,0.0,0.0,0.0,0.0,0.0,1.6282,1.6666,1.6996,0.0,0.0,1.739,1.7624,1.7653,1.7829,1.8372,1.8458,0.0,1.8781,1.8612,1.8488,1.8577,1.9819,2.1356,2.3041,2.4376,2.5319,2.5508,2.563,2.5708,2.5708,2.5708,2.5708,2.5708,2.5708,2.5708,2.5708,2.5708,2.5708,0.298,0.503,0.4619,0.4907,0.563,0.5801,0.6233,0.6831,0.6978,0.751,0.8208,0.7989,0.8053,0.8312,0.794,0.0,0.0,0.0,0.7771,0.7795,0.9053,0.9862,1.0306,1.1033,1.1614,1.2047,1.2275,1.2377,1.2377,1.2828,1.3036,1.3111,0.0,1.4105,1.421,1.4873,1.5413,1.582,1.5841,1.6375,1.7452,1.7472,1.7492,1.7464,1.6785,1.6396,1.6396,1.6134,1.5928,1.575,1.5495,1.5046,0.0,0.0,0.0,0.0,0.0,0.0,0.0,0.0,0.0,0.0,0.0,1.3938,1.4001,0.0,0.0,0.0,1.5465,1.5635,1.5666,1.5761,0.0,0.0,0.0,0.0,0.0,0.0,0.0,1.6079,1.6142,1.6204,1.6378,1.6961,1.7349,1.7355,1.7538,1.7786,1.7984,0.0,1.8079,1.8269,1.8299,1.8299,1.8299,1.8299,1.8343,1.8482,2.0179,2.1952,2.3231,2.4353,2.5201,2.5586,2.5708,2.5708,2.5708,2.5708,2.5708,2.5708,2.5708,2.5708,2.5708,2.5708,2.5708,0.2186,0.2997,0.2019,0.2521,0.3899,0.3999,0.4849,0.6199,0.6249,0.6323,0.6396,0.662,0.6879,0.7155,0.706,0.0,0.6134,0.6747,0.7034,0.7078,0.8273,0.8949,0.9248,0.974,1.0176,1.0566,1.1464,1.1941,1.2095,1.3025,1.3393,1.3135,1.312,1.3202,1.3355,1.3377,1.3872,1.4831,1.4859,1.5393,1.6527,1.6596,1.6596,1.6547,1.6301,1.6129,1.6129,1.5867,1.5579,1.5215,1.4643,1.4109,1.3702,0.0,0.0,0.0,0.0,0.0,0.0,0.0,0.0,0.0,0.0,0.0,0.0,0.0,0.0,1.5402,1.5666,0.0,1.554,1.5683,0.0,0.0,0.0,1.5801,1.5801,1.5828,1.5841,1.5841,0.0,0.0,1.6741,1.7415,1.7796,1.751,1.7942,1.8313,1.8335,1.8343,1.8343,1.8408,1.8386,1.8394,1.847,1.843,1.8525,1.884,1.9974,2.1261,2.2232,2.3418,2.4452,2.5323,2.5611,2.5708,2.5708,2.5708,2.5708,2.5708,2.5708,2.5708,2.5708,2.5708,2.5708,0.1735,0.1943,0.1718,0.2296,0.3425,0.383,0.4228,0.4601,0.5006,0.5629,0.6373,0.6029,0.5942,0.6016,0.6388,0.6476,0.6331,0.6498,0.6571,0.6621,0.7478,0.8161,0.8635,0.936,1.0338,1.1512,1.1767,1.2312,1.3093,1.3377,1.3461,1.34,1.3401,1.3231,1.2872,1.3073,1.3307,1.3555,1.3555,1.4153,1.5359,1.5615,1.5594,1.5393,1.4573,1.4055,1.3886,1.3626,1.3538,1.3653,1.3498,1.3445,1.3538,1.3448,0.0,0.0,0.0,0.0,0.0,0.0,0.0,0.0,0.0,1.3199,1.3923,0.0,1.4769,0.0,1.5571,1.5784,1.573,1.5784,0.0,0.0,1.5801,1.5801,1.5808,1.6025,1.619,1.6197,1.6476,1.6781,1.6993,1.7573,1.8019,1.815,1.8242,1.8386,1.8628,1.8697,1.8785,1.9005,1.9041,1.9071,1.9041,1.9071,1.9052,1.9173,2.0135,2.0979,2.126,2.286,2.4211,2.4501,2.5167,2.5625,2.5708,2.5708,2.5708,2.5708,2.5708,2.5708,2.5708,2.5708,2.5708,0.1592,0.1592,0.1592,0.1994,0.2699,0.3126,0.3352,0.3501,0.3907,0.4406,0.5004,0.5156,0.5386,0.5636,0.6162,0.6412,0.6412,0.6412,0.6412,0.6437,0.6858,0.7282,0.7698,0.814,0.9166,1.0706,1.1167,1.2015,1.3123,1.3625,1.378,1.3688,1.3688,1.3455,1.3085,1.3198,1.3336,1.3467,1.3555,1.3941,1.4622,1.4795,1.4755,1.4462,1.3913,1.352,1.3281,1.3131,1.3117,1.3262,1.3165,1.322,1.3495,1.3491,1.328,0.0,0.0,0.0,0.0,0.0,0.0,0.0,0.0,0.0,0.0,0.0,1.4814,1.5077,1.5523,1.5761,1.5689,1.5737,1.5861,1.6012,1.6025,1.6079,1.6182,1.6366,1.6491,1.6491,1.6852,1.7167,1.7326,1.7937,1.8442,1.8611,1.8709,1.8822,1.8957,1.9034,1.91,1.925,1.9298,1.9298,1.9298,1.9298,1.9298,1.9376,2.0207,2.1038,2.1532,2.296,2.4221,2.4732,2.5299,2.5684,2.5708,2.5708,2.5708,2.5708,2.5708,2.5708,2.5708,2.5708,2.5708,0.1592,0.1592,0.1592,0.1743,0.2022,0.2297,0.2548,0.2826,0.3079,0.3257,0.3355,0.4358,0.5085,0.5636,0.6162,0.6412,0.6412,0.6412,0.6412,0.6412,0.6412,0.6589,0.6917,0.6992,0.7904,0.9509,1.0563,1.1677,1.2901,1.3854,1.416,1.396,1.3954,1.3839,1.3599,1.3593,1.3677,1.3866,1.4047,1.416,1.416,1.4182,1.4084,1.385,1.387,1.377,1.3507,1.3477,1.3509,1.3556,1.3328,1.3322,1.3575,1.3616,1.3169,0.0,1.3395,0.0,0.0,0.0,0.0,0.0,0.0,0.0,0.0,1.4544,1.4814,1.5077,1.5538,1.5766,1.5599,1.5799,1.6046,1.6324,1.6351,1.6426,1.6673,1.674,1.6767,1.6767,1.7282,1.7652,1.7743,1.8412,1.8888,1.8959,1.9105,1.922,1.929,1.9283,1.9283,1.9298,1.9298,1.9298,1.9298,1.9298,1.9298,1.9402,2.0009,2.1013,2.1768,2.2835,2.3973,2.4913,2.525,2.5504,2.5659,2.5708,2.5708,2.5708,2.5708,2.5708,2.5708,2.5708,2.5708,0.1592,0.1592,0.1592,0.1768,0.2022,0.2297,0.2548,0.2826,0.3079,0.3432,0.3882,0.4533,0.511,0.5611,0.6159,0.6412,0.6412,0.6412,0.6412,0.6412,0.6412,0.6761,0.7481,0.8095,0.9374,1.1121,1.1945,1.2901,1.398,1.4202,1.4274,1.422,1.4226,1.4195,1.4153,0.0,0.0,0.0,1.3814,1.395,1.3979,1.4114,1.4089,1.3898,1.3874,0.0,1.3515,1.3483,1.3616,1.3821,1.3762,0.0,0.0,0.0,0.0,0.0,0.0,0.0,0.0,0.0,0.0,0.0,1.2805,1.3143,1.4196,1.4544,1.4814,1.5096,1.5588,1.5961,1.6137,1.6382,1.656,1.6613,1.662,1.6647,1.6707,1.6946,1.7086,1.7093,1.7587,1.8006,1.8227,1.8624,1.8974,1.9175,1.9279,1.9298,1.9298,1.9298,1.9298,1.9298,1.9298,1.9298,1.9298,1.9298,1.9298,1.935,1.9402,1.9724,2.013,2.0936,2.1937,2.3078,2.3791,2.4756,2.5528,2.5708,2.5708,2.5708,2.5708,2.5708,2.5708,2.5708,2.5708,0.1592,0.1592,0.1592,0.1819,0.0,0.2346,0.2624,0.3004,0.313,0.3657,0.441,0.4684,0.5236,0.6012,0.6284,0.6412,0.6412,0.6808,0.6986,0.6983,0.6983,0.7552,0.8595,0.8587,0.9764,1.1926,1.2315,1.3119,1.4274,1.4322,1.4322,1.4322,1.4322,1.4322,1.4322,1.4322,1.4165,1.3906,1.4022,1.411,1.4086,1.4203,1.4124,1.3903,1.4048,0.0,0.0,0.0,0.0,0.0,0.0,0.0,0.0,1.4171,0.0,1.3529,1.3511,1.327,1.2756,1.2708,1.295,1.3463,1.3612,1.3903,1.446,1.4739,1.5014,1.5262,1.5787,1.6147,1.6277,1.6527,1.676,1.6933,1.6953,1.6999,1.7128,1.7294,1.7388,1.7453,1.7862,1.8246,1.837,1.8829,1.913,1.9279,1.9298,1.9298,1.9298,1.9298,1.9298,1.9298,1.9298,1.9298,1.9298,1.9298,1.9298,1.9298,1.9298,1.975,2.0706,2.1336,2.2165,2.3676,2.4559,2.5094,2.5528,2.5708,2.5708,2.5708,2.5708,2.5708,2.5708,2.5708,2.5708,0.1592,0.1592,0.1642,0.1969,0.2422,0.2447,0.275,0.3205,0.3205,0.0,0.0,0.4782,0.5384,0.6387,0.6412,0.6412,0.6437,0.7083,0.7481,0.7605,0.7705,0.8471,0.9752,0.9329,1.028,1.2465,1.2611,1.3216,1.4274,1.4322,1.4322,1.4322,1.4322,1.4322,1.4322,1.4322,1.4322,1.4322,1.4322,1.4322,1.4322,1.4322,1.4195,1.3961,1.4183,1.4195,1.399,1.4177,1.4322,1.4292,1.4087,1.4069,1.4274,1.4087,1.3661,1.3073,1.3806,1.3902,1.3071,1.3781,1.4322,1.437,1.463,1.4666,1.4461,1.4839,1.5245,1.5548,1.6021,1.6346,1.6447,1.6689,1.6961,1.7253,1.728,1.7347,1.7568,1.7615,1.7595,1.7668,1.8029,1.8318,1.8344,1.8848,1.9227,1.9227,1.9253,1.9298,1.9298,1.9298,1.9298,1.9298,1.9298,1.9298,1.9298,1.9298,1.9298,1.9298,1.9298,2.0009,2.1616,2.2215,2.3069,2.479,2.5396,2.5455,2.5635,2.5708,2.5708,2.5708,2.5708,2.5708,2.5708,2.5708,2.5708,0.1592,0.1617,0.1844,0.2121,0.2422,0.2649,0.2927,0.3205,0.3205,0.3806,0.4784,0.4782,0.5386,0.6412,0.6412,0.6412,0.6412,0.6509,0.6933,0.7605,0.8071,0.9106,1.0632,1.1409,1.2296,1.3311,1.3787,1.4124,1.4298,1.4322,1.4322,1.4322,1.4322,1.4322,1.4322,1.4322,1.4322,1.4322,1.4322,1.4322,1.4322,1.4322,1.4286,1.425,1.428,1.4286,1.425,1.4304,1.4322,1.4298,1.4262,1.4262,1.4292,1.4262,1.4184,1.4076,1.422,1.4226,1.4076,1.4202,1.4401,1.4642,1.4902,1.4549,1.3463,1.4402,1.5324,1.5783,1.6126,1.6523,1.6998,1.7295,1.7468,1.7521,1.7522,1.7568,1.7608,1.7615,1.7615,1.7608,1.7852,1.8069,1.8122,1.86,1.8947,1.9,1.9175,1.9298,1.9298,1.9298,1.9298,1.9298,1.9298,1.9298,1.9298,1.9298,1.9298,1.9298,1.9357,1.9828,2.1166,2.1506,2.2266,2.4023,2.4559,2.4805,2.5504,2.5708,2.5708,2.5708,2.5708,2.5708,2.5708,2.5708,2.5708,0.1693,0.1819,0.1946,0.2248,0.2624,0.2901,0.343,0.3982,0.3432,0.3783,0.4759,0.4782,0.5384,0.6362,0.6412,0.6637,0.7058,0.7506,0.8127,0.8924,0.9452,1.0489,1.1819,1.2174,1.2853,1.3895,1.4178,1.4322,1.4322,1.4322,1.4322,1.4322,1.4322,1.4322,1.4322,1.4322,1.4322,1.4322,1.4322,1.4322,1.4322,1.4322,1.4322,1.4322,1.4322,1.4322,1.4322,1.4322,1.4322,1.4322,1.4322,1.4322,1.4322,1.4322,1.4322,1.4322,1.4322,1.4364,1.4515,1.4636,1.4768,1.4926,1.5173,1.5059,1.4463,1.5092,1.5581,1.5709,1.6341,1.682,1.6938,1.7318,1.7615,1.7615,1.7615,1.7615,1.7615,1.7615,1.7615,1.7641,1.7832,1.8016,1.8016,1.8358,1.8705,1.8869,1.9123,1.9279,1.9298,1.9298,1.9298,1.9298,1.9298,1.9298,1.9298,1.9298,1.9298,1.9298,1.9802,2.0552,2.1582,2.2165,2.3219,2.4584,2.4971,2.5143,2.5659,2.5708,2.5708,2.5708,2.5708,2.5708,2.5708,2.5708,2.5708,0.202,0.2022,0.2649,0.3176,0.3602,0.358,0.4106,0.486,0.4033,0.4257,0.5158,0.5135,0.5684,0.6634,0.6833,0.7282,0.7904,0.8528,0.9291,1.0183,1.0734,1.1668,1.2856,1.2791,1.3318,1.4226,1.4322,1.4322,1.4322,1.4322,1.4322,1.4322,1.4322,1.4322,1.4322,1.4322,1.4322,1.4322,1.4322,1.4322,1.4322,1.4322,1.4322,1.4322,1.4322,1.4322,1.4322,1.4322,1.4322,1.4322,1.4322,1.4322,1.4322,1.4322,1.4322,1.4383,1.4395,1.4515,1.4787,1.5052,1.5197,1.5203,1.5439,1.5584,1.561,1.5903,1.6008,1.5896,1.6556,1.7021,1.7015,1.7312,1.7615,1.7615,1.7615,1.7615,1.7615,1.7615,1.7615,1.7635,1.7773,1.7911,1.7957,1.8141,1.8463,1.8843,1.913,1.9279,1.9298,1.9298,1.9298,1.9298,1.9298,1.9298,1.9298,1.9583,1.968,1.968,2.056,2.1608,2.2634,2.3592,2.4427,2.5323,2.5635,2.5635,2.5684,2.5708,2.5708,2.5708,2.5708,2.5708,2.5708,2.5708,2.5708,0.2898,0.2448,0.458,0.5804,0.5874,0.5058,0.5008,0.5511,0.5156,0.5629,0.6553,0.6104,0.6503,0.7503,0.823,0.8577,0.8701,0.8775,0.9509,1.071,1.1272,1.2204,1.3389,1.3865,1.4196,1.4322,1.4322,1.4322,1.4322,1.4322,1.4322,1.4322,1.4322,1.4322,1.4322,1.4322,1.4322,1.4322,1.4322,1.4322,1.4322,1.4322,1.4322,1.4322,1.4322,1.4322,1.4322,1.4322,1.4322,1.4322,1.4322,1.4304,1.4304,1.4304,1.4413,1.463,1.4654,1.4768,1.5052,1.5312,1.5463,1.5481,1.5698,1.5864,1.587,1.6321,1.6612,1.6612,1.6678,1.6995,1.7424,1.7556,1.7615,1.7615,1.7615,1.7615,1.7615,1.7615,1.7615,1.7615,1.7641,1.7661,1.7694,1.7905,1.8279,1.8817,1.9123,1.9298,1.9298,1.9298,1.9298,1.9298,1.9298,1.9324,1.9454,2.0189,2.0662,2.0834,2.1659,2.2659,2.3534,2.4014,2.4452,2.543,2.5708,2.5708,2.5708,2.5708,2.5708,2.5708,2.5708,2.5708,2.5708,2.5708,2.5708,0.4624,0.4477,0.5529,0.6151,0.6323,0.6099,0.6473,0.7173,0.6623,0.7148,0.8315,0.8064,0.8064,0.835,0.8676,0.9048,0.9496,0.9496,1.0232,1.1477,1.2068,1.2729,1.3491,1.404,1.4322,1.4322,1.4322,1.4322,1.4322,1.4322,1.4322,1.4322,1.4322,1.4322,1.4322,1.4322,1.4322,1.4322,1.4322,1.4322,1.4322,1.4322,1.4322,1.4322,1.4322,1.4322,1.4322,1.4322,1.4322,1.4322,1.4322,1.4377,1.4539,1.4521,1.4666,1.4907,1.5101,1.5228,1.533,1.5584,1.5728,1.5728,1.5831,1.5885,1.5912,1.6238,1.653,1.6736,1.7028,1.7292,1.7378,1.751,1.7615,1.7615,1.7615,1.7615,1.7615,1.7615,1.7615,1.7615,1.7615,1.7615,1.7661,1.7977,1.841,1.8843,1.913,1.9272,1.9298,1.9298,1.9298,1.9298,1.9298,1.9602,2.013,2.1166,2.1709,2.2013,2.2743,2.3716,2.4023,2.4741,2.525,2.5659,2.5684,2.5708,2.5708,2.5708,2.5708,2.5708,2.5708,2.5708,2.5708,2.5708,2.5708,0.6074,0.6054,0.6379,0.6874,0.7369,0.7263,0.7813,0.8587,0.8039,0.8488,0.9661,0.9727,0.9653,0.9464,0.9468,0.9793,1.029,1.0339,1.09,1.1951,1.2419,1.2905,1.3491,1.3895,1.4154,1.4298,1.4322,1.4322,1.4322,1.4322,1.4322,1.4322,1.4322,1.4322,1.4322,1.4322,1.4322,1.4322,1.4322,1.4322,1.4322,1.4322,1.4322,1.4322,1.4322,1.4322,1.4322,1.4322,1.4334,1.4413,1.4407,1.4539,1.4774,1.4804,1.4944,1.5203,1.5457,1.5608,1.5608,1.5783,1.5885,1.5885,1.5885,1.5945,1.6025,1.6264,1.653,1.6849,1.7292,1.751,1.7384,1.7483,1.7615,1.7615,1.7615,1.7615,1.7615,1.7615,1.7615,1.7615,1.7615,1.7641,1.774,1.8167,1.8646,1.8869,1.9123,1.9298,1.9298,1.9298,1.9376,1.9706,1.9983,2.0362,2.0911,2.1709,2.2442,2.3144,2.3816,2.4535,2.4559,2.5308,2.5684,2.5684,2.5684,2.5708,2.5708,2.5708,2.5708,2.5708,2.5708,2.5708,2.5708,2.5708,2.5708,0.6921,0.6304,0.7397,0.8598,0.9723,0.8764,0.8814,0.953,0.9226,0.9456,1.0088,1.0728,1.1071,1.0998,1.0924,1.1071,1.1125,1.1096,1.1419,1.2005,1.2073,1.2565,1.3448,1.3515,1.3799,1.4274,1.4322,1.4322,1.4322,1.4322,1.4322,1.4322,1.4322,1.4322,1.4322,1.4322,1.4322,1.4322,1.4322,1.4304,1.431,1.431,1.4322,1.437,1.4304,1.4304,1.4316,1.4328,1.4425,1.4666,1.4672,1.4792,1.5033,1.5101,1.5221,1.5469,1.5722,1.5861,1.5855,1.5873,1.5912,1.5918,1.5939,1.6025,1.6264,1.653,1.6816,1.7146,1.7404,1.7582,1.7562,1.7589,1.7615,1.7615,1.7615,1.7615,1.7615,1.7615,1.7615,1.7615,1.7608,1.7747,1.7957,1.8496,1.881,1.8974,1.9149,1.9402,1.9498,1.9428,1.9905,2.0731,2.1464,2.2013,2.1311,2.2291,2.3219,2.38,2.4716,2.5513,2.562,2.5693,2.5684,2.5708,2.5708,2.5708,2.5708,2.5708,2.5708,2.5708,2.5708,2.5708,2.5708,2.5708,2.5708,0.8673,0.835,0.9023,0.9571,0.9969,0.9936,1.0105,1.0355,1.0449,1.0576,1.0777,1.1076,1.1194,1.1194,1.1194,1.1194,1.1194,1.1194,1.1663,1.2424,1.2516,1.305,1.3943,1.4016,1.4106,1.4274,1.4322,1.4322,1.4322,1.4322,1.4322,1.4322,1.4322,1.4322,1.4322,1.4322,1.4322,1.4328,1.4322,1.4383,1.4552,1.4545,1.4642,1.4762,1.4473,1.4383,1.4539,1.4564,1.469,1.4931,1.4968,1.5083,1.5336,1.5543,1.5644,1.5741,1.5843,1.5885,1.5885,1.5885,1.5971,1.6131,1.6158,1.6271,1.6524,1.6822,1.706,1.7226,1.7457,1.7582,1.7615,1.7615,1.7615,1.7615,1.7615,1.7615,1.7615,1.7615,1.7615,1.7641,1.774,1.7964,1.8298,1.862,1.8947,1.9194,1.9828,2.0259,2.0457,2.0859,2.1413,2.1811,2.2232,2.2609,2.3085,2.3883,2.475,2.4981,2.5489,2.5586,2.5684,2.5684,2.5708,2.5708,2.5708,2.5708,2.5708,2.5708,2.5708,2.5708,2.5708,2.5708,2.5708,2.5708,2.5708,0.9653,0.9752,0.992,1.0122,1.0294,1.0659,1.085,1.0953,1.112,1.1194,1.1194,1.1194,1.1194,1.1194,1.1194,1.1194,1.1194,1.1218,1.1688,1.2497,1.2546,1.3069,1.3919,1.4034,1.4184,1.4467,1.4838,1.5082,1.5349,1.5373,1.5349,1.5404,1.5373,1.5227,1.5033,1.499,1.4869,1.4631,1.4539,1.466,1.4823,1.4847,1.4895,1.5028,1.4751,1.4642,1.4835,1.4841,1.4943,1.5185,1.5234,1.5354,1.5608,1.5789,1.5885,1.5885,1.5885,1.5885,1.5912,1.5971,1.6105,1.6297,1.6397,1.6557,1.6849,1.7093,1.7226,1.7358,1.7483,1.7615,1.7615,1.7615,1.7615,1.7615,1.7615,1.7615,1.7615,1.7615,1.7661,1.7773,1.7983,1.8377,1.8964,1.9361,1.9828,2.0259,2.103,2.1387,2.1557,2.1988,2.2685,2.2944,2.3035,2.3601,2.4131,2.4922,2.525,2.5489,2.5562,2.5659,2.5708,2.5708,2.5708,2.5708,2.5708,2.5708,2.5708,2.5708,2.5708,2.5708,2.5708,2.5708,2.5708,2.5708,2.5708,0.9793,1.0028,1.0003,1.0336,1.0735,1.0811,1.0949,1.1149,1.1194,1.1194,1.1194,1.1194,1.1194,1.1198,1.1222,1.1237,1.1438,1.1491,1.1737,1.2187,1.225,1.2826,1.382,1.4032,1.4381,1.4986,1.5875,1.6728,1.7277,1.7263,1.7295,1.7442,1.7196,1.6729,1.6323,1.6089,1.5808,1.5217,1.4997,1.5071,1.5113,1.5113,1.5137,1.5161,1.5119,1.5119,1.5131,1.5119,1.5234,1.5463,1.5499,1.5626,1.5819,1.5912,1.5885,1.5885,1.5885,1.5912,1.5945,1.6131,1.6271,1.643,1.6577,1.6849,1.712,1.7226,1.7331,1.7503,1.7582,1.7615,1.7615,1.7615,1.7615,1.7615,1.7615,1.7615,1.7615,1.7615,1.7747,1.8036,1.8396,1.9034,2.0115,2.0706,2.1158,2.1861,2.2366,2.2517,2.2568,2.2819,2.3144,2.38,2.4122,2.4476,2.5118,2.5684,2.5684,2.5684,2.5659,2.5708,2.5708,2.5708,2.5708,2.5708,2.5708,2.5708,2.5708,2.5708,2.5708,2.5708,2.5708,2.5708,2.5708,2.5708,2.5708,1.0455,1.0689,1.0743,1.084,1.1022,1.1063,1.112,1.1194,1.1194,1.1194,1.1194,1.1194,1.1194,1.1236,1.134,1.1949,1.2807,1.2975,1.2996,1.2973,1.3404,1.4303,1.5369,1.6019,1.646,1.6702,1.7038,1.7342,1.7598,1.7672,1.7609,1.7509,1.7107,1.6668,1.6476,1.5828,1.5303,1.5164,1.5113,1.5191,1.5354,1.5378,1.5457,1.5626,1.5644,1.5644,1.5632,1.5469,1.5505,1.5773,1.5791,1.5833,1.59,1.5885,1.5885,1.5885,1.5885,1.5998,1.6164,1.6277,1.651,1.6828,1.6987,1.7166,1.7404,1.7457,1.751,1.7582,1.7615,1.7615,1.7615,1.7615,1.7615,1.7615,1.7615,1.7615,1.7615,1.7635,1.8094,1.8923,1.9332,2.0099,2.1226,2.1836,2.2139,2.2584,2.316,2.3592,2.3667,2.414,2.4726,2.5177,2.525,2.5109,2.547,2.5708,2.5708,2.5708,2.5708,2.5708,2.5708,2.5708,2.5708,2.5708,2.5708,2.5708,2.5708,2.5708,2.5708,2.5708,2.5708,2.5708,2.5708,2.5708,2.5708,1.0811,1.1131,1.1194,1.1276,1.1351,1.1327,1.1316,1.1316,1.1312,1.1316,1.1331,1.1401,1.1695,1.1999,1.2173,1.304,1.4288,1.4476,1.4593,1.4705,1.5034,1.5887,1.6825,1.7435,1.7953,1.8221,1.8333,1.8535,1.8819,1.8844,1.8844,1.8743,1.8308,1.7943,1.7638,1.7104,1.6695,1.6369,1.6067,1.5968,1.602,1.5795,1.5722,1.5888,1.5885,1.5885,1.5879,1.5755,1.5716,1.5855,1.5885,1.5885,1.5885,1.5885,1.5945,1.6025,1.6078,1.6185,1.6424,1.659,1.6775,1.7146,1.7279,1.7404,1.7562,1.7615,1.7615,1.7615,1.7615,1.7615,1.7615,1.7615,1.7615,1.7615,1.7615,1.7615,1.7661,1.797,1.8565,1.9461,2.0099,2.1116,2.2165,2.2777,2.3136,2.3502,2.418,2.4682,2.4815,2.5226,2.5538,2.5693,2.5586,2.5552,2.5625,2.5708,2.5708,2.5708,2.5708,2.5708,2.5708,2.5708,2.5708,2.5708,2.5708,2.5708,2.5708,2.5708,2.5708,2.5708,2.5708,2.5708,2.5708,2.5708,2.5708,1.0997,1.1414,1.1452,1.1603,1.1756,1.1593,1.1509,1.1509,1.1513,1.1509,1.1542,1.1664,1.2387,1.3273,1.3392,1.427,1.5601,1.5891,1.6527,1.7115,1.7303,1.7521,1.8042,1.8344,1.8814,1.9337,1.9606,2.0084,2.0484,2.0542,2.0865,2.0599,2.0346,2.0321,1.942,1.9546,1.8821,1.8038,1.7522,1.72,1.72,1.6552,1.614,1.6178,1.6125,1.6072,1.6092,1.5968,1.5861,1.5885,1.5885,1.5885,1.5885,1.5912,1.6051,1.6244,1.6297,1.6477,1.671,1.6961,1.7146,1.7252,1.7457,1.7615,1.7615,1.7615,1.7615,1.7615,1.7615,1.7615,1.7615,1.7615,1.7641,1.774,1.7871,1.7871,1.7812,1.8662,1.9565,2.0089,2.0859,2.192,2.3245,2.3678,2.4233,2.4883,2.5323,2.543,2.5504,2.5586,2.5659,2.5708,2.5708,2.5708,2.5708,2.5708,2.5708,2.5708,2.5708,2.5708,2.5708,2.5708,2.5708,2.5708,2.5708,2.5708,2.5708,2.5708,2.5708,2.5708,2.5708,2.5708,2.5708,2.5708,2.5708,1.1819,1.2127,1.1982,1.1974,1.1999,1.1806,1.1737,1.1737,1.1737,1.1814,1.1782,1.1768,1.2704,1.3766,1.4117,1.5388,1.725,1.7856,1.8678,1.9757,1.9872,1.9862,1.9997,2.0066,2.0197,2.0432,2.0477,2.0694,2.0899,2.0899,2.0899,2.0873,2.0377,1.999,1.9654,1.9179,1.8684,1.8448,1.8232,1.8075,1.8048,1.7845,1.7759,1.7687,1.718,1.6915,1.6776,1.6232,1.5912,1.5885,1.5885,1.5885,1.5939,1.6105,1.6244,1.635,1.6504,1.6743,1.7014,1.7153,1.7279,1.7457,1.7536,1.7615,1.7615,1.7615,1.7615,1.7615,1.7615,1.7641,1.7615,1.7687,1.7996,1.8643,1.8845,1.8871,1.8968,1.9764,2.0826,2.1861,2.2257,2.3178,2.4174,2.4726,2.4966,2.5406,2.5635,2.5708,2.5708,2.5708,2.5708,2.5708,2.5708,2.5708,2.5708,2.5708,2.5708,2.5708,2.5708,2.5708,2.5708,2.5708,2.5708,2.5708,2.5708,2.5708,2.5708,2.5708,2.5708,2.5708,2.5708,2.5708,2.5708,2.5708,2.5708,1.2169,1.2454,1.282,1.2695,1.2318,1.2529,1.2389,1.2106,1.2462,1.2639,1.2784,1.344,1.4406,1.559,1.5932,1.7204,1.9166,1.9457,2.0012,2.0704,2.0798,2.0816,2.0858,2.0891,2.0899,2.0899,2.0899,2.0899,2.0899,2.0899,2.0899,2.0848,2.0429,2.0223,2.0223,1.975,1.9439,1.9413,1.9153,1.8945,1.8945,1.8579,1.8396,1.8396,1.812,1.8133,1.8204,1.7476,1.6723,1.6258,1.6084,1.6131,1.6232,1.6365,1.653,1.6669,1.6828,1.7067,1.7272,1.7358,1.7457,1.7556,1.7615,1.7615,1.7615,1.7615,1.7615,1.7615,1.7615,1.7845,1.8284,1.867,1.9261,1.9849,2.0313,2.0364,2.0004,2.0903,2.1861,2.2693,2.3343,2.3908,2.5039,2.5211,2.5357,2.5479,2.562,2.5659,2.5708,2.5708,2.5708,2.5708,2.5708,2.5708,2.5708,2.5708,2.5708,2.5708,2.5708,2.5708,2.5708,2.5708,2.5708,2.5708,2.5708,2.5708,2.5708,2.5708,2.5708,2.5708,2.5708,2.5708,2.5708,2.5708,2.5708,1.2545,1.2839,1.3921,1.3727,1.3043,1.3636,1.3546,1.2901,1.3672,1.4093,1.4363,1.5655,1.6609,1.8087,1.7913,1.9109,2.0439,2.0395,2.0575,2.0848,2.0899,2.0899,2.0899,2.0899,2.0899,2.0899,2.0899,2.0899,2.0899,2.0899,2.0899,2.0865,2.084,2.0865,2.0737,2.0737,2.0873,2.0609,2.0094,1.9835,1.9724,1.9283,1.9075,1.9164,1.9183,1.9324,1.935,1.8831,1.7956,1.6836,1.6477,1.6424,1.663,1.6677,1.6849,1.7067,1.7179,1.7358,1.7536,1.7562,1.7582,1.7615,1.7615,1.7615,1.7615,1.7615,1.7615,1.7615,1.7615,1.8075,1.902,2.0158,2.0885,2.1191,2.1962,2.2114,2.1718,2.2106,2.2769,2.3053,2.3967,2.4504,2.4883,2.5113,2.5308,2.5538,2.5645,2.5684,2.5708,2.5708,2.5708,2.5708,2.5708,2.5708,2.5708,2.5708,2.5708,2.5708,2.5708,2.5708,2.5708,2.5708,2.5708,2.5708,2.5708,2.5708,2.5708,2.5708,2.5708,2.5708,2.5708,2.5708,2.5708,2.5708,2.5708,1.5081,1.5167,1.5435,1.5381,1.5209,1.5343,1.5293,1.5081,1.5514,1.5734,1.5897,1.6435,1.7456,1.8641,1.8823,1.9487,2.0694,2.0796,2.0873,2.0873,2.0899,2.0899,2.0899,2.0899,2.0899,2.0899,2.0899,2.0899,2.0899,2.0899,2.0899,2.0899,2.0899,2.0899,2.0899,2.0899,2.0899,2.0873,2.0686,2.0617,2.0609,2.0454,2.0472,2.079,2.0526,1.9927,1.9454,1.9143,1.9195,1.8928,1.7667,1.6763,1.6962,1.6882,1.7021,1.7272,1.7437,1.7536,1.7608,1.7661,1.7641,1.7714,1.7845,1.7615,1.7615,1.7687,1.7661,1.7635,1.7641,1.8206,1.9435,2.1081,2.1962,2.2417,2.3079,2.3737,2.3728,2.3737,2.3836,2.4109,2.4322,2.4677,2.5137,2.5235,2.5416,2.5562,2.5635,2.5684,2.5708,2.5708,2.5708,2.5708,2.5708,2.5708,2.5708,2.5708,2.5708,2.5708,2.5708,2.5708,2.5708,2.5708,2.5708,2.5708,2.5708,2.5708,2.5708,2.5708,2.5708,2.5708,2.5708,2.5708,2.5708,2.5708,2.5708,1.5914,1.5968,1.6479,1.6399,1.6074,1.6578,1.6572,1.6327,1.6982,1.7298,1.7483,1.8073,1.8923,1.9572,1.9753,2.0251,2.0737,2.0899,2.0899,2.0899,2.0899,2.0899,2.0899,2.0899,2.0899,2.0899,2.0899,2.0899,2.0899,2.0899,2.0899,2.0899,2.0925,2.0899,2.0899,2.095,2.0899,2.0899,2.0925,2.1002,2.1216,2.13,2.17,2.2249,2.2064,2.1641,2.1667,2.1022,2.1048,2.0759,1.9413,1.8361,1.8473,1.8159,1.7989,1.8075,1.7687,1.7635,1.7635,1.8042,1.8401,1.8382,1.8793,1.9079,1.8949,1.8715,1.8689,1.8871,1.8871,1.8968,2.0595,2.2156,2.3188,2.3504,2.396,2.4415,2.4578,2.448,2.4489,2.476,2.4873,2.5103,2.5333,2.543,2.5489,2.5635,2.5659,2.5708,2.5708,2.5708,2.5708,2.5708,2.5708,2.5708,2.5708,2.5708,2.5708,2.5708,2.5708,2.5708,2.5708,2.5708,2.5708,2.5708,2.5708,2.5708,2.5708,2.5708,2.5708,2.5708,2.5708,2.5708,2.5708,2.5708,2.5708,1.6499,1.6625,1.7569,1.7404,1.6817,1.7792,1.7811,1.7246,1.8178,1.8734,1.8923,2.0068,2.03,2.0565,2.0686,2.0865,2.0899,2.0899,2.0899,2.0899,2.0899,2.0899,2.0899,2.0899,2.0899,2.0899,2.0899,2.0899,2.0899,2.0925,2.0968,2.1019,2.1053,2.1198,2.1173,2.1173,2.1275,2.1326,2.1351,2.1453,2.1751,2.1827,2.2274,2.2744,2.3045,2.3154,2.3204,2.2853,2.2593,2.2677,2.16,2.1244,2.0997,2.0099,1.9428,1.9409,1.8767,1.8539,1.8643,1.9027,1.9487,1.9513,2.021,2.0757,2.0552,2.003,1.9952,2.0184,2.0287,2.0511,2.2341,2.3413,2.4143,2.444,2.4529,2.4686,2.4833,2.475,2.4907,2.5137,2.5186,2.5308,2.5504,2.5635,2.5684,2.5708,2.5708,2.5708,2.5708,2.5708,2.5708,2.5708,2.5708,2.5708,2.5708,2.5708,2.5708,2.5708,2.5708,2.5708,2.5708,2.5708,2.5708,2.5708,2.5708,2.5708,2.5708,2.5708,2.5708,2.5708,2.5708,2.5708,2.5708,2.5708,2.5708,1.919,1.9424,1.9613,1.9554,1.9424,1.9657,1.9546,1.958,1.982,2.0145,2.0205,2.0609,2.0822,2.0848,2.0848,2.0899,2.0899,2.0899,2.0899,2.0899,2.0899,2.0899,2.0994,2.0994,2.0968,2.0899,2.0968,2.1019,2.0968,2.0925,2.1198,2.1471,2.1573,2.1725,2.203,2.2198,2.208,2.203,2.2055,2.2182,2.2333,2.2451,2.2526,2.2929,2.3229,2.3463,2.3488,2.3388,2.3413,2.3845,2.3678,2.3529,2.302,2.1422,2.0605,2.0459,2.0236,1.9934,2.0055,2.039,2.0603,2.0654,2.0987,2.103,2.0987,2.0783,2.0834,2.1064,2.1624,2.2207,2.2768,2.3802,2.4464,2.4735,2.4818,2.4907,2.5137,2.5186,2.5162,2.5333,2.5367,2.5416,2.5586,2.5708,2.5708,2.5708,2.5708,2.5708,2.5708,2.5708,2.5708,2.5708,2.5708,2.5708,2.5708,2.5708,2.5708,2.5708,2.5708,2.5708,2.5708,2.5708,2.5708,2.5708,2.5708,2.5708,2.5708,2.5708,2.5708,2.5708,2.5708,2.5708,2.5708,2.5708,2.5708,1.9983,2.0112,2.0112,2.0112,2.013,2.0241,2.03,2.0351,2.0591,2.0694,2.0745,2.0848,2.0899,2.0899,2.0899,2.0899,2.0899,2.0899,2.0899,2.0899,2.0899,2.107,2.1275,2.1326,2.1496,2.1649,2.1725,2.1522,2.1351,2.1351,2.1623,2.2004,2.2131,2.2274,2.2451,2.2451,2.2526,2.2526,2.2552,2.2677,2.2937,2.3154,2.3338,2.3438,2.3562,2.3737,2.3771,2.3762,2.3895,2.4127,2.4177,2.4211,2.3811,2.3195,2.2123,2.1751,2.1268,2.0936,2.1089,2.1319,2.1726,2.1802,2.219,2.2593,2.2409,2.2181,2.1785,2.1962,2.2703,2.3438,2.3628,2.4084,2.4464,2.4818,2.4917,2.5113,2.5382,2.5465,2.5489,2.5489,2.5513,2.5562,2.5635,2.5708,2.5708,2.5708,2.5708,2.5708,2.5708,2.5708,2.5708,2.5708,2.5708,2.5708,2.5708,2.5708,2.5708,2.5708,2.5708,2.5708,2.5708,2.5708,2.5708,2.5708,2.5708,2.5708,2.5708,2.5708,2.5708,2.5708,2.5708,2.5708,2.5708,2.5708,2.5659,2.0207,2.0241,2.0266,2.0259,2.0292,2.0488,2.0565,2.0617,2.0796,2.0899,2.0899,2.0899,2.0899,2.0899,2.0899,2.0899,2.0899,2.0899,2.0968,2.1121,2.1121,2.1351,2.1751,2.1903,2.2021,2.2249,2.2358,2.2274,2.1954,2.1878,2.2173,2.2526,2.2652,2.2753,2.2878,2.3038,2.2828,2.2828,2.2862,2.3088,2.3513,2.3929,2.4211,2.4211,2.4211,2.4152,2.4127,2.4127,2.4127,2.4186,2.4211,2.4211,2.4211,2.4211,2.3771,2.2878,2.2013,2.165,2.1827,2.2291,2.2853,2.2878,2.3662,2.4028,2.3954,2.3254,2.2853,2.3004,2.3513,2.4168,2.4233,2.4341,2.4612,2.4966,2.5137,2.5211,2.5504,2.5659,2.5635,2.5659,2.5708,2.5708,2.5708,2.5708,2.5708,2.5708,2.5708,2.5708,2.5708,2.5708,2.5708,2.5708,2.5708,2.5708,2.5708,2.5708,2.5708,2.5708,2.5708,2.5708,2.5708,2.5708,2.5708,2.5708,2.5708,2.5708,2.5708,2.5698,2.5708,2.5708,2.5708,2.5708,2.5708,2.5562,2.5449,2.0591,2.0789,2.0796,2.0814,2.0796,2.0822,2.0848,2.0848,2.0899,2.0899,2.0899,2.0899,2.0899,2.0899,2.0899,2.0899,2.095,2.0994,2.1216,2.1547,2.1623,2.1903,2.2358,2.24,2.2501,2.2728,2.2652,2.2476,2.2476,2.2451,2.2677,2.3113,2.3254,2.3404,2.3721,2.3721,2.4003,2.3954,2.3954,2.3969,2.4044,2.4161,2.4186,2.4211,2.4211,2.4211,2.4211,2.4211,2.4211,2.4211,2.4211,2.4211,2.4211,2.4211,2.4177,2.4028,2.3879,2.3795,2.3612,2.3687,2.3795,2.3771,2.4127,2.4202,2.4152,2.4093,2.3845,2.3994,2.4202,2.4375,2.4661,2.4769,2.5079,2.5284,2.544,2.5489,2.5693,2.5708,2.5708,2.5708,2.5708,2.5708,2.5708,2.5708,2.5708,2.5708,2.5708,2.5708,2.5708,2.5708,2.5708,2.5708,2.5708,2.5708,2.5708,2.5708,2.5708,2.5708,2.5708,2.5708,2.5708,2.5708,2.5708,2.5708,2.5679,2.563,2.5571,2.5591,2.5669,2.564,2.5542,2.5601,2.5708,2.5508,2.518,2.0796,2.0899,2.0899,2.0899,2.0899,2.0899,2.0899,2.0899,2.0899,2.0899,2.0899,2.0899,2.0899,2.0942,2.0899,2.107,2.13,2.1369,2.1649,2.2097,2.2224,2.2467,2.2853,2.2979,2.3063,2.3338,2.3463,2.3538,2.3388,2.3163,2.3238,2.3721,2.3786,2.3886,2.4177,2.4211,2.4186,2.4161,2.4186,2.4186,2.4211,2.4211,2.4211,2.4211,2.4211,2.4211,2.4211,2.4211,2.4211,2.4211,2.4211,2.4211,2.4211,2.4211,2.4202,2.4186,2.4186,2.4127,2.4152,2.4211,2.4211,2.4251,2.4301,2.439,2.439,2.4365,2.4365,2.4341,2.4514,2.4686,2.4858,2.4892,2.5113,2.5333,2.5562,2.5635,2.5669,2.5684,2.5708,2.5708,2.5708,2.5708,2.5708,2.5708,2.5708,2.5708,2.5708,2.5708,2.5708,2.5708,2.5708,2.5708,2.5708,2.5708,2.5708,2.5708,2.5708,2.5708,2.5708,2.5708,2.5708,2.5708,2.562,2.5523,2.5439,2.541,2.541,2.5445,2.5503,2.5425,2.5361,2.5312,2.522,2.4957,2.4648,2.0899,2.0899,2.0899,2.0899,2.0899,2.0899,2.0899,2.0917,2.107,2.1045,2.1019,2.1173,2.1351,2.1377,2.1522,2.1776,2.1903,2.2097,2.2518,2.2845,2.307,2.337,2.3669,2.3777,2.3746,2.4236,2.4028,2.4053,2.3969,2.3811,2.3771,2.4211,2.4102,2.4177,2.4177,2.4211,2.4211,2.4211,2.4211,2.4211,2.4211,2.4211,2.4211,2.4211,2.4211,2.4211,2.4211,2.4211,2.4211,2.4211,2.4211,2.4211,2.4211,2.4276,2.4251,2.4251,2.4251,2.4291,2.4276,2.4251,2.4226,2.4291,2.4365,2.448,2.448,2.4529,2.4603,2.4612,2.4735,2.4883,2.4981,2.5015,2.5211,2.5357,2.5479,2.5552,2.5635,2.5684,2.5708,2.5708,2.5708,2.5708,2.5708,2.5708,2.5708,2.5708,2.5708,2.5708,2.5708,2.5708,2.5708,2.5708,2.5708,2.5708,2.5708,2.5708,2.5708,2.565,2.565,2.5571,2.5484,2.5425,2.5347,2.5273,2.5127,2.5019,2.4922,2.5137,2.5298,2.5088,2.4883,2.4756,2.4619,2.4385,2.4128,2.0899,2.0899,2.0899,2.0925,2.0942,2.0899,2.0917,2.1096,2.1479,2.142,2.1318,2.1869,2.2375,2.2518,2.282,2.287,2.2568,2.3253,2.384,2.4221,2.4427,2.4648,2.4781,2.4603,2.4301,2.4365,2.4538,2.4498,2.4301,2.4529,2.4291,2.4211,2.4301,2.4226,2.4211,2.4211,2.4146,2.4103,2.4085,2.4067,2.4058,2.4058,2.4091,2.4094,2.4156,2.4202,2.4192,2.4076,2.4079,2.407,2.4076,2.4101,2.4104,2.4235,2.4235,2.4162,2.4211,2.4299,2.4299,2.4291,2.4341,2.443,2.4504,2.4587,2.4661,2.4784,2.4833,2.4883,2.499,2.5113,2.5211,2.5284,2.5416,2.5489,2.5552,2.5611,2.5684,2.5684,2.5708,2.5708,2.5708,2.5708,2.5708,2.5708,2.5708,2.5708,2.5708,2.5708,2.5708,2.5708,2.5708,2.5708,2.5708,2.5708,2.5708,2.5659,2.5532,2.5445,2.5406,2.5283,2.516,2.5112,2.5029,2.4814,2.4648,2.4541,2.4443,2.4469,2.4489,2.4492,2.4404,2.4307,2.416,2.3942,2.3669,2.1104,2.1377,2.1402,2.1402,2.1402,2.1402,2.1573,2.1878,2.2106,2.2417,2.2652,2.3078,2.3493,2.3872,2.4094,2.4375,2.4448,2.4743,2.5232,2.5557,2.5785,2.5868,2.5853,2.5756,2.5635,2.5548,2.5572,2.562,2.5669,2.545,2.5586,2.5416,2.4726,2.4276,2.4211,2.4282,2.4107,2.3865,2.3767,2.3694,2.3404,2.3394,2.3394,2.3385,2.3394,2.3419,2.3376,2.3385,2.3505,2.3629,2.3671,2.3795,2.391,2.402,2.402,2.3958,2.403,2.4107,2.4263,2.4343,2.4554,2.4892,2.4858,2.4766,2.4869,2.5079,2.5128,2.5186,2.5294,2.5406,2.5479,2.5538,2.562,2.5659,2.5708,2.5708,2.5708,2.5708,2.5708,2.5708,2.5708,2.5708,2.5708,2.5708,2.5708,2.5708,2.5708,2.5708,2.5708,2.5679,2.5669,2.5601,2.5581,2.5542,2.5532,2.5435,2.5342,2.5244,2.5132,2.4941,2.476,2.4678,2.4557,2.4342,2.4157,2.4082,2.3955,2.3747,2.3789,2.4,2.3987,2.3887,2.3698,2.3564,2.3401,2.1971,2.2316,2.2526,2.2333,2.1971,2.1928,2.2291,2.2811,2.3045,2.3642,2.4507,2.4547,2.4783,2.5212,2.5504,2.5562,2.5872,2.6137,2.646,2.6675,2.6781,2.6815,2.6733,2.6552,2.6288,2.6504,2.648,2.6408,2.6312,2.6456,2.636,2.6022,2.5514,2.5094,2.4922,2.4593,2.4355,2.4093,2.3604,2.3422,2.3133,2.3004,2.2935,2.2991,2.3081,2.3137,2.3193,2.3268,2.3368,2.3476,2.3528,2.357,2.3659,2.3733,2.3757,2.3747,2.3761,2.3845,2.403,2.4236,2.448,2.4564,2.4846,2.4865,2.5087,2.5271,2.5406,2.543,2.5586,2.5708,2.5698,2.5659,2.5659,2.5708,2.5708,2.5708,2.5708,2.5708,2.5708,2.5708,2.5708,2.5708,2.5708,2.5708,2.5689,2.5689,2.5708,2.5708,2.5708,2.5659,2.5591,2.5503,2.5406,2.5357,2.5298,2.5088,2.4883,2.4853,2.4713,2.4479,2.4336,2.4268,2.4092,2.3806,2.3649,2.3613,2.3589,2.3514,2.3587,2.3678,2.3678,2.3678,2.3546,2.344,2.3425,2.3608,2.3748,2.4396,2.3838,2.2744,2.2535,2.3036,2.3865,2.4285,2.5153,2.6181,2.6244,2.6316,2.6566,2.6901,2.6924,2.6853,2.7258,2.7542,2.7565,2.76,2.76,2.74,2.7115,2.6982,2.659,2.6768,2.6911,2.672,2.6911,2.6791,2.6815,2.6686,2.6384,2.636,2.5659,2.5299,2.5101,2.4145,2.3871,2.3411,2.3214,2.3173,2.2842,2.2973,2.3038,2.3052,2.3177,2.3283,2.3408,2.3437,2.3506,2.3594,2.3746,2.3742,2.3642,2.3813,2.3902,2.3959,2.3984,2.4005,2.4116,2.4497,2.4708,2.4852,2.515,2.5518,2.5397,2.5601,2.5659,2.5689,2.5708,2.5708,2.5708,2.5708,2.5708,2.5708,2.5708,2.5708,2.5708,2.5708,2.5708,2.5708,2.5698,2.5669,2.5679,2.5698,2.5679,2.562,2.5532,2.5406,2.5181,2.5078,2.501,2.4873,2.4586,2.441,2.4414,2.4323,2.4114,2.3999,2.3998,2.3737,2.3342,2.3355,2.3501,2.3435,2.3371,2.3547,2.3724,2.3622,2.3561,2.3426,2.3385,2.345,2.4651,2.5061,2.5295,2.5305,2.5095,2.4752,2.4973,2.5518,2.5809,2.6364,2.7091,2.721,2.7565,2.794,2.8058,2.8092,2.8081,2.8128,2.8386,2.8362,2.8362,2.8409,2.8269,2.8094,2.7964,2.8011,2.8011,2.794,2.8081,2.7964,2.8011,2.8047,2.807,2.7683,2.6815,2.6137,2.601,2.5769,2.544,2.5089,2.3923,2.3858,2.3606,2.2785,2.2857,2.2956,2.2988,2.3197,2.331,2.3422,2.3454,2.3458,2.3515,2.3643,2.3489,2.3367,2.3428,2.3408,2.3408,2.3435,2.3696,2.399,2.4289,2.4462,2.4571,2.4662,2.4957,2.5215,2.5283,2.54,2.562,2.5679,2.5674,2.5708,2.5708,2.5708,2.5708,2.5708,2.5708,2.5708,2.5708,2.562,2.5591,2.5425,2.5376,2.5386,2.5376,2.5328,2.5293,2.5215,2.5121,2.4805,2.4596,2.456,2.4424,2.4196,2.414,2.4188,2.4038,2.3776,2.3731,2.3791,2.3733,2.3563,2.3489,2.3416,2.3547,2.3677,2.3742,2.3807,2.3776,2.3732,2.3677,2.3667,2.3689,2.5987,2.6378,2.6665,2.6962,2.7149,2.6364,2.6316,2.6853,2.7173,2.76,2.7953,2.8023,2.8245,2.8676,2.8803,2.8803,2.8803,2.8803,2.8803,2.8827,2.9012,2.9001,2.9024,2.9058,2.9047,2.9174,2.9117,2.9047,2.9209,2.9278,2.9255,2.9313,2.9554,2.9002,2.813,2.7701,2.7379,2.7131,2.6886,2.6129,2.5255,2.4824,2.4506,2.3819,2.3559,2.3602,2.3551,2.3541,2.3606,2.3724,2.381,2.3854,2.3962,2.3994,2.3854,2.3702,2.3244,2.3198,2.3149,2.3137,2.3427,2.377,2.4082,2.4189,2.4248,2.4381,2.458,2.4766,2.4848,2.5,2.521,2.5308,2.5328,2.5318,2.5308,2.5289,2.5269,2.524,2.5249,2.5298,2.5328,2.5308,2.5308,2.5171,2.5006,2.5025,2.5059,2.4971,2.4893,2.4857,2.4744,2.4431,2.4196,2.414,2.4048,2.3858,2.3851,2.3976,2.3863,2.3697,2.3697,2.3797,2.3804,2.3797,2.3689,2.3677,2.3894,2.4024,2.4045,2.4078,2.41,2.4035,2.3959,2.3916,2.3884,2.7613,2.7754,2.8466,2.871,2.8513,2.7244,2.7044,2.7694,2.842,2.8699,2.8757,2.8699,2.8757,2.878,2.8803,2.885,2.8919,2.8896,2.8966,2.9082,2.9393,2.9462,2.9531,2.9531,2.9669,2.9829,2.9806,2.9669,3.0102,2.9966,2.9988,3.017,3.017,3.0,2.9738,2.9452,2.904,2.8645,2.8232,2.7468,2.6694,2.6257,2.5775,2.5199,2.4967,2.5009,2.5062,2.5189,2.5337,2.5463,2.5568,2.5631,2.5694,2.5756,2.5242,2.4531,2.3604,2.3396,2.3101,2.3101,2.311,2.3396,2.3581,2.3711,2.3828,2.3971,2.417,2.4316,2.4404,2.4434,2.4498,2.4547,2.4609,2.4609,2.46,2.459,2.458,2.457,2.458,2.4609,2.4629,2.4648,2.4684,2.4606,2.4625,2.4508,2.4492,2.4365,2.4326,2.4414,2.4251,2.4019,2.3835,2.3762,2.3681,2.369,2.3823,2.4028,2.399,2.3872,2.3872,2.3905,2.4002,2.4024,2.3916,2.3937,2.4067,2.4175,2.4282,2.4325,2.4315,2.4293,2.4196,2.4067,2.4057,2.8466,2.8479,2.8699,2.8803,2.8734,2.8303,2.8269,2.8513,2.8734,2.8803,2.8803,2.8803,2.8827,2.8803,2.8803,2.9012,2.9186,2.9347,2.9577,2.9737,2.9875,2.9966,3.0011,3.0011,3.0125,3.0148,3.0125,3.0091,3.0193,3.0261,3.0487,3.0623,3.069,3.0881,3.1004,3.1015,3.0476,3.0034,2.9659,2.9026,2.8355,2.794,2.7233,2.6578,2.6078,2.6043,2.5976,2.5965,2.6007,2.5923,2.5861,2.5819,2.5777,2.5756,2.5411,2.4616,2.4155,2.3885,2.3266,2.3113,2.3222,2.3331,2.3435,2.3269,2.3325,2.356,2.3765,2.3845,2.3952,2.3981,2.4098,2.4167,2.4176,2.4167,2.4167,2.4167,2.4157,2.418,2.418,2.4157,2.4167,2.4157,2.4186,2.4254,2.4254,2.4082,2.3948,2.3841,2.3834,2.3942,2.3935,2.37,2.3715,2.3702,2.3751,2.3791,2.3913,2.4044,2.4045,2.411,2.4196,2.4261,2.4282,2.4261,2.4175,2.4131,2.4153,2.4282,2.44,2.4443,2.4433,2.4433,2.4411,2.4282,2.4218,2.8803,2.8803,2.8803,2.8803,2.8803,2.8803,2.8803,2.8803,2.8803,2.8803,2.8803,2.8803,2.8896,2.9071,2.9117,2.9324,2.976,2.9772,2.9909,3.0057,3.042,3.0442,3.0465,3.0487,3.0645,3.0645,3.0623,3.0645,3.0668,3.0802,3.1004,3.1172,3.1217,3.1395,3.1516,3.1506,3.1328,3.1071,3.0821,3.0497,3.0012,2.9494,2.8737,2.7843,2.7254,2.7041,2.6816,2.6805,2.6803,2.6844,2.6864,2.6876,2.6762,2.6609,2.6319,2.5631,2.5179,2.4861,2.4435,2.4317,2.421,2.4145,2.4102,2.4273,2.3884,2.3854,2.3634,2.3464,2.3535,2.3603,2.3747,2.3884,2.3874,2.3864,2.3864,2.3864,2.3854,2.3854,2.3845,2.3835,2.3825,2.3815,2.3845,2.3903,2.3877,2.3665,2.3614,2.3654,2.3636,2.3676,2.3698,2.3574,2.3658,2.3729,2.3819,2.3949,2.4088,2.4218,2.4282,2.4368,2.4507,2.4486,2.4411,2.4433,2.4464,2.44,2.4304,2.44,2.4486,2.4507,2.4507,2.4486,2.4475,2.4433,2.4411,2.8803,2.8803,2.8803,2.885,2.8873,2.8896,2.8919,2.8919,2.8989,2.8896,2.8919,2.8908,2.9209,2.9508,2.9554,2.9829,3.0125,3.025,3.0374,3.0329,3.0802,3.0959,3.0971,3.0994,3.1138,3.1316,3.1328,3.1128,3.1506,3.1528,3.1461,3.1705,3.1639,3.1661,3.1683,3.1705,3.1572,3.1528,3.1436,3.1224,3.0989,3.074,3.0456,2.9528,2.9128,2.8933,2.8594,2.8479,2.851,2.8471,2.8419,2.8299,2.8027,2.7693,2.7328,2.6867,2.6225,2.5767,2.5442,2.5316,2.5442,2.5526,2.5756,2.5484,2.4904,2.4424,2.4171,2.4083,2.4252,2.4241,2.4373,2.4435,2.4403,2.4403,2.4403,2.4194,2.3985,2.3808,2.3508,2.3531,2.3597,2.3555,2.3577,2.3659,2.3755,2.3403,2.34,2.3521,2.364,2.365,2.3717,2.3699,2.3764,2.3937,2.4088,2.4218,2.4282,2.439,2.4454,2.4454,2.4507,2.4507,2.4507,2.4507,2.4507,2.4507,2.4486,2.4529,2.4518,2.4507,2.4507,2.4507,2.4507,2.4518,2.4507,2.8803,2.8803,2.8803,2.8978,2.9324,2.9324,2.9531,2.984,2.9852,2.9646,2.9439,2.9692,2.9897,3.0,3.0034,3.0284,3.0645,3.0758,3.0982,3.115,3.1417,3.1395,3.1461,3.1417,3.1572,3.1617,3.1594,3.1506,3.1661,3.1705,3.1705,3.1705,3.1705,3.1705,3.1705,3.1705,3.1705,3.1705,3.1681,3.1657,3.1476,3.1081,3.066,3.0206,2.9938,2.9352,2.8979,2.8691,2.8595,2.849,2.849,2.8471,2.8451,2.8271,2.7846,2.7307,2.7031,2.6609,2.6246,2.611,2.6131,2.5997,2.5955,2.584,2.561,2.5295,2.5136,2.5115,2.5052,2.5009,2.4988,2.4988,2.4988,2.4988,2.4988,2.4595,2.422,2.382,2.3387,2.3418,2.3505,2.3505,2.3559,2.3537,2.3515,2.3559,2.3655,2.3764,2.3947,2.4034,2.4238,2.4207,2.4077,2.4185,2.439,2.4433,2.4497,2.4518,2.4561,2.4561,2.4507,2.4507,2.4507,2.4507,2.4507,2.4507,2.4518,2.454,2.454,2.4668,2.4722,2.4807,2.4647,2.4604,2.454,2.8803,2.885,2.9024,2.937,2.976,2.9806,2.9966,3.0193,3.042,3.0374,3.0125,3.0193,3.0306,3.0465,3.051,3.078,3.1172,3.1261,3.1373,3.1617,3.1705,3.1683,3.1705,3.1705,3.1683,3.1705,3.1705,3.1683,3.1705,3.1705,3.1705,3.1705,3.1705,3.1705,3.1705,3.1705,3.1705,3.1705,3.1705,3.1705,3.1705,3.1416,3.1069,3.0732,3.0182,2.9629,2.9148,2.8823,2.8595,2.851,2.851,2.851,2.851,2.8451,2.8219,2.7966,2.7733,2.7551,2.7133,2.6917,2.6905,2.6876,2.6958,2.7182,2.7223,2.6917,2.6205,2.6101,2.5568,2.5442,2.5442,2.5442,2.5463,2.5442,2.5463,2.5305,2.5189,2.5052,2.4946,2.5084,2.4978,2.4681,2.467,2.4542,2.4627,2.5147,2.5052,2.4616,2.4669,2.453,2.468,2.4797,2.47,2.4797,2.5094,2.4935,2.47,2.47,2.4722,2.4583,2.4507,2.4507,2.4507,2.4518,2.4518,2.4507,2.4518,2.4828,2.5041,2.5263,2.5221,2.5179,2.4946,2.4658,2.4511,2.8943,2.9024,2.9416,2.9875,3.0238,3.0272,3.0352,3.0487,3.0825,3.1016,3.0949,3.06,3.069,3.087,3.1016,3.1328,3.1528,3.155,3.1673,3.1695,3.1705,3.1705,3.1705,3.1705,3.1705,3.1705,3.1705,3.1705,3.1705,3.1705,3.1705,3.1705,3.1705,3.1705,3.1705,3.1705,3.1705,3.1705,3.1705,3.1705,3.1705,3.1705,3.1428,3.0973,3.0398,2.9881,2.9388,2.8895,2.8607,2.851,2.851,2.8538,2.8558,2.8578,2.863,2.8459,2.8447,2.8419,2.8359,2.8287,2.8347,2.8459,2.857,2.855,2.8478,2.8127,2.7418,2.6999,2.6462,2.6235,2.6235,2.6276,2.6276,2.6256,2.6276,2.6193,2.6233,2.6181,2.6254,2.6431,2.6182,2.5818,2.5734,2.5609,2.588,2.6451,2.6431,2.6079,2.5735,2.539,2.5274,2.5421,2.5463,2.5631,2.5872,2.5505,2.5147,2.4999,2.4999,2.4722,2.4507,2.4507,2.4518,2.4561,2.454,2.4828,2.5147,2.5495,2.5715,2.5872,2.56,2.54,2.4956,2.4681,2.4461,2.9577,2.9943,3.0034,3.0352,3.0747,3.0769,3.1004,3.1373,3.1484,3.155,3.1484,3.1484,3.1506,3.1528,3.155,3.1661,3.1639,3.1705,3.1705,3.1705,3.1705,3.1705,3.1705,3.1705,3.1705,3.1705,3.1705,3.1705,3.1705,3.1705,3.1705,3.1705,3.1705,3.1705,3.1705,3.1705,3.1705,3.1705,3.1705,3.1705,3.1705,3.1705,3.1693,3.1202,3.06,3.0227,2.9725,2.8991,2.8655,2.851,2.855,2.8618,2.8685,2.8756,2.8796,2.8867,2.8895,2.8907,2.8887,2.8887,2.8887,2.8907,2.8907,2.8907,2.8887,2.8867,2.8427,2.8375,2.8003,2.7871,2.7871,2.7931,2.7919,2.7871,2.7851,2.7577,2.7432,2.7055,2.681,2.6883,2.6853,2.6739,2.6801,2.6719,2.6739,2.7037,2.6792,2.6483,2.6327,2.611,2.5944,2.6131,2.6297,2.6545,2.6812,2.611,2.5715,2.5526,2.5327,2.5126,2.4892,2.454,2.4561,2.5052,2.5327,2.5589,2.5913,2.6267,2.6338,2.64,2.5944,2.5579,2.52,2.4872,2.4787]},{"header":{"parameterUnit":"m.s-1","parameterCategory":1,"la1":31.0,"la2":29.5877,"lo1":-88.7671,"lo2":-86.6584,"dy":0.0162,"dx":0.0185,"nx":115,"ny":88,"refTime":"2023-05-19T06:00:00:Z","depth":0,"parameterNumber":3,"parameterNumberName":"V-component_of_WINDS"},"data":[0.0,0.0,0.0,0.0,0.0,0.0,0.0,0.0,0.0,0.0,0.0,0.0,0.0,0.0,0.0,0.0,0.0,0.0,0.0,0.0,0.0,0.0,0.0,0.0,0.0,0.0,0.0,0.0,0.0,0.0,0.0,0.0,0.0,0.0,0.0,0.0,0.0,0.0,0.0,0.0,0.0,0.0,0.0,0.0,0.0,0.0,0.0,0.0,0.0,0.0,0.0,0.0,0.0,0.0,0.0,0.0,0.0,0.0,0.0,0.0,0.0,0.0,0.0,0.0,0.0,0.0,0.0,0.0,0.0,0.0,0.0,0.0,0.0,0.0,0.0,0.0,0.0,0.0,0.0,0.0,0.0,0.0,0.0,0.0,0.0,0.0,0.0,0.0,0.0,0.0,0.0,0.0,0.0,0.0,0.0,0.0,0.0,0.0,0.0,0.0,0.0,0.0,0.0,0.0,0.0,0.0,0.0,0.0,0.0,0.0,0.0,0.0,0.0,0.0,0.0,0.0,0.0,0.0,0.0,0.0,0.0,0.0,0.0,0.0,0.0,0.0,0.0,0.0,0.0,0.0,0.0,0.0,0.0,0.0,0.0,0.0,0.0,0.0,0.0,0.0,0.0,0.0,0.0,0.0,0.0,0.0,0.0,0.0,0.0,0.0,0.0,0.0,0.0,0.0,0.0,0.0,0.0,0.0,0.0,0.0,0.0,0.0,0.0,0.0,0.0,0.0,0.0,0.0,0.0,0.0,0.0,0.0,0.0,0.0,0.0,0.0,0.0,0.0,0.0,0.0,0.0,0.0,0.0,0.0,0.0,0.0,0.0,0.0,0.0,0.0,0.0,0.0,0.0,0.0,0.0,0.0,0.0,0.0,0.0,0.0,0.0,0.0,0.0,0.0,0.0,0.0,0.0,0.0,0.0,0.0,0.0,0.0,0.0,0.0,0.0,0.0,0.0,0.0,0.0,0.0,0.0,0.0,0.0,0.0,0.0,0.0,0.0,0.0,0.0,0.0,0.0,0.0,0.0,0.0,0.0,0.0,0.0,0.0,0.0,0.0,0.0,0.0,0.0,0.0,0.0,0.0,0.0,0.0,0.0,0.0,0.0,0.0,0.0,0.0,0.0,0.0,0.0,0.0,0.0,0.0,0.0,0.0,0.0,0.0,0.0,0.0,0.0,0.0,0.0,0.0,0.0,0.0,0.0,0.0,0.0,0.0,0.0,0.0,0.0,0.0,0.0,0.0,0.0,0.0,0.0,0.0,0.0,0.0,0.0,0.0,0.0,0.0,0.0,0.0,0.0,0.0,0.0,0.0,0.0,0.0,0.0,0.0,0.0,0.0,0.0,0.0,0.0,0.0,0.0,0.0,0.0,0.0,0.0,0.0,0.0,0.0,0.0,0.0,0.0,0.0,0.0,0.0,0.0,0.0,0.0,0.0,0.0,0.0,0.0,0.0,0.0,0.0,0.0,0.0,0.0,0.0,0.0,0.0,0.0,0.0,0.0,0.0,0.0,0.0,0.0,0.0,0.0,0.0,0.0,0.0,0.0,0.0,0.0,0.0,0.0,0.0,0.0,0.0,0.0,0.0,0.0,0.0,0.0,0.0,0.0,0.0,0.0,0.0,0.0,0.0,0.0,0.0,0.0,0.0,0.0,0.0,0.0,0.0,0.0,0.0,0.0,0.0,0.0,0.0,0.0,0.0,0.0,0.0,0.0,0.0,0.0,0.0,0.0,0.0,0.0,0.0,0.0,0.0,0.0,0.0,0.0,0.0,0.0,0.0,0.0,0.0,0.0,0.0,0.0,0.0,0.0,0.0,0.0,0.0,0.0,0.0,0.0,0.0,0.0,0.0,0.0,0.0,0.0,0.0,0.0,0.0,0.0,0.0,0.0,0.0,0.0,0.0,0.0,0.0,0.0,0.0,0.0,0.0,0.0,0.0,0.0,0.0,0.0,0.0,0.0,0.0,0.0,0.0,0.0,0.0,0.0,0.0,0.0,0.0,0.0,0.0,0.0,0.0,0.0,0.0,0.0,0.0,0.0,0.0,0.0,0.0,0.0,0.0,0.0,0.0,0.0,0.0,0.0,0.0,0.0,0.0,0.0,0.0,0.0,0.0,0.0,0.0,0.0,0.0,0.0,0.0,0.0,0.0,0.0,0.0,0.0,0.0,0.0,0.0,0.0,0.0,0.0,0.0,0.0,0.0,0.0,0.0,0.0,0.0,0.0,0.0,0.0,0.0,0.0,0.0,0.0,0.0,0.0,0.0,0.0,0.0,0.0,0.0,0.0,0.0,0.0,0.0,0.0,0.0,0.0,0.0,0.0,0.0,0.0,0.0,0.0,0.0,0.0,0.0,0.0,0.0,0.0,0.0,0.0,0.0,0.0,0.0,0.0,0.0,0.0,0.0,0.0,0.0,0.0,0.0,0.0,0.0,0.0,0.0,0.0,0.0,0.0,0.0,0.0,0.0,0.0,0.0,0.0,0.0,0.0,0.0,0.0,0.0,0.0,0.0,0.0,0.0,0.0,0.0,0.0,0.0,0.0,0.0,0.0,0.0,0.0,0.0,0.0,0.0,0.0,0.0,0.0,0.0,0.0,0.0,0.0,0.0,0.0,0.0,0.0,0.0,0.0,0.0,0.0,0.0,0.0,0.0,0.0,0.0,0.0,0.0,0.0,0.0,0.0,0.0,0.0,0.0,0.0,0.0,0.0,0.0,0.0,0.0,0.0,0.0,0.0,0.0,0.0,0.0,0.0,0.0,0.0,0.0,0.0,0.0,0.0,0.0,0.0,0.0,0.0,0.0,0.0,0.0,0.0,0.0,0.0,0.0,0.0,0.0,0.0,0.0,0.0,0.0,0.0,0.0,0.0,0.0,0.0,0.0,0.0,0.0,0.0,0.0,0.0,0.0,0.0,0.0,0.0,0.0,0.0,0.0,0.0,0.0,0.0,0.0,0.0,0.0,0.0,0.0,0.0,0.0,0.0,0.0,0.0,0.0,0.0,0.0,0.0,0.0,0.0,0.0,0.0,0.0,0.0,0.0,0.0,0.0,0.0,0.0,0.0,0.0,0.0,0.0,0.0,0.0,0.0,0.0,0.0,0.0,0.0,0.0,0.0,0.0,0.0,0.0,0.0,0.0,0.0,0.0,0.0,0.0,0.0,0.0,0.0,0.0,0.0,0.0,0.0,0.0,0.0,0.0,0.0,0.0,0.0,0.0,0.0,0.0,0.0,0.0,0.0,0.0,0.0,0.0,0.0,0.0,0.0,0.0,0.0,0.0,0.0,0.0,0.0,0.0,0.0,0.0,0.0,0.0,0.0,0.0,0.0,0.0,0.0,0.0,0.0,0.0,0.0,0.0,0.0,0.0,0.0,0.0,0.0,0.0,0.0,0.0,0.0,0.0,0.0,0.0,0.0,0.0,0.0,0.0,0.0,0.0,0.0,0.0,0.0,0.0,0.0,0.0,0.0,0.0,0.0,0.0,0.0,0.0,0.0,0.0,0.0,0.0,0.0,0.0,0.0,0.0,0.0,0.0,0.0,0.0,0.0,0.0,0.0,0.0,0.0,0.0,0.0,0.0,0.0,0.0,0.0,0.0,0.0,0.0,0.0,0.0,0.0,0.0,0.0,0.0,0.0,0.0,0.0,0.0,0.0,0.0,0.0,0.0,0.0,0.0,0.0,0.0,0.0,0.0,0.0,0.0,0.0,0.0,0.0,0.0,0.0,0.0,0.0,0.0,0.0,0.0,0.0,0.0,0.0,0.0,0.0,0.0,0.0,0.0,0.0,0.0,0.0,0.0,0.0,0.0,0.0,0.0,0.0,0.0,0.0,0.0,0.0,0.0,0.0,0.0,0.0,0.0,0.0,0.0,0.0,0.0,0.0,0.0,0.0,0.0,0.0,0.0,0.0,0.0,0.0,0.0,0.0,0.0,0.0,0.0,0.0,0.0,0.0,0.0,0.0,0.0,0.0,0.0,0.0,0.0,0.0,0.0,0.0,0.0,0.0,0.0,0.0,0.0,0.0,0.0,0.0,0.0,0.0,0.0,0.0,0.0,0.0,0.0,0.0,0.0,0.0,0.0,0.0,0.0,0.0,0.0,0.0,0.0,0.0,0.0,0.0,0.0,0.0,0.0,0.0,0.0,0.0,0.0,0.0,0.0,0.0,0.0,0.0,0.0,0.0,0.0,0.0,0.0,0.0,0.0,0.0,0.0,0.0,0.0,0.0,0.0,0.0,0.0,0.0,0.0,0.0,0.0,3.2536,0.0,0.0,0.0,0.0,0.0,0.0,0.0,0.0,0.0,0.0,0.0,0.0,0.0,0.0,0.0,0.0,0.0,0.0,0.0,0.0,0.0,0.0,0.0,0.0,0.0,0.0,0.0,0.0,0.0,0.0,0.0,0.0,0.0,0.0,0.0,0.0,0.0,0.0,0.0,0.0,0.0,0.0,0.0,0.0,0.0,0.0,0.0,0.0,0.0,0.0,0.0,0.0,0.0,0.0,0.0,0.0,0.0,0.0,0.0,0.0,0.0,0.0,0.0,0.0,0.0,0.0,0.0,0.0,0.0,0.0,0.0,0.0,0.0,0.0,0.0,0.0,0.0,0.0,0.0,0.0,0.0,0.0,0.0,0.0,0.0,0.0,0.0,0.0,0.0,0.0,0.0,0.0,0.0,0.0,0.0,0.0,0.0,0.0,0.0,0.0,0.0,0.0,0.0,0.0,0.0,0.0,0.0,0.0,0.0,0.0,3.2411,3.2411,3.2411,3.2411,3.2411,0.0,0.0,0.0,0.0,0.0,0.0,0.0,0.0,0.0,0.0,0.0,0.0,0.0,0.0,0.0,0.0,0.0,0.0,0.0,0.0,0.0,0.0,0.0,0.0,0.0,0.0,0.0,0.0,0.0,0.0,0.0,0.0,0.0,0.0,0.0,0.0,0.0,0.0,0.0,0.0,0.0,0.0,0.0,0.0,0.0,0.0,0.0,0.0,0.0,0.0,0.0,0.0,0.0,0.0,0.0,0.0,0.0,0.0,0.0,0.0,0.0,0.0,0.0,0.0,0.0,0.0,0.0,0.0,0.0,0.0,0.0,0.0,0.0,0.0,0.0,0.0,0.0,0.0,0.0,0.0,0.0,0.0,0.0,0.0,0.0,0.0,0.0,0.0,0.0,0.0,0.0,0.0,0.0,0.0,0.0,0.0,0.0,0.0,0.0,0.0,0.0,0.0,0.0,0.0,0.0,0.0,0.0,0.0,0.0,0.0,0.0,0.0,3.2411,3.2411,3.2411,0.0,0.0,0.0,0.0,0.0,0.0,0.0,0.0,0.0,0.0,0.0,0.0,0.0,0.0,0.0,0.0,0.0,0.0,0.0,0.0,0.0,0.0,0.0,0.0,0.0,0.0,0.0,0.0,0.0,0.0,0.0,0.0,0.0,0.0,0.0,0.0,0.0,0.0,0.0,0.0,0.0,0.0,0.0,0.0,0.0,0.0,0.0,0.0,0.0,0.0,0.0,0.0,0.0,0.0,0.0,0.0,0.0,0.0,0.0,0.0,0.0,0.0,0.0,0.0,0.0,0.0,0.0,0.0,0.0,0.0,0.0,0.0,0.0,0.0,0.0,0.0,0.0,0.0,0.0,0.0,0.0,0.0,0.0,0.0,0.0,0.0,0.0,0.0,0.0,0.0,0.0,0.0,0.0,0.0,0.0,0.0,0.0,0.0,0.0,0.0,0.0,0.0,0.0,0.0,0.0,0.0,0.0,0.0,0.0,0.0,3.2411,3.2411,3.2411,0.0,3.2411,0.0,0.0,0.0,0.0,0.0,0.0,0.0,0.0,0.0,0.0,0.0,0.0,0.0,0.0,0.0,0.0,0.0,0.0,0.0,0.0,0.0,0.0,0.0,0.0,0.0,0.0,0.0,0.0,0.0,0.0,0.0,0.0,0.0,0.0,0.0,0.0,0.0,0.0,0.0,0.0,0.0,0.0,0.0,0.0,0.0,0.0,0.0,0.0,0.0,0.0,0.0,0.0,0.0,0.0,0.0,0.0,0.0,0.0,0.0,0.0,0.0,0.0,0.0,0.0,0.0,0.0,0.0,0.0,0.0,0.0,0.0,0.0,0.0,0.0,0.0,0.0,0.0,0.0,0.0,0.0,0.0,0.0,0.0,0.0,0.0,0.0,0.0,0.0,0.0,0.0,0.0,0.0,0.0,0.0,0.0,0.0,0.0,0.0,0.0,0.0,0.0,0.0,0.0,0.0,0.0,0.0,0.0,0.0,0.0,0.0,3.2411,3.2411,3.2411,3.2411,0.0,0.0,0.0,0.0,0.0,0.0,0.0,0.0,0.0,0.0,0.0,0.0,0.0,0.0,0.0,0.0,0.0,0.0,0.0,0.0,0.0,0.0,0.0,0.0,0.0,0.0,0.0,0.0,0.0,0.0,0.0,0.0,0.0,0.0,0.0,0.0,0.0,0.0,0.0,0.0,0.0,0.0,0.0,0.0,0.0,0.0,0.0,0.0,0.0,0.0,0.0,0.0,0.0,0.0,0.0,0.0,0.0,0.0,0.0,0.0,0.0,0.0,0.0,0.0,0.0,0.0,0.0,0.0,0.0,0.0,0.0,0.0,0.0,0.0,0.0,0.0,0.0,0.0,0.0,0.0,0.0,0.0,0.0,0.0,0.0,0.0,0.0,0.0,0.0,0.0,0.0,0.0,0.0,0.0,0.0,0.0,0.0,0.0,0.0,0.0,0.0,0.0,0.0,0.0,0.0,0.0,0.0,0.0,0.0,0.0,3.2411,3.2411,3.2411,3.2411,3.2411,3.2411,0.0,0.0,0.0,0.0,0.0,0.0,0.0,0.0,0.0,0.0,0.0,0.0,0.0,0.0,0.0,0.0,0.0,0.0,0.0,0.0,0.0,0.0,0.0,0.0,0.0,0.0,0.0,0.0,0.0,0.0,0.0,0.0,0.0,0.0,0.0,0.0,0.0,0.0,0.0,0.0,0.0,0.0,0.0,0.0,0.0,0.0,0.0,0.0,0.0,0.0,0.0,0.0,0.0,0.0,0.0,0.0,0.0,0.0,0.0,0.0,0.0,0.0,0.0,0.0,0.0,0.0,0.0,0.0,0.0,0.0,0.0,0.0,0.0,0.0,0.0,0.0,0.0,0.0,0.0,0.0,0.0,0.0,0.0,0.0,0.0,0.0,0.0,0.0,0.0,0.0,0.0,0.0,0.0,0.0,0.0,0.0,0.0,0.0,0.0,0.0,0.0,0.0,0.0,0.0,0.0,0.0,0.0,0.0,3.2411,3.2411,3.2411,3.2411,3.2411,3.2411,0.0,0.0,0.0,0.0,0.0,0.0,0.0,0.0,0.0,0.0,0.0,0.0,0.0,0.0,0.0,0.0,0.0,0.0,0.0,0.0,0.0,0.0,0.0,0.0,0.0,0.0,0.0,0.0,0.0,0.0,0.0,0.0,0.0,0.0,0.0,0.0,0.0,0.0,0.0,0.0,0.0,0.0,0.0,0.0,0.0,0.0,0.0,0.0,0.0,0.0,0.0,0.0,0.0,0.0,0.0,0.0,0.0,0.0,0.0,0.0,0.0,0.0,0.0,0.0,0.0,0.0,0.0,0.0,0.0,0.0,0.0,0.0,0.0,0.0,0.0,0.0,0.0,0.0,0.0,0.0,0.0,0.0,0.0,0.0,0.0,0.0,0.0,0.0,0.0,0.0,0.0,0.0,0.0,0.0,0.0,0.0,0.0,0.0,0.0,0.0,0.0,0.0,0.0,0.0,0.0,0.0,0.0,0.0,0.0,3.2411,3.2411,3.2411,3.2411,3.2607,3.2732,0.0,0.0,0.0,0.0,0.0,0.0,0.0,0.0,0.0,0.0,0.0,0.0,0.0,0.0,0.0,0.0,0.0,0.0,0.0,0.0,0.0,0.0,0.0,0.0,0.0,0.0,0.0,0.0,0.0,0.0,0.0,0.0,0.0,0.0,0.0,0.0,0.0,0.0,0.0,0.0,0.0,0.0,0.0,0.0,0.0,0.0,0.0,0.0,0.0,0.0,0.0,0.0,0.0,0.0,0.0,0.0,0.0,0.0,0.0,0.0,0.0,0.0,0.0,0.0,0.0,0.0,0.0,0.0,0.0,0.0,0.0,0.0,0.0,0.0,0.0,0.0,0.0,0.0,0.0,0.0,0.0,0.0,0.0,0.0,0.0,0.0,0.0,0.0,0.0,0.0,0.0,0.0,0.0,0.0,0.0,0.0,0.0,0.0,0.0,0.0,0.0,0.0,0.0,0.0,0.0,0.0,0.0,0.0,0.0,3.2564,0.0,3.2411,3.2411,3.2605,3.2716,0.0,0.0,0.0,0.0,0.0,0.0,0.0,0.0,0.0,0.0,0.0,0.0,0.0,0.0,0.0,0.0,0.0,0.0,0.0,0.0,0.0,0.0,0.0,0.0,0.0,0.0,0.0,0.0,0.0,0.0,0.0,0.0,0.0,0.0,0.0,0.0,0.0,0.0,0.0,0.0,0.0,0.0,0.0,0.0,0.0,0.0,0.0,0.0,0.0,0.0,0.0,0.0,0.0,0.0,0.0,0.0,0.0,0.0,0.0,0.0,0.0,0.0,0.0,0.0,0.0,0.0,0.0,0.0,0.0,0.0,0.0,0.0,0.0,0.0,0.0,0.0,0.0,0.0,0.0,0.0,0.0,0.0,0.0,0.0,0.0,0.0,0.0,0.0,0.0,0.0,0.0,0.0,0.0,0.0,0.0,0.0,0.0,0.0,0.0,0.0,0.0,0.0,0.0,0.0,0.0,0.0,0.0,0.0,3.3163,3.2897,3.2594,3.2439,3.2411,3.2439,3.2439,0.0,0.0,0.0,0.0,0.0,0.0,0.0,0.0,0.0,0.0,0.0,0.0,0.0,0.0,0.0,0.0,0.0,0.0,0.0,0.0,0.0,0.0,0.0,0.0,0.0,0.0,0.0,0.0,0.0,0.0,0.0,0.0,0.0,0.0,0.0,0.0,0.0,0.0,0.0,0.0,0.0,0.0,0.0,0.0,0.0,0.0,0.0,0.0,0.0,0.0,0.0,0.0,0.0,0.0,0.0,0.0,0.0,0.0,0.0,0.0,0.0,0.0,0.0,0.0,0.0,0.0,0.0,0.0,0.0,0.0,0.0,0.0,0.0,0.0,0.0,0.0,0.0,0.0,0.0,0.0,0.0,0.0,0.0,0.0,0.0,0.0,0.0,0.0,0.0,0.0,0.0,0.0,0.0,0.0,0.0,0.0,0.0,0.0,0.0,0.0,0.0,0.0,0.0,0.0,0.0,0.0,0.0,0.0,0.0,3.291,3.2989,3.2933,3.2759,3.292,3.3011,0.0,0.0,0.0,0.0,0.0,0.0,0.0,0.0,0.0,0.0,0.0,0.0,0.0,0.0,0.0,0.0,0.0,0.0,0.0,0.0,0.0,0.0,0.0,0.0,0.0,0.0,0.0,0.0,0.0,0.0,0.0,0.0,0.0,0.0,0.0,0.0,0.0,0.0,0.0,0.0,0.0,0.0,0.0,0.0,0.0,0.0,0.0,0.0,0.0,0.0,0.0,0.0,0.0,0.0,0.0,0.0,0.0,0.0,0.0,0.0,0.0,0.0,0.0,0.0,0.0,0.0,0.0,0.0,0.0,0.0,0.0,0.0,0.0,0.0,0.0,0.0,0.0,0.0,0.0,0.0,0.0,0.0,0.0,0.0,0.0,0.0,0.0,0.0,0.0,0.0,0.0,0.0,0.0,0.0,0.0,0.0,0.0,0.0,0.0,0.0,0.0,0.0,0.0,0.0,0.0,0.0,0.0,0.0,0.0,3.3229,3.3269,3.3216,3.3043,3.311,3.315,3.315,0.0,0.0,0.0,0.0,0.0,0.0,0.0,0.0,0.0,0.0,0.0,0.0,0.0,0.0,0.0,0.0,0.0,0.0,0.0,0.0,0.0,0.0,0.0,0.0,0.0,0.0,0.0,0.0,0.0,0.0,0.0,0.0,0.0,0.0,0.0,0.0,0.0,0.0,0.0,0.0,0.0,0.0,0.0,0.0,0.0,0.0,0.0,0.0,0.0,0.0,0.0,0.0,0.0,0.0,0.0,0.0,0.0,0.0,0.0,0.0,0.0,0.0,0.0,0.0,0.0,0.0,0.0,0.0,0.0,0.0,0.0,0.0,0.0,0.0,0.0,0.0,0.0,0.0,0.0,0.0,0.0,0.0,0.0,0.0,0.0,0.0,0.0,0.0,0.0,0.0,0.0,0.0,0.0,0.0,0.0,0.0,0.0,0.0,0.0,0.0,0.0,0.0,0.0,0.0,0.0,0.0,0.0,0.0,3.3736,3.3477,3.3332,3.3322,3.3085,3.291,0.0,0.0,0.0,0.0,0.0,0.0,0.0,0.0,0.0,0.0,0.0,0.0,0.0,0.0,0.0,0.0,0.0,0.0,0.0,0.0,0.0,0.0,0.0,0.0,0.0,0.0,0.0,0.0,0.0,0.0,0.0,0.0,0.0,0.0,0.0,0.0,0.0,0.0,0.0,0.0,0.0,0.0,0.0,0.0,0.0,0.0,0.0,0.0,0.0,0.0,0.0,0.0,0.0,0.0,0.0,0.0,0.0,0.0,0.0,0.0,0.0,0.0,0.0,0.0,0.0,0.0,0.0,0.0,0.0,0.0,0.0,0.0,0.0,0.0,0.0,0.0,0.0,0.0,0.0,0.0,0.0,0.0,0.0,0.0,0.0,0.0,0.0,0.0,0.0,0.0,0.0,0.0,0.0,0.0,0.0,0.0,0.0,0.0,0.0,0.0,0.0,0.0,0.0,0.0,0.0,0.0,0.0,0.0,0.0,3.4,3.394,3.3797,3.3594,3.3319,3.3189,0.0,0.0,0.0,0.0,0.0,0.0,0.0,0.0,0.0,0.0,0.0,0.0,0.0,0.0,0.0,0.0,0.0,0.0,0.0,0.0,0.0,0.0,0.0,0.0,0.0,0.0,0.0,0.0,0.0,0.0,0.0,0.0,0.0,0.0,0.0,0.0,0.0,0.0,0.0,0.0,0.0,0.0,0.0,0.0,0.0,0.0,0.0,0.0,0.0,0.0,0.0,0.0,0.0,0.0,0.0,0.0,0.0,0.0,0.0,0.0,0.0,0.0,0.0,0.0,0.0,0.0,0.0,0.0,0.0,0.0,0.0,0.0,0.0,0.0,0.0,0.0,0.0,0.0,0.0,0.0,0.0,0.0,0.0,0.0,0.0,0.0,0.0,0.0,0.0,0.0,0.0,0.0,0.0,0.0,0.0,0.0,0.0,0.0,0.0,0.0,0.0,0.0,0.0,0.0,0.0,0.0,0.0,0.0,3.4088,3.4088,3.4088,3.4025,3.3873,3.3607,3.3411,0.0,0.0,0.0,0.0,0.0,0.0,0.0,0.0,0.0,0.0,0.0,0.0,0.0,0.0,0.0,0.0,0.0,0.0,0.0,0.0,0.0,0.0,0.0,0.0,0.0,0.0,0.0,0.0,0.0,0.0,0.0,0.0,0.0,0.0,0.0,0.0,0.0,0.0,0.0,0.0,0.0,0.0,0.0,0.0,0.0,0.0,0.0,0.0,0.0,0.0,0.0,0.0,0.0,0.0,0.0,0.0,0.0,0.0,0.0,0.0,0.0,0.0,0.0,0.0,0.0,0.0,0.0,0.0,0.0,0.0,0.0,0.0,0.0,0.0,0.0,0.0,0.0,0.0,0.0,0.0,0.0,0.0,0.0,0.0,0.0,0.0,0.0,0.0,0.0,0.0,0.0,0.0,0.0,0.0,0.0,0.0,0.0,0.0,0.0,0.0,0.0,0.0,0.0,0.0,0.0,0.0,0.0,0.0,3.4088,3.4088,3.4088,3.4088,3.4088,3.3835,3.3581,0.0,0.0,0.0,0.0,0.0,0.0,0.0,0.0,0.0,0.0,0.0,0.0,0.0,0.0,0.0,0.0,0.0,0.0,0.0,0.0,0.0,0.0,0.0,0.0,0.0,0.0,0.0,0.0,0.0,0.0,0.0,0.0,0.0,0.0,0.0,0.0,0.0,0.0,0.0,0.0,0.0,0.0,0.0,0.0,0.0,0.0,0.0,0.0,0.0,0.0,0.0,0.0,0.0,0.0,0.0,0.0,0.0,0.0,0.0,0.0,0.0,0.0,0.0,0.0,0.0,0.0,0.0,0.0,0.0,0.0,0.0,0.0,0.0,0.0,0.0,0.0,0.0,0.0,0.0,0.0,0.0,0.0,0.0,0.0,0.0,0.0,0.0,0.0,0.0,0.0,0.0,0.0,0.0,0.0,0.0,0.0,0.0,0.0,0.0,0.0,0.0,0.0,0.0,0.0,0.0,0.0,0.0,0.0,3.4088,3.4088,3.4088,3.4088,3.4088,3.3835,3.3581,0.0,0.0,0.0,0.0,0.0,0.0,0.0,0.0,0.0,0.0,0.0,0.0,0.0,0.0,0.0,0.0,0.0,0.0,0.0,0.0,0.0,0.0,0.0,0.0,0.0,0.0,0.0,0.0,0.0,0.0,0.0,0.0,0.0,0.0,0.0,0.0,0.0,0.0,0.0,0.0,0.0,0.0,0.0,0.0,0.0,0.0,0.0,0.0,4.0146,0.0,0.0,0.0,0.0,0.0,0.0,0.0,0.0,0.0,0.0,0.0,0.0,0.0,0.0,0.0,0.0,0.0,0.0,0.0,0.0,0.0,0.0,0.0,0.0,0.0,0.0,0.0,0.0,0.0,0.0,0.0,0.0,0.0,0.0,0.0,0.0,0.0,0.0,0.0,0.0,0.0,0.0,0.0,0.0,0.0,0.0,0.0,0.0,0.0,0.0,0.0,0.0,0.0,0.0,0.0,0.0,0.0,0.0,0.0,3.4088,3.4088,3.4088,3.4088,3.4088,3.3962,3.3694,0.0,0.0,0.0,0.0,0.0,0.0,0.0,0.0,0.0,0.0,0.0,0.0,0.0,0.0,0.0,0.0,0.0,0.0,0.0,0.0,0.0,0.0,0.0,0.0,0.0,0.0,0.0,0.0,0.0,0.0,0.0,0.0,0.0,0.0,0.0,0.0,0.0,0.0,0.0,0.0,0.0,0.0,0.0,0.0,0.0,0.0,0.0,0.0,0.0,0.0,0.0,0.0,0.0,0.0,0.0,0.0,0.0,0.0,0.0,0.0,0.0,0.0,0.0,0.0,0.0,0.0,0.0,0.0,0.0,0.0,0.0,0.0,0.0,0.0,0.0,0.0,0.0,0.0,0.0,0.0,0.0,0.0,0.0,0.0,0.0,0.0,0.0,0.0,0.0,0.0,0.0,0.0,0.0,0.0,0.0,0.0,0.0,0.0,0.0,0.0,0.0,0.0,0.0,0.0,0.0,0.0,0.0,3.4088,3.4088,3.4088,3.4088,3.4088,3.4088,3.4088,3.3873,3.3385,0.0,0.0,0.0,0.0,0.0,0.0,0.0,0.0,0.0,0.0,0.0,0.0,0.0,0.0,0.0,0.0,0.0,0.0,0.0,0.0,0.0,0.0,0.0,0.0,0.0,0.0,0.0,0.0,0.0,0.0,0.0,0.0,0.0,0.0,0.0,0.0,0.0,0.0,4.0113,4.0113,0.0,0.0,0.0,0.0,0.0,0.0,0.0,0.0,4.0113,0.0,0.0,0.0,0.0,0.0,0.0,0.0,0.0,0.0,0.0,0.0,0.0,0.0,0.0,0.0,0.0,0.0,0.0,0.0,0.0,0.0,0.0,0.0,0.0,0.0,0.0,0.0,0.0,0.0,0.0,0.0,0.0,0.0,0.0,0.0,0.0,0.0,0.0,0.0,0.0,0.0,0.0,0.0,0.0,0.0,0.0,0.0,0.0,0.0,0.0,0.0,0.0,0.0,0.0,0.0,0.0,3.4088,3.4088,3.4088,3.4088,3.4088,3.4088,3.4088,3.4088,3.3949,3.3645,0.0,0.0,0.0,0.0,0.0,0.0,0.0,0.0,0.0,0.0,0.0,0.0,0.0,0.0,0.0,0.0,0.0,0.0,0.0,0.0,0.0,0.0,0.0,0.0,0.0,0.0,0.0,0.0,0.0,0.0,0.0,0.0,0.0,0.0,0.0,0.0,0.0,0.0,0.0,4.0113,4.0113,0.0,0.0,0.0,0.0,0.0,0.0,0.0,0.0,4.0113,0.0,0.0,0.0,0.0,0.0,0.0,0.0,0.0,0.0,0.0,0.0,0.0,0.0,0.0,0.0,0.0,0.0,0.0,0.0,0.0,0.0,0.0,0.0,0.0,0.0,0.0,0.0,0.0,0.0,0.0,0.0,0.0,0.0,0.0,0.0,0.0,0.0,0.0,0.0,0.0,0.0,0.0,0.0,0.0,0.0,0.0,0.0,0.0,0.0,0.0,0.0,0.0,0.0,0.0,0.0,3.4399,3.4201,3.4088,3.4088,3.4088,3.4088,3.4088,3.4088,3.4022,0.0,0.0,0.0,0.0,0.0,0.0,0.0,0.0,0.0,0.0,0.0,0.0,0.0,0.0,0.0,0.0,0.0,0.0,0.0,0.0,0.0,0.0,0.0,0.0,0.0,0.0,0.0,0.0,0.0,0.0,0.0,0.0,0.0,0.0,0.0,0.0,0.0,0.0,0.0,0.0,4.015,4.0113,4.0113,0.0,0.0,0.0,0.0,0.0,0.0,4.0113,4.0113,0.0,0.0,0.0,0.0,0.0,0.0,0.0,0.0,0.0,0.0,0.0,0.0,0.0,0.0,0.0,0.0,0.0,0.0,0.0,0.0,0.0,0.0,0.0,0.0,0.0,0.0,0.0,0.0,0.0,0.0,0.0,0.0,0.0,0.0,0.0,0.0,0.0,0.0,0.0,0.0,0.0,0.0,0.0,0.0,0.0,0.0,0.0,0.0,0.0,0.0,0.0,0.0,0.0,0.0,0.0,3.4679,3.43,3.4088,3.4088,3.4088,3.4088,3.4088,3.4088,3.4088,0.0,0.0,0.0,0.0,0.0,0.0,0.0,0.0,0.0,0.0,0.0,0.0,0.0,0.0,0.0,0.0,0.0,0.0,0.0,0.0,0.0,0.0,0.0,0.0,0.0,0.0,0.0,0.0,0.0,0.0,0.0,0.0,0.0,0.0,0.0,0.0,0.0,0.0,0.0,0.0,0.0,4.0113,4.0113,4.0113,0.0,0.0,0.0,0.0,4.0113,4.0113,0.0,0.0,0.0,0.0,0.0,0.0,0.0,0.0,0.0,0.0,0.0,0.0,0.0,0.0,0.0,0.0,0.0,0.0,0.0,0.0,0.0,0.0,0.0,0.0,0.0,0.0,0.0,0.0,0.0,0.0,0.0,0.0,0.0,0.0,0.0,0.0,0.0,0.0,0.0,0.0,0.0,0.0,0.0,0.0,0.0,0.0,0.0,0.0,0.0,0.0,0.0,0.0,0.0,0.0,0.0,0.0,3.4679,3.4296,3.4088,3.4088,3.4088,3.4088,3.4088,3.4088,3.4088,0.0,0.0,0.0,0.0,0.0,0.0,0.0,0.0,0.0,0.0,0.0,0.0,0.0,0.0,0.0,0.0,0.0,0.0,0.0,0.0,0.0,0.0,0.0,0.0,0.0,0.0,0.0,0.0,0.0,0.0,0.0,0.0,0.0,0.0,0.0,0.0,0.0,0.0,0.0,0.0,0.0,4.0113,4.0113,4.0113,4.0113,0.0,0.0,4.0113,4.0113,4.0113,0.0,0.0,0.0,0.0,0.0,0.0,0.0,0.0,0.0,0.0,0.0,0.0,0.0,0.0,0.0,0.0,0.0,0.0,0.0,0.0,0.0,0.0,0.0,0.0,0.0,0.0,0.0,0.0,0.0,0.0,0.0,0.0,0.0,0.0,0.0,0.0,0.0,0.0,0.0,0.0,0.0,0.0,0.0,0.0,0.0,0.0,0.0,0.0,0.0,0.0,0.0,0.0,0.0,0.0,0.0,3.4984,3.4972,3.4395,3.4088,3.4088,3.4088,3.4088,3.4088,3.4088,3.4088,0.0,0.0,0.0,0.0,0.0,0.0,0.0,0.0,0.0,0.0,0.0,0.0,0.0,0.0,0.0,0.0,0.0,0.0,0.0,0.0,0.0,0.0,0.0,0.0,0.0,0.0,0.0,0.0,0.0,0.0,0.0,0.0,0.0,0.0,0.0,0.0,0.0,0.0,0.0,0.0,0.0,0.0,4.0113,4.0113,0.0,0.0,0.0,4.0113,4.0113,0.0,0.0,0.0,0.0,0.0,0.0,0.0,0.0,0.0,0.0,0.0,0.0,0.0,0.0,0.0,0.0,0.0,0.0,0.0,0.0,0.0,0.0,0.0,0.0,0.0,0.0,0.0,0.0,0.0,0.0,0.0,0.0,0.0,0.0,0.0,0.0,0.0,0.0,0.0,0.0,0.0,0.0,0.0,0.0,0.0,0.0,0.0,0.0,0.0,0.0,0.0,0.0,0.0,0.0,0.0,0.0,0.0,3.535,3.4706,3.4333,3.4263,3.425,3.4217,3.4113,3.4188,0.0,0.0,0.0,0.0,0.0,0.0,0.0,0.0,0.0,0.0,0.0,0.0,0.0,0.0,0.0,0.0,0.0,0.0,0.0,0.0,0.0,0.0,0.0,0.0,0.0,0.0,0.0,3.8337,0.0,0.0,0.0,0.0,0.0,0.0,0.0,0.0,0.0,0.0,0.0,0.0,0.0,0.0,4.0133,4.0254,4.0171,4.0113,0.0,0.0,4.0113,4.0113,4.0113,4.0113,0.0,0.0,0.0,0.0,0.0,0.0,0.0,0.0,0.0,0.0,0.0,0.0,0.0,0.0,0.0,0.0,0.0,0.0,0.0,0.0,0.0,0.0,0.0,0.0,0.0,0.0,0.0,0.0,0.0,0.0,0.0,0.0,0.0,0.0,0.0,0.0,0.0,0.0,0.0,0.0,0.0,0.0,0.0,0.0,0.0,0.0,0.0,0.0,0.0,0.0,0.0,0.0,0.0,0.0,3.5755,3.5733,3.535,3.4956,3.4679,3.4671,3.4485,3.4126,3.4472,3.4655,0.0,0.0,0.0,0.0,0.0,0.0,0.0,0.0,0.0,0.0,0.0,0.0,0.0,0.0,0.0,0.0,0.0,0.0,0.0,0.0,0.0,0.0,0.0,0.0,0.0,0.0,0.0,0.0,0.0,0.0,0.0,0.0,0.0,0.0,0.0,0.0,0.0,0.0,0.0,0.0,0.0,4.0254,4.07,4.039,4.0113,0.0,4.0113,4.0113,4.0113,4.0113,4.0113,4.0096,0.0,0.0,0.0,0.0,0.0,0.0,0.0,0.0,0.0,0.0,0.0,0.0,0.0,0.0,0.0,0.0,0.0,0.0,0.0,0.0,0.0,0.0,0.0,0.0,0.0,0.0,0.0,0.0,0.0,0.0,0.0,0.0,0.0,0.0,0.0,0.0,0.0,0.0,0.0,0.0,0.0,0.0,0.0,0.0,0.0,0.0,0.0,0.0,0.0,0.0,0.0,0.0,0.0,3.5805,3.5777,3.5407,3.5143,3.5003,3.5008,3.4932,3.4773,3.4937,3.502,0.0,0.0,0.0,0.0,0.0,0.0,0.0,0.0,0.0,0.0,0.0,0.0,0.0,0.0,0.0,0.0,0.0,0.0,0.0,0.0,0.0,0.0,0.0,0.0,0.0,0.0,0.0,0.0,4.0799,4.157,4.2056,0.0,0.0,0.0,0.0,0.0,0.0,0.0,0.0,0.0,0.0,4.0707,4.1145,4.0837,0.0,0.0,4.0972,4.0955,4.0966,4.0713,4.0519,4.0531,4.0296,0.0,0.0,0.0,0.0,0.0,0.0,0.0,0.0,0.0,0.0,0.0,0.0,0.0,0.0,0.0,0.0,0.0,0.0,0.0,0.0,0.0,0.0,0.0,0.0,0.0,0.0,0.0,0.0,0.0,0.0,0.0,0.0,0.0,0.0,0.0,0.0,0.0,0.0,0.0,0.0,0.0,0.0,0.0,0.0,0.0,0.0,0.0,0.0,0.0,0.0,0.0,0.0,3.5958,3.5958,3.5677,3.547,3.5385,3.5385,3.5328,3.5213,3.5316,3.5385,0.0,0.0,0.0,0.0,0.0,0.0,0.0,0.0,0.0,0.0,0.0,0.0,0.0,0.0,0.0,0.0,0.0,0.0,0.0,0.0,0.0,0.0,0.0,0.0,0.0,0.0,0.0,0.0,4.1827,4.2616,4.3414,0.0,0.0,0.0,0.0,0.0,0.0,0.0,0.0,0.0,0.0,4.1191,4.1635,4.1309,4.1071,4.1264,4.1298,4.1253,4.1116,4.0926,4.0802,4.0802,0.0,0.0,0.0,0.0,0.0,0.0,0.0,0.0,0.0,0.0,0.0,0.0,0.0,0.0,0.0,0.0,0.0,0.0,0.0,0.0,0.0,0.0,0.0,0.0,0.0,0.0,0.0,3.9093,0.0,0.0,3.9015,0.0,0.0,0.0,0.0,0.0,0.0,0.0,0.0,0.0,0.0,0.0,0.0,0.0,0.0,0.0,0.0,0.0,0.0,0.0,0.0,0.0,0.0,3.628,3.629,3.6259,3.611,3.5788,3.5777,3.5611,3.5242,3.5577,3.5794,3.5788,0.0,0.0,0.0,0.0,0.0,0.0,0.0,0.0,0.0,0.0,0.0,0.0,0.0,0.0,0.0,0.0,0.0,0.0,0.0,0.0,0.0,0.0,0.0,0.0,0.0,0.0,4.1158,4.1819,4.2643,0.0,0.0,0.0,0.0,0.0,0.0,0.0,0.0,0.0,4.2854,4.2087,4.1663,4.2126,4.1792,4.1354,4.0943,4.0873,4.07,4.0291,4.0556,4.0802,0.0,0.0,0.0,0.0,0.0,0.0,0.0,0.0,0.0,0.0,0.0,0.0,0.0,0.0,0.0,0.0,0.0,0.0,0.0,0.0,0.0,0.0,0.0,0.0,0.0,0.0,0.0,3.9799,3.9696,0.0,0.0,0.0,0.0,0.0,0.0,0.0,0.0,0.0,0.0,0.0,3.9225,3.9149,0.0,0.0,0.0,0.0,0.0,0.0,0.0,0.0,0.0,0.0,0.0,0.0,3.6284,3.6284,3.6284,3.6248,3.6142,3.6142,3.606,3.5941,3.606,3.6142,3.6142,0.0,0.0,0.0,0.0,0.0,0.0,0.0,0.0,0.0,0.0,0.0,0.0,0.0,0.0,0.0,0.0,0.0,0.0,0.0,0.0,0.0,0.0,0.0,0.0,0.0,4.2113,0.0,0.0,0.0,0.0,0.0,0.0,0.0,0.0,0.0,0.0,4.3078,4.2939,4.2901,4.235,4.2146,4.2586,4.2259,4.2004,0.0,0.0,0.0,0.0,0.0,0.0,0.0,0.0,0.0,0.0,0.0,0.0,0.0,0.0,4.4584,4.4584,4.4584,4.4584,4.4584,0.0,0.0,0.0,0.0,0.0,0.0,0.0,0.0,0.0,0.0,0.0,0.0,0.0,0.0,4.1053,4.0957,4.0912,0.0,0.0,0.0,0.0,0.0,0.0,0.0,0.0,3.9402,3.9305,3.9298,3.9151,3.9101,3.9101,3.9101,3.9024,0.0,0.0,0.0,0.0,0.0,0.0,0.0,0.0,3.6648,3.6505,3.6512,3.644,3.6294,3.6284,3.6284,3.6284,3.6284,3.6284,3.6284,3.6284,3.6343,0.0,0.0,0.0,0.0,0.0,0.0,0.0,0.0,0.0,0.0,0.0,0.0,0.0,0.0,0.0,0.0,0.0,0.0,0.0,0.0,0.0,0.0,0.0,4.291,0.0,0.0,0.0,0.0,0.0,0.0,0.0,0.0,0.0,4.3233,4.3205,4.3123,4.292,4.2634,4.2565,4.2854,0.0,0.0,0.0,0.0,0.0,0.0,0.0,4.2305,4.2573,4.2638,4.2636,4.2565,4.3387,4.3909,4.3481,0.0,0.0,4.4584,4.4584,4.4584,4.4584,4.4584,4.4584,4.4584,4.4584,4.4556,0.0,0.0,0.0,0.0,4.2977,0.0,0.0,0.0,4.277,4.2703,0.0,4.2576,0.0,0.0,0.0,0.0,4.0398,4.0147,0.0,0.0,3.9645,3.9405,3.9405,3.9265,3.9145,3.9138,3.9108,3.9101,3.9094,3.9017,0.0,0.0,0.0,0.0,0.0,0.0,3.7303,3.6939,3.6919,3.6711,3.6353,3.6322,3.6315,3.6332,3.6336,3.6357,3.6346,3.635,3.6468,3.6725,3.6927,0.0,0.0,0.0,0.0,0.0,0.0,0.0,0.0,0.0,0.0,0.0,0.0,0.0,0.0,0.0,0.0,0.0,0.0,0.0,0.0,4.3047,0.0,0.0,0.0,0.0,0.0,0.0,0.0,0.0,0.0,4.3349,4.3233,4.3205,4.3114,4.292,0.0,0.0,0.0,0.0,4.2785,4.2397,4.2308,4.2184,4.1751,4.2048,4.2604,4.3346,0.0,0.0,4.3868,4.4624,4.4841,4.3684,4.4079,4.4584,4.4584,4.4584,4.4584,4.4584,4.4584,4.4584,4.4584,4.4584,4.4584,4.3642,0.0,0.0,0.0,0.0,4.3061,4.3015,4.2953,4.2939,4.2856,4.269,4.2717,0.0,0.0,0.0,0.0,0.0,0.0,4.2035,4.2025,4.1724,4.152,4.1355,4.0556,4.0118,4.0,3.9398,3.9101,3.9101,3.908,3.9024,3.895,0.0,0.0,0.0,0.0,3.7506,3.7406,3.7396,3.7181,3.6739,3.6721,3.6729,3.6739,3.7047,3.722,3.7247,3.7286,3.7333,3.7406,3.747,0.0,0.0,0.0,0.0,0.0,0.0,0.0,0.0,0.0,0.0,0.0,0.0,0.0,0.0,0.0,0.0,0.0,0.0,0.0,4.3166,4.3359,4.3488,0.0,0.0,0.0,0.0,0.0,0.0,0.0,0.0,0.0,4.3331,4.3205,4.3077,0.0,0.0,4.3109,4.3689,4.3761,4.3921,4.4353,4.4423,0.0,4.4245,4.4317,4.4496,4.4712,4.471,4.4712,4.4858,4.4837,4.4694,4.4293,4.4448,4.4584,4.4584,4.4584,4.4584,4.4584,4.4584,4.4584,4.4584,4.4584,4.4584,4.4725,4.4364,4.4409,4.4358,4.4253,4.425,4.4172,4.4063,4.406,4.3992,4.3887,4.3908,4.3717,4.3391,4.3103,0.0,0.0,0.0,4.2975,4.2971,4.2703,4.2504,4.2318,4.1629,4.1268,4.1164,4.0546,4.0249,4.0249,4.0149,3.9897,3.9543,0.0,3.8556,3.8517,3.8245,3.803,3.7842,3.7833,3.7605,3.7161,3.7151,3.7142,3.7133,3.7424,3.7596,3.7596,3.7666,3.7754,3.785,3.7934,3.8135,0.0,0.0,0.0,0.0,0.0,0.0,0.0,0.0,0.0,0.0,0.0,4.0769,4.1098,0.0,0.0,0.0,4.3297,4.3548,4.3558,4.3523,0.0,0.0,0.0,0.0,0.0,0.0,0.0,4.4176,4.405,4.3923,4.3879,4.3971,4.3903,4.3502,4.3681,4.4023,4.4512,0.0,4.4747,4.5218,4.5291,4.5291,4.5291,4.5291,4.5399,4.5743,4.5726,4.5639,4.5594,4.5205,4.4828,4.4654,4.4584,4.4584,4.4584,4.4584,4.4584,4.4584,4.4584,4.4584,4.4584,4.4584,4.4584,4.5514,4.6114,4.6245,4.6181,4.6007,4.5998,4.5897,4.5734,4.5727,4.5717,4.5687,4.5655,4.5182,4.4388,4.3651,0.0,4.3476,4.3365,4.3339,4.3312,4.306,4.2905,4.2821,4.2612,4.249,4.2475,4.214,4.1987,4.1923,4.1705,4.1219,4.0501,3.9643,3.9101,3.8925,3.8918,3.8702,3.8261,3.8271,3.8039,3.756,3.7551,3.7551,3.7551,3.7658,3.7711,3.7711,3.778,3.7963,3.8257,3.8459,3.8699,3.9032,0.0,0.0,0.0,0.0,0.0,0.0,0.0,0.0,0.0,0.0,0.0,0.0,0.0,0.0,4.3569,4.3558,0.0,4.3582,4.3531,0.0,0.0,0.0,4.3488,4.3488,4.3561,4.3598,4.3598,0.0,0.0,4.4702,4.5219,4.5323,4.4595,4.4971,4.5327,4.5381,4.5399,4.5399,4.5562,4.5508,4.5526,4.5643,4.5617,4.5852,4.6483,4.6773,4.6653,4.622,4.5652,4.5152,4.4759,4.464,4.4584,4.4584,4.4584,4.4584,4.4584,4.4584,4.4584,4.4584,4.4584,4.4584,4.6081,4.6248,4.6296,4.6212,4.6084,4.6091,4.6017,4.5942,4.5939,4.5847,4.571,4.5796,4.5709,4.5502,4.5274,4.5183,4.5223,4.516,4.5149,4.5142,4.4988,4.4849,4.4681,4.3916,4.3375,4.3058,4.2341,4.19,4.1683,4.1634,4.1505,4.1319,4.1092,4.0347,3.9108,3.9,3.8921,3.8815,3.8815,3.8559,3.8074,3.799,3.7999,3.8039,3.8402,3.8615,3.8676,3.8748,3.911,3.9793,3.9908,4.0255,4.0904,4.1159,0.0,0.0,0.0,0.0,0.0,0.0,0.0,0.0,0.0,4.2755,4.2771,0.0,4.3664,0.0,4.3592,4.3515,4.3513,4.3515,0.0,0.0,4.3488,4.3488,4.3506,4.403,4.4406,4.4425,4.5113,4.5563,4.5526,4.6079,4.641,4.6149,4.565,4.5508,4.6106,4.6204,4.6421,4.6964,4.7055,4.7127,4.7055,4.7127,4.7156,4.7381,4.715,4.6845,4.6718,4.5913,4.5237,4.5125,4.4824,4.4609,4.4584,4.4584,4.4584,4.4584,4.4584,4.4584,4.4584,4.4584,4.4584,4.6301,4.6301,4.6301,4.6246,4.6191,4.6144,4.6128,4.6098,4.6104,4.602,4.5919,4.5922,4.5935,4.5905,4.5838,4.5803,4.5803,4.5803,4.5803,4.58,4.5719,4.5653,4.5545,4.5012,4.4555,4.417,4.3572,4.3143,4.284,4.2724,4.2489,4.2129,4.2129,4.1486,4.0271,4.0173,4.0148,4.0104,4.0074,3.9921,3.9635,3.9571,3.9398,3.9069,3.9703,3.99,3.9548,3.9968,4.0446,4.0891,4.0594,4.0761,4.1534,4.1597,4.1645,0.0,0.0,0.0,0.0,0.0,0.0,0.0,0.0,0.0,0.0,0.0,4.3875,4.3786,4.3609,4.3523,4.3549,4.3532,4.3653,4.3993,4.403,4.4176,4.4534,4.4966,4.5232,4.5232,4.5911,4.6378,4.634,4.6881,4.7272,4.7248,4.6747,4.6512,4.692,4.7037,4.72,4.7645,4.7689,4.7689,4.7689,4.7689,4.7689,4.7657,4.7247,4.684,4.6572,4.5863,4.5254,4.5021,4.4772,4.4598,4.4584,4.4584,4.4584,4.4584,4.4584,4.4584,4.4584,4.4584,4.4584,4.6301,4.6301,4.6301,4.6295,4.6303,4.6232,4.6199,4.6203,4.6206,4.6213,4.6167,4.6044,4.5969,4.5905,4.5838,4.5803,4.5803,4.5803,4.5803,4.5803,4.5803,4.5798,4.5769,4.5758,4.555,4.5222,4.4967,4.4651,4.4353,4.4106,4.366,4.2965,4.2946,4.2593,4.1932,4.1913,4.1783,4.1515,4.1454,4.1416,4.1416,4.1408,4.1049,4.0366,4.1081,4.1156,4.0441,4.1171,4.1653,4.172,4.1096,4.1077,4.1858,4.1906,4.2007,0.0,4.3389,0.0,0.0,0.0,0.0,0.0,0.0,0.0,0.0,4.3945,4.3875,4.3786,4.3727,4.3687,4.3747,4.3779,4.4085,4.4773,4.4847,4.5131,4.581,4.5993,4.6067,4.6067,4.6689,4.7135,4.7142,4.7577,4.7873,4.7824,4.7661,4.7572,4.7671,4.7652,4.7652,4.7689,4.7689,4.7689,4.7689,4.7689,4.7689,4.7646,4.7352,4.6851,4.6483,4.5925,4.5385,4.4944,4.48,4.4679,4.4612,4.4584,4.4584,4.4584,4.4584,4.4584,4.4584,4.4584,4.4584,4.6301,4.6301,4.6301,4.6294,4.6303,4.6232,4.6199,4.6203,4.6206,4.6181,4.6106,4.6027,4.5967,4.5908,4.5818,4.5803,4.5803,4.5803,4.5803,4.5803,4.5803,4.5753,4.5621,4.5476,4.519,4.4812,4.458,4.4353,4.4086,4.4036,4.3931,4.3763,4.3782,4.3689,4.3559,0.0,0.0,0.0,4.1512,4.1466,4.1477,4.1431,4.1357,4.1237,4.1389,0.0,4.1364,4.1497,4.1906,4.2537,4.2433,0.0,0.0,0.0,0.0,0.0,0.0,0.0,0.0,0.0,0.0,0.0,4.4381,4.4282,4.4017,4.3945,4.3875,4.3841,4.4249,4.4531,4.4488,4.5085,4.5498,4.5645,4.5663,4.5736,4.5902,4.648,4.6865,4.6883,4.7513,4.792,4.7795,4.7893,4.7861,4.7759,4.7717,4.7689,4.7689,4.7689,4.7689,4.7689,4.7689,4.7689,4.7689,4.7689,4.7689,4.7668,4.7646,4.7472,4.728,4.6886,4.6382,4.5847,4.5459,4.5008,4.4665,4.4584,4.4584,4.4584,4.4584,4.4584,4.4584,4.4584,4.4584,4.6301,4.6301,4.6301,4.6292,0.0,4.621,4.6215,4.6211,4.6203,4.6144,4.6059,4.6012,4.5953,4.5858,4.5801,4.5803,4.5803,4.5726,4.5719,4.57,4.57,4.5589,4.5405,4.5366,4.5088,4.4605,4.4499,4.4289,4.4013,4.3997,4.3997,4.3997,4.3997,4.3997,4.3997,4.3997,4.3596,4.2797,4.2759,4.271,4.2718,4.2679,4.252,4.2161,4.2525,0.0,0.0,0.0,0.0,0.0,0.0,0.0,0.0,4.3615,0.0,4.4166,4.4192,4.4265,4.4395,4.4409,4.4339,4.4206,4.461,4.4602,4.4013,4.4292,4.4467,4.4403,4.5048,4.5439,4.5413,4.5718,4.6049,4.6443,4.6498,4.6627,4.7058,4.7434,4.7691,4.7709,4.7932,4.808,4.8012,4.7876,4.7798,4.7717,4.7689,4.7689,4.7689,4.7689,4.7689,4.7689,4.7689,4.7689,4.7689,4.7689,4.7689,4.7689,4.7689,4.7461,4.6988,4.6683,4.6274,4.5541,4.5115,4.4865,4.4665,4.4584,4.4584,4.4584,4.4584,4.4584,4.4584,4.4584,4.4584,4.6301,4.6301,4.6299,4.6267,4.6206,4.6205,4.6207,4.6197,4.6197,0.0,0.0,4.5982,4.5916,4.5807,4.5803,4.5803,4.58,4.5685,4.5621,4.56,4.5584,4.5428,4.515,4.522,4.4973,4.4478,4.4436,4.426,4.4013,4.3997,4.3997,4.3997,4.3997,4.3997,4.3997,4.3997,4.3997,4.3997,4.3997,4.3997,4.3997,4.3997,4.3689,4.3047,4.3652,4.3689,4.3058,4.3633,4.3997,4.3986,4.3355,4.3299,4.3931,4.3355,4.3409,4.4221,4.4121,4.4091,4.4303,4.4128,4.4079,4.4228,4.5026,4.5138,4.426,4.4917,4.5317,4.5234,4.5877,4.6321,4.6286,4.6324,4.6599,4.7241,4.7314,4.7581,4.8186,4.8315,4.826,4.8295,4.8141,4.8032,4.8022,4.7847,4.7738,4.7738,4.7728,4.7689,4.7689,4.7689,4.7689,4.7689,4.7689,4.7689,4.7689,4.7689,4.7689,4.7689,4.7689,4.7352,4.6554,4.625,4.583,4.5012,4.4717,4.4706,4.4626,4.4584,4.4584,4.4584,4.4584,4.4584,4.4584,4.4584,4.4584,4.6301,4.63,4.6291,4.626,4.6206,4.6213,4.6196,4.6197,4.6197,4.6113,4.6002,4.5982,4.5935,4.5803,4.5803,4.5803,4.5803,4.577,4.5708,4.56,4.5481,4.5265,4.4931,4.472,4.4525,4.4314,4.4147,4.4041,4.4005,4.3997,4.3997,4.3997,4.3997,4.3997,4.3997,4.3997,4.3997,4.3997,4.3997,4.3997,4.3997,4.3997,4.3968,4.3856,4.3949,4.3968,4.3856,4.3941,4.3997,4.4005,4.3893,4.3893,4.3986,4.3893,4.3898,4.4056,4.401,4.4028,4.4056,4.4036,4.4321,4.5064,4.5862,4.6057,4.545,4.594,4.6217,4.6083,4.675,4.7149,4.7022,4.7517,4.7911,4.8058,4.8141,4.8186,4.8296,4.8315,4.8315,4.8296,4.8228,4.8168,4.8148,4.7986,4.7871,4.785,4.7759,4.7689,4.7689,4.7689,4.7689,4.7689,4.7689,4.7689,4.7689,4.7689,4.7689,4.7689,4.7686,4.7428,4.6782,4.6584,4.6226,4.5359,4.5115,4.4981,4.4679,4.4584,4.4584,4.4584,4.4584,4.4584,4.4584,4.4584,4.4584,4.6297,4.6292,4.6307,4.6273,4.6215,4.6198,4.6162,4.6098,4.6181,4.6134,4.6004,4.5982,4.5916,4.581,4.5803,4.5771,4.5688,4.5617,4.551,4.5381,4.5194,4.4985,4.4694,4.4558,4.4367,4.4154,4.4044,4.3997,4.3997,4.3997,4.3997,4.3997,4.3997,4.3997,4.3997,4.3997,4.3997,4.3997,4.3997,4.3997,4.3997,4.3997,4.3997,4.3997,4.3997,4.3997,4.3997,4.3997,4.3997,4.3997,4.3997,4.3997,4.3997,4.3997,4.3997,4.3997,4.3997,4.4209,4.4674,4.5127,4.5536,4.5937,4.6698,4.7043,4.6759,4.6971,4.7078,4.7036,4.7626,4.7997,4.7914,4.8152,4.8315,4.8315,4.8315,4.8315,4.8315,4.8315,4.8315,4.8305,4.8256,4.8187,4.8187,4.8058,4.7945,4.7902,4.778,4.7717,4.7689,4.7689,4.7689,4.7689,4.7689,4.7689,4.7689,4.7689,4.7689,4.7689,4.7439,4.7055,4.6548,4.6274,4.5754,4.5102,4.4934,4.4838,4.4612,4.4584,4.4584,4.4584,4.4584,4.4584,4.4584,4.4584,4.4584,4.6264,4.6303,4.6213,4.6141,4.609,4.6131,4.6067,4.5994,4.6093,4.6054,4.5942,4.5964,4.588,4.5752,4.5723,4.5653,4.555,4.5457,4.5287,4.5115,4.4927,4.4714,4.4468,4.4426,4.425,4.4028,4.3997,4.3997,4.3997,4.3997,4.3997,4.3997,4.3997,4.3997,4.3997,4.3997,4.3997,4.3997,4.3997,4.3997,4.3997,4.3997,4.3997,4.3997,4.3997,4.3997,4.3997,4.3997,4.3997,4.3997,4.3997,4.3997,4.3997,4.3997,4.4079,4.4265,4.4302,4.4674,4.5509,4.6327,4.6773,4.6791,4.7516,4.7961,4.7953,4.7877,4.7842,4.7941,4.8254,4.8486,4.8467,4.8383,4.8315,4.8315,4.8315,4.8315,4.8315,4.8315,4.8315,4.8287,4.8257,4.8226,4.8189,4.812,4.8018,4.7912,4.7798,4.7717,4.7689,4.7689,4.7689,4.7689,4.7689,4.7689,4.7689,4.7572,4.7511,4.7511,4.7073,4.6537,4.6024,4.5563,4.5165,4.4759,4.4626,4.4626,4.4598,4.4584,4.4584,4.4584,4.4584,4.4584,4.4584,4.4584,4.4584,4.6139,4.6224,4.5983,4.5825,4.5777,4.5953,4.5958,4.592,4.5922,4.5847,4.5724,4.5786,4.5731,4.5598,4.5512,4.5448,4.5424,4.541,4.5222,4.4933,4.4795,4.457,4.431,4.4143,4.4017,4.3997,4.3997,4.3997,4.3997,4.3997,4.3997,4.3997,4.3997,4.3997,4.3997,4.3997,4.3997,4.3997,4.3997,4.3997,4.3997,4.3997,4.3997,4.3997,4.3997,4.3997,4.3997,4.3997,4.3997,4.3997,4.3997,4.4023,4.4023,4.4023,4.4358,4.5109,4.5183,4.5536,4.6327,4.7125,4.759,4.7646,4.8314,4.8733,4.8751,4.8602,4.8503,4.8503,4.8522,4.8495,4.8363,4.8316,4.8315,4.8315,4.8315,4.8315,4.8315,4.8315,4.8315,4.8315,4.8305,4.8277,4.8286,4.8208,4.8088,4.7922,4.778,4.7689,4.7689,4.7689,4.7689,4.7689,4.7689,4.7678,4.7625,4.7276,4.7028,4.6931,4.6513,4.6012,4.5571,4.5342,4.5152,4.472,4.4584,4.4584,4.4584,4.4584,4.4584,4.4584,4.4584,4.4584,4.4584,4.4584,4.4584,4.592,4.5974,4.5859,4.576,4.5717,4.5747,4.5696,4.5611,4.5675,4.5615,4.5417,4.5442,4.5442,4.547,4.5429,4.5356,4.5284,4.5284,4.5104,4.4783,4.4648,4.4484,4.43,4.4108,4.3997,4.3997,4.3997,4.3997,4.3997,4.3997,4.3997,4.3997,4.3997,4.3997,4.3997,4.3997,4.3997,4.3997,4.3997,4.3997,4.3997,4.3997,4.3997,4.3997,4.3997,4.3997,4.3997,4.3997,4.3997,4.3997,4.3997,4.4246,4.4748,4.4774,4.5138,4.5963,4.6475,4.6865,4.7181,4.7961,4.8407,4.8407,4.8723,4.889,4.8881,4.8795,4.8697,4.8605,4.8504,4.8411,4.8401,4.8353,4.8315,4.8315,4.8315,4.8315,4.8315,4.8315,4.8315,4.8315,4.8315,4.8315,4.8277,4.8161,4.8038,4.7912,4.7798,4.7699,4.7689,4.7689,4.7689,4.7689,4.7689,4.7543,4.728,4.6782,4.6489,4.6346,4.5992,4.5498,4.5359,4.5039,4.48,4.4612,4.4598,4.4584,4.4584,4.4584,4.4584,4.4584,4.4584,4.4584,4.4584,4.4584,4.4584,4.5751,4.5793,4.5749,4.5657,4.556,4.5538,4.5466,4.5366,4.5447,4.5385,4.521,4.5156,4.5171,4.5251,4.527,4.5221,4.5131,4.512,4.4967,4.4699,4.4592,4.4454,4.43,4.4154,4.4051,4.4005,4.3997,4.3997,4.3997,4.3997,4.3997,4.3997,4.3997,4.3997,4.3997,4.3997,4.3997,4.3997,4.3997,4.3997,4.3997,4.3997,4.3997,4.3997,4.3997,4.3997,4.3997,4.3997,4.4116,4.4358,4.4339,4.4748,4.5555,4.5648,4.5992,4.6791,4.7571,4.8036,4.8036,4.8574,4.889,4.889,4.889,4.8891,4.8865,4.8786,4.8697,4.8587,4.8411,4.8353,4.8419,4.8363,4.8315,4.8315,4.8315,4.8315,4.8315,4.8315,4.8315,4.8315,4.8315,4.8305,4.8248,4.811,4.7947,4.7902,4.778,4.7689,4.7689,4.7689,4.7657,4.75,4.7363,4.718,4.6897,4.6489,4.614,4.5792,4.5446,4.5129,4.5115,4.4789,4.4598,4.4598,4.4598,4.4584,4.4584,4.4584,4.4584,4.4584,4.4584,4.4584,4.4584,4.4584,4.4584,4.563,4.5759,4.5575,4.5424,4.5256,4.5352,4.5343,4.5198,4.5221,4.5213,4.5156,4.5009,4.4925,4.4943,4.4961,4.4925,4.4932,4.4919,4.4858,4.4705,4.4667,4.4551,4.4333,4.4292,4.4184,4.4013,4.3997,4.3997,4.3997,4.3997,4.3997,4.3997,4.3997,4.3997,4.3997,4.3997,4.3997,4.3997,4.3997,4.4023,4.4042,4.4042,4.4079,4.4146,4.4023,4.4023,4.4061,4.4016,4.4395,4.522,4.5239,4.561,4.6354,4.6475,4.6847,4.7608,4.8389,4.8816,4.8797,4.8853,4.8881,4.89,4.8873,4.8865,4.8786,4.8697,4.8578,4.8504,4.8391,4.8306,4.8334,4.8324,4.8315,4.8315,4.8315,4.8315,4.8315,4.8315,4.8315,4.8315,4.8296,4.8267,4.8189,4.8026,4.7904,4.7861,4.777,4.7646,4.7586,4.7636,4.7396,4.6976,4.6625,4.6346,4.6695,4.6213,4.5754,4.5477,4.5052,4.4696,4.4657,4.4615,4.4598,4.4584,4.4584,4.4584,4.4584,4.4584,4.4584,4.4584,4.4584,4.4584,4.4584,4.4584,4.4584,4.541,4.547,4.5361,4.5269,4.5203,4.517,4.5113,4.5076,4.5034,4.5024,4.4997,4.4944,4.4895,4.4895,4.4895,4.4895,4.4895,4.4895,4.4796,4.4611,4.4565,4.4411,4.4139,4.4116,4.4067,4.4013,4.3997,4.3997,4.3997,4.3997,4.3997,4.3997,4.3997,4.3997,4.3997,4.3997,4.3997,4.4016,4.3997,4.4265,4.4785,4.4849,4.5064,4.5517,4.4544,4.4265,4.483,4.4822,4.5212,4.6038,4.6067,4.642,4.72,4.7749,4.8147,4.8444,4.876,4.889,4.889,4.889,4.8883,4.883,4.8821,4.8804,4.8678,4.8596,4.8513,4.8476,4.8372,4.8306,4.8315,4.8315,4.8315,4.8315,4.8315,4.8315,4.8315,4.8315,4.8315,4.8305,4.8248,4.8207,4.806,4.7957,4.7871,4.7731,4.7428,4.7225,4.7118,4.692,4.6648,4.6442,4.622,4.6037,4.58,4.5455,4.5056,4.4951,4.4709,4.4654,4.4598,4.4598,4.4584,4.4584,4.4584,4.4584,4.4584,4.4584,4.4584,4.4584,4.4584,4.4584,4.4584,4.4584,4.4584,4.5291,4.527,4.5213,4.5189,4.515,4.5045,4.4979,4.4974,4.4913,4.4895,4.4895,4.4895,4.4895,4.4895,4.4895,4.4895,4.4895,4.4889,4.4789,4.459,4.4577,4.4385,4.4147,4.409,4.4226,4.4443,4.4588,4.4589,4.4497,4.4489,4.4497,4.4499,4.4489,4.4539,4.4605,4.464,4.4681,4.478,4.483,4.5119,4.5621,4.5695,4.5926,4.6252,4.5398,4.5064,4.5658,4.5677,4.6075,4.6735,4.6884,4.7256,4.8036,4.8593,4.889,4.889,4.889,4.889,4.8881,4.8883,4.8839,4.8796,4.8741,4.8687,4.8587,4.8522,4.8476,4.8428,4.8363,4.8315,4.8315,4.8315,4.8315,4.8315,4.8315,4.8315,4.8315,4.8315,4.8277,4.8257,4.8179,4.803,4.7759,4.7621,4.7428,4.7225,4.6822,4.666,4.656,4.6358,4.6,4.5893,4.5825,4.558,4.5324,4.4961,4.48,4.4709,4.4668,4.4612,4.4584,4.4584,4.4584,4.4584,4.4584,4.4584,4.4584,4.4584,4.4584,4.4584,4.4584,4.4584,4.4584,4.4584,4.4584,4.5341,4.535,4.5235,4.522,4.5147,4.5029,4.4955,4.4926,4.4895,4.4895,4.4895,4.4895,4.4895,4.4914,4.5009,4.4965,4.4934,4.5041,4.4978,4.4798,4.474,4.4639,4.4423,4.4418,4.4676,4.5197,4.57,4.5728,4.5377,4.534,4.5349,4.5439,4.5387,4.5498,4.5936,4.5832,4.6074,4.6232,4.6242,4.6382,4.6513,4.6513,4.6587,4.6661,4.6531,4.6531,4.6568,4.6531,4.6884,4.759,4.7701,4.8091,4.8686,4.8881,4.889,4.889,4.889,4.8881,4.8891,4.883,4.8804,4.8751,4.866,4.8587,4.8513,4.8476,4.8438,4.8335,4.8306,4.8315,4.8315,4.8315,4.8315,4.8315,4.8315,4.8315,4.8315,4.8315,4.8267,4.8159,4.8002,4.771,4.7244,4.6988,4.6764,4.6418,4.6177,4.6103,4.6079,4.5955,4.5792,4.5477,4.5307,4.5138,4.4852,4.4598,4.4598,4.4598,4.4612,4.4584,4.4584,4.4584,4.4584,4.4584,4.4584,4.4584,4.4584,4.4584,4.4584,4.4584,4.4584,4.4584,4.4584,4.4584,4.4584,4.6916,4.6763,4.6189,4.5925,4.5802,4.5209,4.4913,4.4895,4.4895,4.4895,4.4895,4.4895,4.4895,4.5066,4.5483,4.5589,4.5315,4.5815,4.589,4.543,4.5162,4.5193,4.5357,4.5236,4.5223,4.5425,4.5571,4.5624,4.5547,4.5518,4.5501,4.5539,4.5754,4.5874,4.6047,4.6212,4.6409,4.6496,4.6513,4.6754,4.7256,4.733,4.7571,4.8091,4.8147,4.8147,4.811,4.7608,4.772,4.8454,4.851,4.864,4.8844,4.889,4.889,4.889,4.889,4.8874,4.884,4.8823,4.8724,4.8615,4.856,4.8476,4.8391,4.8372,4.8353,4.8306,4.8315,4.8315,4.8315,4.8315,4.8315,4.8315,4.8315,4.8315,4.8315,4.8287,4.8075,4.7733,4.7548,4.7208,4.6712,4.643,4.6286,4.6049,4.5762,4.5563,4.5524,4.5341,4.5069,4.4841,4.48,4.4835,4.4676,4.4584,4.4584,4.4584,4.4584,4.4584,4.4584,4.4584,4.4584,4.4584,4.4584,4.4584,4.4584,4.4584,4.4584,4.4584,4.4584,4.4584,4.4584,4.4584,4.4584,4.7656,4.7502,4.6966,4.6745,4.6606,4.5747,4.5388,4.5388,4.5369,4.5388,4.5445,4.5729,4.5735,4.5778,4.6237,4.6142,4.575,4.6265,4.6371,4.611,4.5593,4.5572,4.5838,4.5944,4.587,4.589,4.6098,4.6164,4.607,4.606,4.606,4.6101,4.6255,4.6439,4.6556,4.6755,4.6902,4.7038,4.7162,4.7464,4.7879,4.8077,4.8389,4.8807,4.889,4.889,4.8872,4.8399,4.837,4.8797,4.889,4.889,4.889,4.889,4.8891,4.8865,4.8848,4.8812,4.8732,4.8697,4.8633,4.8504,4.8457,4.8391,4.8334,4.8315,4.8315,4.8315,4.8315,4.8315,4.8315,4.8315,4.8315,4.8315,4.8315,4.8315,4.8277,4.8142,4.7895,4.7496,4.7208,4.674,4.6274,4.5997,4.584,4.5631,4.5298,4.5048,4.4998,4.4814,4.4682,4.4615,4.4654,4.4651,4.4609,4.4584,4.4584,4.4584,4.4584,4.4584,4.4584,4.4584,4.4584,4.4584,4.4584,4.4584,4.4584,4.4584,4.4584,4.4584,4.4584,4.4584,4.4584,4.4584,4.4584,4.7754,4.7656,4.7587,4.753,4.7372,4.6607,4.6266,4.6266,4.6285,4.6266,4.6398,4.6891,4.7049,4.6868,4.6895,4.6676,4.6207,4.6314,4.6589,4.6626,4.6202,4.5869,4.5876,4.6345,4.6494,4.6469,4.6971,4.7172,4.6829,4.6825,4.7002,4.6885,4.6932,4.7156,4.7322,4.7482,4.7627,4.7846,4.8141,4.8236,4.8319,4.8586,4.8766,4.8794,4.8812,4.8829,4.8802,4.8781,4.8816,4.889,4.889,4.889,4.889,4.8881,4.8856,4.8813,4.8796,4.8715,4.8615,4.8569,4.8504,4.8466,4.8372,4.8315,4.8315,4.8315,4.8315,4.8315,4.8315,4.8315,4.8315,4.8315,4.8305,4.8248,4.82,4.82,4.8201,4.7836,4.7453,4.7255,4.692,4.6412,4.5806,4.5606,4.5336,4.5005,4.4759,4.472,4.4679,4.4654,4.4612,4.4584,4.4584,4.4584,4.4584,4.4584,4.4584,4.4584,4.4584,4.4584,4.4584,4.4584,4.4584,4.4584,4.4584,4.4584,4.4584,4.4584,4.4584,4.4584,4.4584,4.4584,4.4584,4.4584,4.4584,4.9347,4.9211,4.8623,4.8364,4.8237,4.746,4.7074,4.7074,4.7074,4.7055,4.7144,4.7308,4.7207,4.6847,4.7375,4.7183,4.668,4.6975,4.7116,4.6971,4.6816,4.6651,4.6614,4.6776,4.6869,4.6852,4.7024,4.71,4.7009,4.7009,4.7009,4.702,4.7216,4.7381,4.7522,4.7694,4.7891,4.7982,4.8043,4.8103,4.8113,4.8209,4.822,4.8267,4.843,4.8523,4.855,4.8776,4.8881,4.889,4.889,4.889,4.8873,4.8839,4.8813,4.8778,4.8706,4.8624,4.855,4.8522,4.8457,4.8372,4.8343,4.8315,4.8315,4.8315,4.8315,4.8315,4.8315,4.8305,4.8315,4.8267,4.8132,4.7864,4.7764,4.7754,4.7695,4.7349,4.6913,4.6418,4.6208,4.5797,4.5345,4.5069,4.4981,4.4734,4.4626,4.4584,4.4584,4.4584,4.4584,4.4584,4.4584,4.4584,4.4584,4.4584,4.4584,4.4584,4.4584,4.4584,4.4584,4.4584,4.4584,4.4584,4.4584,4.4584,4.4584,4.4584,4.4584,4.4584,4.4584,4.4584,4.4584,4.4584,4.4584,4.9965,4.9834,4.9237,4.9088,4.9063,4.8122,4.7795,4.7888,4.7756,4.7689,4.7711,4.7855,4.7676,4.7364,4.7703,4.7508,4.692,4.7265,4.7288,4.7053,4.6989,4.696,4.6985,4.6991,4.7009,4.7009,4.7009,4.7009,4.7009,4.7009,4.7009,4.7032,4.7194,4.7283,4.7283,4.7461,4.7589,4.76,4.7705,4.7788,4.7788,4.7931,4.8002,4.8002,4.8065,4.8018,4.797,4.8261,4.8569,4.8767,4.8866,4.883,4.8776,4.8732,4.8697,4.867,4.8615,4.8532,4.8438,4.8428,4.8372,4.8316,4.8315,4.8315,4.8315,4.8315,4.8315,4.8315,4.8315,4.8209,4.8024,4.7854,4.7598,4.7335,4.7138,4.7115,4.727,4.6879,4.6418,4.6017,4.5691,4.5442,4.494,4.4845,4.4762,4.4692,4.4657,4.4612,4.4584,4.4584,4.4584,4.4584,4.4584,4.4584,4.4584,4.4584,4.4584,4.4584,4.4584,4.4584,4.4584,4.4584,4.4584,4.4584,4.4584,4.4584,4.4584,4.4584,4.4584,4.4584,4.4584,4.4584,4.4584,4.4584,4.4584,4.9852,4.9757,4.9465,4.9499,4.9542,4.8653,4.8333,4.857,4.8277,4.8156,4.8198,4.8451,4.8236,4.8056,4.783,4.7596,4.7147,4.7187,4.7109,4.7032,4.7009,4.7009,4.7009,4.7009,4.7009,4.7009,4.7009,4.7009,4.7009,4.7009,4.7009,4.7002,4.7014,4.7002,4.7059,4.7059,4.702,4.7116,4.7338,4.7446,4.7472,4.7652,4.7736,4.7658,4.763,4.753,4.752,4.7728,4.8106,4.855,4.8715,4.8732,4.8642,4.8605,4.8587,4.8532,4.8513,4.8428,4.8343,4.8334,4.8306,4.8315,4.8315,4.8315,4.8315,4.8315,4.8315,4.8315,4.8315,4.8103,4.7674,4.7204,4.6908,4.6771,4.6435,4.6363,4.6507,4.6346,4.6045,4.586,4.5433,4.519,4.5005,4.4899,4.4789,4.4682,4.4643,4.4598,4.4584,4.4584,4.4584,4.4584,4.4584,4.4584,4.4584,4.4584,4.4584,4.4584,4.4584,4.4584,4.4584,4.4584,4.4584,4.4584,4.4584,4.4584,4.4584,4.4584,4.4584,4.4584,4.4584,4.4584,4.4584,4.4584,4.4584,4.9042,4.9036,4.8952,4.8969,4.8982,4.8756,4.869,4.8756,4.8558,4.8426,4.8475,4.8502,4.8206,4.7781,4.771,4.7485,4.71,4.7054,4.702,4.702,4.7009,4.7009,4.7009,4.7009,4.7009,4.7009,4.7009,4.7009,4.7009,4.7009,4.7009,4.7009,4.7009,4.7009,4.7009,4.7009,4.7009,4.702,4.7082,4.7133,4.7116,4.7183,4.7154,4.6972,4.7066,4.7302,4.7477,4.7604,4.7583,4.7669,4.8212,4.8596,4.8486,4.8514,4.8486,4.8438,4.84,4.8343,4.8296,4.8277,4.8305,4.8258,4.8209,4.8315,4.8315,4.8267,4.8277,4.8287,4.8305,4.8053,4.7506,4.6799,4.6435,4.6217,4.5912,4.5598,4.558,4.5598,4.5546,4.5402,4.5266,4.5096,4.4886,4.4831,4.4751,4.4668,4.4626,4.4598,4.4584,4.4584,4.4584,4.4584,4.4584,4.4584,4.4584,4.4584,4.4584,4.4584,4.4584,4.4584,4.4584,4.4584,4.4584,4.4584,4.4584,4.4584,4.4584,4.4584,4.4584,4.4584,4.4584,4.4584,4.4584,4.4584,4.4584,4.8799,4.8781,4.8632,4.8658,4.8746,4.8577,4.8558,4.8621,4.8375,4.8263,4.8197,4.802,4.7733,4.7471,4.7396,4.7207,4.7059,4.7009,4.7009,4.7009,4.7009,4.7009,4.7009,4.7009,4.7009,4.7009,4.7009,4.7009,4.7009,4.7009,4.7009,4.7009,4.6998,4.7009,4.7009,4.6986,4.7009,4.7009,4.6998,4.6963,4.6824,4.6807,4.6602,4.632,4.6387,4.6543,4.6531,4.6804,4.6793,4.69,4.7452,4.7911,4.7889,4.8009,4.8114,4.8103,4.8267,4.8287,4.8287,4.8094,4.7937,4.7965,4.7785,4.7671,4.7723,4.7816,4.7826,4.7754,4.7754,4.7695,4.7015,4.6321,4.5879,4.5696,4.5481,4.5261,4.515,4.5203,4.522,4.5073,4.4988,4.4882,4.4776,4.472,4.4709,4.4626,4.4612,4.4584,4.4584,4.4584,4.4584,4.4584,4.4584,4.4584,4.4584,4.4584,4.4584,4.4584,4.4584,4.4584,4.4584,4.4584,4.4584,4.4584,4.4584,4.4584,4.4584,4.4584,4.4584,4.4584,4.4584,4.4584,4.4584,4.4584,4.4584,4.8604,4.854,4.8269,4.8308,4.8495,4.8146,4.8118,4.8282,4.798,4.7787,4.7733,4.7349,4.7249,4.7156,4.7082,4.7002,4.7009,4.7009,4.7009,4.7009,4.7009,4.7009,4.7009,4.7009,4.7009,4.7009,4.7009,4.7009,4.7009,4.6998,4.6957,4.6934,4.694,4.6853,4.6865,4.6865,4.6819,4.6795,4.6784,4.6737,4.6578,4.6542,4.6308,4.6057,4.5907,4.5875,4.5849,4.6025,4.6132,4.6112,4.6519,4.6683,4.6816,4.7208,4.7488,4.7517,4.7795,4.7905,4.7864,4.7692,4.7485,4.7474,4.7182,4.6965,4.7055,4.7259,4.7291,4.7193,4.7149,4.7031,4.6254,4.5765,4.5406,4.5247,4.5177,4.5113,4.5032,4.5056,4.4991,4.4886,4.4858,4.4789,4.4679,4.4626,4.4598,4.4584,4.4584,4.4584,4.4584,4.4584,4.4584,4.4584,4.4584,4.4584,4.4584,4.4584,4.4584,4.4584,4.4584,4.4584,4.4584,4.4584,4.4584,4.4584,4.4584,4.4584,4.4584,4.4584,4.4584,4.4584,4.4584,4.4584,4.4584,4.4584,4.4584,4.7648,4.7553,4.7496,4.75,4.7553,4.7457,4.7482,4.7489,4.741,4.7316,4.7312,4.7116,4.7043,4.7032,4.7032,4.7009,4.7009,4.7009,4.7009,4.7009,4.7009,4.7009,4.6945,4.6945,4.6957,4.7009,4.6957,4.6934,4.6957,4.6998,4.6853,4.6708,4.6661,4.659,4.6447,4.6345,4.6423,4.6447,4.6435,4.6374,4.6301,4.6223,4.6186,4.5988,4.5837,4.5739,4.5727,4.5778,4.5765,4.5563,4.5606,4.5684,4.592,4.6601,4.6968,4.7053,4.7171,4.732,4.7248,4.7104,4.7033,4.701,4.6863,4.6822,4.6863,4.6954,4.6931,4.6828,4.6572,4.6297,4.598,4.5542,4.5234,4.5086,4.5063,4.4991,4.4886,4.4858,4.4872,4.4776,4.4779,4.4751,4.4654,4.4584,4.4584,4.4584,4.4584,4.4584,4.4584,4.4584,4.4584,4.4584,4.4584,4.4584,4.4584,4.4584,4.4584,4.4584,4.4584,4.4584,4.4584,4.4584,4.4584,4.4584,4.4584,4.4584,4.4584,4.4584,4.4584,4.4584,4.4584,4.4584,4.4584,4.4584,4.4584,4.7363,4.7309,4.7309,4.7309,4.728,4.7254,4.7249,4.7227,4.7145,4.71,4.7077,4.7032,4.7009,4.7009,4.7009,4.7009,4.7009,4.7009,4.7009,4.7009,4.7009,4.6911,4.6819,4.6795,4.6696,4.6625,4.659,4.6684,4.6784,4.6784,4.6637,4.6459,4.6398,4.6308,4.6223,4.6223,4.6186,4.6186,4.6174,4.6112,4.6005,4.5875,4.5803,4.5752,4.5688,4.5598,4.5602,4.5585,4.5537,4.5437,4.541,4.5414,4.5559,4.5832,4.6316,4.6513,4.6736,4.6886,4.6817,4.6713,4.6525,4.6489,4.6327,4.6132,4.62,4.6309,4.6519,4.6435,4.61,4.5752,4.5632,4.5415,4.5234,4.5063,4.5009,4.4899,4.4748,4.4723,4.4709,4.4709,4.4696,4.4668,4.4626,4.4584,4.4584,4.4584,4.4584,4.4584,4.4584,4.4584,4.4584,4.4584,4.4584,4.4584,4.4584,4.4584,4.4584,4.4584,4.4584,4.4584,4.4584,4.4584,4.4584,4.4584,4.4584,4.4584,4.4584,4.4584,4.4584,4.4584,4.4584,4.4584,4.4584,4.4584,4.4499,4.7247,4.7254,4.7243,4.7225,4.7232,4.719,4.7156,4.7133,4.7054,4.7009,4.7009,4.7009,4.7009,4.7009,4.7009,4.7009,4.7009,4.7009,4.6957,4.6888,4.6888,4.6784,4.6578,4.6506,4.6429,4.632,4.6289,4.6308,4.6483,4.6518,4.6357,4.6186,4.6124,4.6075,4.6013,4.5955,4.6038,4.6038,4.6043,4.593,4.5714,4.5541,4.5414,4.5414,4.5414,4.5423,4.5437,4.5437,4.5437,4.5427,4.5414,4.5414,4.5414,4.5414,4.5602,4.6013,4.6411,4.656,4.6477,4.6278,4.6025,4.6013,4.5637,4.5489,4.5528,4.5824,4.6025,4.595,4.5714,4.5393,4.5336,4.53,4.5154,4.4981,4.4886,4.4845,4.4679,4.4612,4.4626,4.4612,4.4584,4.4584,4.4584,4.4584,4.4584,4.4584,4.4584,4.4584,4.4584,4.4584,4.4584,4.4584,4.4584,4.4584,4.4584,4.4584,4.4584,4.4584,4.4584,4.4584,4.4584,4.4584,4.4584,4.4584,4.4584,4.4584,4.4584,4.4567,4.4584,4.4584,4.4584,4.4584,4.4584,4.433,4.4079,4.7145,4.7037,4.7054,4.7025,4.7054,4.7043,4.7032,4.7032,4.7009,4.7009,4.7009,4.7009,4.7009,4.7009,4.7009,4.7009,4.6986,4.6945,4.6824,4.6672,4.6637,4.6506,4.6289,4.6247,4.6198,4.6087,4.6124,4.6211,4.6211,4.6223,4.6112,4.5917,4.5824,4.5748,4.5628,4.5628,4.5502,4.5528,4.5528,4.5498,4.5459,4.5441,4.5427,4.5414,4.5414,4.5414,4.5414,4.5414,4.5414,4.5414,4.5414,4.5414,4.5414,4.5414,4.541,4.5489,4.5567,4.5589,4.5662,4.5624,4.5589,4.5602,4.5437,4.5397,4.5423,4.5432,4.5563,4.5485,4.5397,4.5304,4.5127,4.509,4.4896,4.4803,4.4737,4.4709,4.4615,4.4584,4.4584,4.4584,4.4584,4.4584,4.4584,4.4584,4.4584,4.4584,4.4584,4.4584,4.4584,4.4584,4.4584,4.4584,4.4584,4.4584,4.4584,4.4584,4.4584,4.4584,4.4584,4.4584,4.4584,4.4584,4.4584,4.4584,4.4533,4.4448,4.4347,4.4381,4.4516,4.4465,4.4296,4.4398,4.4584,4.4181,4.3558,4.7054,4.7009,4.7009,4.7009,4.7009,4.7009,4.7009,4.7009,4.7009,4.7009,4.7009,4.7009,4.7009,4.6968,4.7009,4.6911,4.6807,4.6754,4.6625,4.6393,4.6332,4.6193,4.6025,4.5963,4.5942,4.5803,4.5739,4.5701,4.5778,4.5892,4.5854,4.5628,4.5572,4.552,4.541,4.5414,4.5427,4.5441,4.5427,4.5427,4.5414,4.5414,4.5414,4.5414,4.5414,4.5414,4.5414,4.5414,4.5414,4.5414,4.5414,4.5414,4.5414,4.5414,4.5397,4.5427,4.5427,4.5437,4.5423,4.5414,4.5414,4.5371,4.5344,4.5274,4.5274,4.5287,4.5287,4.53,4.5207,4.5113,4.5019,4.5022,4.4899,4.4776,4.4668,4.4626,4.4629,4.4598,4.4584,4.4584,4.4584,4.4584,4.4584,4.4584,4.4584,4.4584,4.4584,4.4584,4.4584,4.4584,4.4584,4.4584,4.4584,4.4584,4.4584,4.4584,4.4584,4.4584,4.4584,4.4584,4.4584,4.4584,4.4432,4.4262,4.4062,4.4012,4.4012,4.4127,4.4228,4.4093,4.3927,4.3842,4.3738,4.3281,4.2692,4.7009,4.7009,4.7009,4.7009,4.7009,4.7009,4.7009,4.698,4.6911,4.6922,4.6934,4.6865,4.6784,4.6772,4.6684,4.6566,4.6506,4.6393,4.6168,4.6008,4.5895,4.5743,4.5589,4.5555,4.5615,4.5401,4.5489,4.5476,4.5498,4.5559,4.5602,4.5414,4.545,4.541,4.541,4.5414,4.5414,4.5414,4.5414,4.5414,4.5414,4.5414,4.5414,4.5414,4.5414,4.5414,4.5414,4.5414,4.5414,4.5414,4.5414,4.5414,4.5414,4.5357,4.5371,4.5371,4.5371,4.5327,4.5357,4.5371,4.5384,4.5327,4.5287,4.5203,4.5203,4.5177,4.5136,4.5154,4.5086,4.5005,4.4951,4.4954,4.4845,4.4762,4.4692,4.4651,4.4626,4.4598,4.4584,4.4584,4.4584,4.4584,4.4584,4.4584,4.4584,4.4584,4.4584,4.4584,4.4584,4.4584,4.4584,4.4584,4.4584,4.4584,4.4584,4.4584,4.4584,4.4482,4.4482,4.4347,4.4195,4.4093,4.3958,4.3775,4.3521,4.3335,4.3166,4.3538,4.3873,4.3453,4.3098,4.2878,4.2642,4.2236,4.1843,4.7009,4.7009,4.7009,4.6998,4.6968,4.7009,4.698,4.6899,4.6725,4.6731,4.6778,4.6501,4.6259,4.6168,4.602,4.5995,4.6144,4.5759,4.5433,4.5254,4.5165,4.5045,4.4994,4.5136,4.5344,4.5287,4.5194,4.5238,4.5344,4.5177,4.5327,4.5414,4.5344,4.5384,4.5414,4.5414,4.5294,4.5272,4.5238,4.5203,4.5186,4.5186,4.519,4.5255,4.5311,4.5397,4.538,4.5221,4.5108,4.5091,4.5043,4.503,4.4918,4.4869,4.4869,4.4909,4.4882,4.4812,4.4812,4.515,4.53,4.523,4.519,4.5167,4.5127,4.5059,4.5032,4.5005,4.4968,4.4899,4.4845,4.4803,4.4751,4.4709,4.4651,4.464,4.4598,4.4598,4.4584,4.4584,4.4584,4.4584,4.4584,4.4584,4.4584,4.4584,4.4584,4.4584,4.4584,4.4584,4.4584,4.4584,4.4584,4.4584,4.4584,4.4499,4.4279,4.4127,4.4059,4.3792,4.3524,4.344,4.3352,4.298,4.2692,4.2506,4.2337,4.2435,4.2469,4.2422,4.2269,4.21,4.1847,4.1521,4.1048,4.6917,4.6772,4.676,4.676,4.676,4.676,4.6661,4.6518,4.641,4.6217,4.6059,4.5847,4.5614,4.5373,4.5255,4.5127,4.5087,4.4926,4.4653,4.449,4.4381,4.4356,4.4387,4.4443,4.4513,4.4586,4.4572,4.4544,4.4516,4.4642,4.4541,4.4638,4.5069,4.5357,4.5414,4.531,4.516,4.4824,4.4699,4.4561,4.4074,4.4057,4.4057,4.4039,4.4057,4.4044,4.4022,4.4039,4.3975,4.3976,4.3997,4.3997,4.3979,4.3897,4.3897,4.3953,4.3914,4.3827,4.3941,4.4544,4.5163,4.5022,4.5019,4.5025,4.4923,4.4896,4.4869,4.4858,4.482,4.4734,4.4692,4.4682,4.4657,4.4612,4.4584,4.4584,4.4584,4.4584,4.4584,4.4584,4.4584,4.4584,4.4584,4.4584,4.4584,4.4584,4.4584,4.4584,4.4584,4.4533,4.4516,4.4398,4.4364,4.4296,4.4279,4.411,4.3893,4.3724,4.3586,4.32,4.2831,4.2743,4.2587,4.2215,4.1894,4.1711,4.1491,4.1183,4.1204,4.1465,4.1495,4.1373,4.1098,4.0815,4.0481,4.6453,4.6266,4.6121,4.6236,4.6453,4.6495,4.6278,4.6003,4.5907,4.5537,4.5077,4.5033,4.4882,4.4619,4.4453,4.4443,4.4308,4.4152,4.3982,4.3852,4.381,4.3812,4.3839,4.3972,4.4131,4.4001,4.4016,4.4059,4.4117,4.403,4.4088,4.4288,4.4583,4.4865,4.4961,4.5119,4.4915,4.4547,4.4277,4.4108,4.3621,4.3379,4.3305,4.3298,4.3294,4.3286,4.3278,4.3305,4.3207,4.3126,4.3053,4.2963,4.2847,4.2761,4.2748,4.2731,4.2701,4.2632,4.2909,4.3443,4.4335,4.4087,4.4422,4.4456,4.4511,4.4609,4.4734,4.472,4.4654,4.4584,4.4567,4.4612,4.4612,4.4584,4.4584,4.4584,4.4584,4.4584,4.4584,4.4584,4.4584,4.4584,4.4584,4.4584,4.455,4.455,4.4584,4.4584,4.4584,4.4499,4.4381,4.4228,4.4059,4.3975,4.3873,4.3453,4.3098,4.3047,4.2858,4.2452,4.2151,4.2033,4.1728,4.1284,4.1014,4.0899,4.0755,4.0573,4.0598,4.0704,4.0704,4.0704,4.0577,4.0345,4.0218,4.5533,4.5438,4.5049,4.5369,4.6057,4.6204,4.589,4.542,4.5197,4.4742,4.4171,4.4112,4.4069,4.3941,4.3737,4.3722,4.3766,4.3515,4.3336,4.3321,4.3323,4.3323,4.3426,4.3604,4.371,4.3927,4.3841,4.3754,4.3871,4.3754,4.3827,4.3812,4.3869,4.4073,4.4088,4.4499,4.466,4.4593,4.4296,4.4022,4.3627,4.309,4.2846,4.2735,4.2643,4.2541,4.2512,4.2466,4.2385,4.2339,4.239,4.2351,4.2347,4.224,4.2287,4.2432,4.2359,4.2354,4.2456,4.2554,4.2699,4.3062,4.352,4.3671,4.3814,4.4116,4.4423,4.4267,4.4398,4.4499,4.455,4.4584,4.4584,4.4584,4.4584,4.4584,4.4584,4.4584,4.4584,4.4584,4.4584,4.4584,4.4584,4.4567,4.4516,4.4533,4.4567,4.4533,4.4432,4.4279,4.4059,4.367,4.3436,4.3318,4.3081,4.2638,4.2333,4.2286,4.2023,4.1557,4.1308,4.115,4.0805,4.0379,4.035,4.04,4.0235,4.0024,4.0124,4.0224,4.0103,4.0048,3.9969,3.9948,3.991,4.4932,4.4749,4.4595,4.4612,4.4753,4.4943,4.4821,4.4535,4.4367,4.404,4.3619,4.3545,4.3321,4.3127,4.3051,4.3052,4.3035,4.3005,4.2835,4.2851,4.2851,4.282,4.2912,4.3004,4.3112,4.3081,4.3081,4.3127,4.3035,4.3112,4.3081,4.3034,4.3019,4.3246,4.3812,4.4152,4.4046,4.353,4.3135,4.2752,4.223,4.1795,4.1511,4.1478,4.1394,4.1361,4.1366,4.1316,4.1253,4.1189,4.1193,4.1146,4.1091,4.095,4.0993,4.104,4.0938,4.0904,4.0904,4.1002,4.146,4.2079,4.2605,4.2799,4.2827,4.2932,4.3281,4.3673,4.3792,4.3995,4.4432,4.4533,4.4581,4.4584,4.4584,4.4584,4.4584,4.4584,4.4584,4.4584,4.4584,4.4432,4.4381,4.4093,4.4009,4.4025,4.4009,4.3924,4.3809,4.3673,4.3457,4.2963,4.2655,4.254,4.2303,4.1803,4.1497,4.1424,4.1013,4.0465,4.0288,4.0389,4.0241,4.0002,3.9977,3.9952,3.9875,3.9798,3.9759,3.972,3.9716,3.9742,3.9798,3.9781,3.9768,4.4173,4.4009,4.3835,4.3676,4.3606,4.404,4.4069,4.3766,4.3591,4.3323,4.3095,4.305,4.2928,4.2665,4.2602,4.2602,4.2602,4.2602,4.2602,4.2587,4.2461,4.2444,4.2429,4.2429,4.2413,4.2349,4.2365,4.2413,4.2302,4.2254,4.227,4.2206,4.2061,4.2396,4.2957,4.3118,4.3185,4.2741,4.2457,4.1917,4.1263,4.0658,4.0188,3.9986,3.9845,3.982,3.9782,3.9765,3.9727,3.9679,3.9627,3.9601,3.9536,3.9493,3.9601,3.9692,4.0007,4.0079,4.0197,4.0227,4.0781,4.1327,4.1711,4.1897,4.1999,4.2283,4.2574,4.2895,4.2983,4.3301,4.3721,4.389,4.3924,4.3907,4.389,4.3856,4.3822,4.3772,4.3789,4.3873,4.3924,4.389,4.389,4.3653,4.3366,4.3399,4.3403,4.325,4.3115,4.3,4.275,4.2209,4.1803,4.1655,4.1392,4.0961,4.0693,4.0552,4.021,3.9831,3.9831,3.9999,3.9813,3.9703,3.9768,3.9798,3.9668,3.959,3.9577,3.9534,3.952,3.956,3.9629,3.9655,3.9651,4.3291,4.32,4.2805,4.2665,4.2774,4.3547,4.3649,4.3262,4.2836,4.2649,4.2634,4.2649,4.2634,4.2618,4.2602,4.2571,4.2524,4.2539,4.2492,4.2413,4.2174,4.2126,4.2077,4.2077,4.198,4.1867,4.1883,4.198,4.1671,4.1769,4.1753,4.1621,4.1621,4.172,4.1884,4.2013,4.2204,4.212,4.1904,4.1451,4.0909,4.0144,3.9643,3.927,3.8955,3.8835,3.8778,3.8695,3.8599,3.8516,3.8446,3.8404,3.8362,3.832,3.8684,3.9162,3.9773,3.9918,4.0113,4.0113,4.013,4.0574,4.0895,4.1068,4.1271,4.1572,4.1863,4.2117,4.2269,4.232,4.2486,4.257,4.2625,4.2625,4.2608,4.2591,4.2574,4.2557,4.2574,4.2625,4.2658,4.2692,4.2807,4.2672,4.2706,4.2503,4.2422,4.2202,4.2134,4.2286,4.1952,4.1341,4.0974,4.0745,4.0454,4.0267,4.0143,4.0089,3.9975,3.9681,3.9681,3.9638,3.9603,3.959,3.9655,3.9642,3.9563,3.9498,3.9432,3.9405,3.9388,3.9402,3.9484,3.9563,3.9547,4.2805,4.2773,4.2649,4.2602,4.2649,4.2913,4.2912,4.2774,4.2649,4.2602,4.2602,4.2602,4.2587,4.2602,4.2602,4.2461,4.2317,4.2206,4.2045,4.1932,4.1834,4.1769,4.1736,4.1736,4.1654,4.1638,4.1654,4.1655,4.1605,4.1555,4.139,4.129,4.124,4.1121,4.1004,4.0972,4.1374,4.1576,4.1436,4.1119,4.0683,3.9949,3.9394,3.8943,3.848,3.8339,3.8195,3.8179,3.8151,3.8208,3.825,3.8278,3.8306,3.832,3.8574,3.9109,3.9418,3.9605,3.9995,4.0083,4.002,3.9956,4.0235,4.0354,4.0502,4.0704,4.1059,4.1352,4.1538,4.1589,4.1792,4.191,4.1927,4.191,4.191,4.191,4.1894,4.188,4.188,4.1894,4.191,4.1894,4.1944,4.2063,4.2063,4.1711,4.1428,4.1242,4.1178,4.1364,4.13,4.0691,4.0411,4.0237,4.0072,3.9889,3.9748,3.9623,3.9577,3.9537,3.9484,3.9445,3.9432,3.9445,3.9498,3.9524,3.9511,3.9432,3.9382,3.9355,3.9339,3.9339,3.9352,3.9432,3.9471,4.2602,4.2602,4.2602,4.2602,4.2602,4.2602,4.2602,4.2602,4.2602,4.2602,4.2602,4.2602,4.2539,4.2397,4.2365,4.2222,4.1916,4.1883,4.1786,4.1703,4.144,4.1423,4.1406,4.139,4.1273,4.1273,4.129,4.1273,4.1256,4.1156,4.1004,4.0901,4.0867,4.073,4.0612,4.0645,4.0782,4.0953,4.0947,4.0701,4.0283,3.9768,3.9282,3.8676,3.8209,3.7954,3.7682,3.7666,3.762,3.759,3.7576,3.7592,3.7649,3.7781,3.7983,3.8451,3.8726,3.893,3.9199,3.9295,3.9362,3.9401,3.9428,3.9368,3.9651,3.9897,4.0323,4.0692,4.0764,4.0882,4.1183,4.142,4.1403,4.1386,4.1386,4.1386,4.1369,4.1369,4.1352,4.1335,4.1318,4.1301,4.1352,4.1454,4.1356,4.0937,4.0696,4.056,4.0479,4.0547,4.0534,4.0222,4.0014,3.9835,3.969,3.9612,3.955,3.9471,3.9432,3.9379,3.9315,3.9329,3.9352,3.9339,3.9342,3.9382,3.9418,3.9382,3.9329,3.9315,3.9315,3.9329,3.9312,3.9339,3.9352,4.2602,4.2602,4.2602,4.2571,4.2555,4.2539,4.2524,4.2524,4.2476,4.2539,4.2524,4.2508,4.2302,4.2093,4.2061,4.1867,4.1654,4.154,4.1473,4.1506,4.1156,4.1038,4.1053,4.1037,4.0902,4.0766,4.0782,4.0935,4.0645,4.0627,4.0679,4.0489,4.0541,4.0524,4.0507,4.0489,4.0593,4.0627,4.06,4.0418,3.9933,3.9434,3.8938,3.8051,3.7619,3.7326,3.6847,3.6615,3.6492,3.6523,3.6538,3.6631,3.6815,3.7043,3.7313,3.7622,3.8025,3.8337,3.853,3.8613,3.853,3.8474,3.832,3.8502,3.8903,3.9229,3.9637,3.9736,3.9771,3.9801,4.0017,4.0071,4.0067,4.0067,4.0067,4.0217,4.0365,4.0469,4.0667,4.0654,4.0615,4.0594,4.0581,4.067,4.0682,4.0231,4.0075,3.9981,3.9933,3.995,3.9865,3.9785,3.9746,3.9642,3.955,3.9471,3.9432,3.9365,3.9325,3.9325,3.9315,3.9315,3.9315,3.9315,3.9315,3.9315,3.9329,3.9302,3.9285,3.9315,3.9315,3.9315,3.9315,3.9285,3.9315,4.2602,4.2602,4.2602,4.246,4.2222,4.2222,4.2077,4.1835,4.1851,4.1997,4.2142,4.1964,4.1818,4.172,4.172,4.1539,4.1273,4.1189,4.1021,4.0918,4.0713,4.073,4.0679,4.0713,4.0593,4.0558,4.0576,4.0645,4.0524,4.0489,4.0489,4.0489,4.0489,4.0489,4.0489,4.0489,4.0489,4.0489,4.0459,4.0428,4.0197,3.9737,3.9199,3.8662,3.8276,3.7569,3.7092,3.6722,3.6599,3.6507,3.6507,3.6523,3.6538,3.6677,3.6952,3.7328,3.7505,3.7781,3.801,3.808,3.8066,3.8181,3.821,3.8264,3.8418,3.8627,3.8753,3.8767,3.8808,3.8835,3.8849,3.8849,3.8849,3.8849,3.8849,3.9122,3.9378,3.9644,3.9901,3.9905,3.9854,3.9854,3.9845,3.9858,3.9871,3.9845,3.9811,3.9746,3.9659,3.9606,3.9505,3.9455,3.958,3.9514,3.9365,3.9339,3.9299,3.9285,3.9258,3.9258,3.9315,3.9315,3.9315,3.9315,3.9315,3.9315,3.9285,3.9272,3.9272,3.9191,3.9134,3.908,3.9205,3.9232,3.9272,4.2602,4.2571,4.2429,4.219,4.1916,4.1883,4.1769,4.1605,4.144,4.1473,4.1654,4.1605,4.1522,4.1406,4.1373,4.1173,4.0901,4.0833,4.0747,4.0558,4.0489,4.0507,4.0489,4.0489,4.0507,4.0489,4.0489,4.0507,4.0489,4.0489,4.0489,4.0489,4.0489,4.0489,4.0489,4.0489,4.0489,4.0489,4.0489,4.0489,4.0489,4.012,3.9722,3.9291,3.8631,3.7923,3.7307,3.6892,3.6599,3.6492,3.6492,3.6492,3.6492,3.6538,3.6693,3.6861,3.7013,3.7148,3.7431,3.7562,3.7546,3.7592,3.7533,3.7371,3.7341,3.7562,3.8039,3.811,3.8446,3.853,3.853,3.853,3.8516,3.853,3.8516,3.8643,3.8695,3.8761,3.8829,3.8764,3.8832,3.9022,3.9052,3.9132,3.9079,3.8723,3.8808,3.9109,3.9098,3.9209,3.9115,3.9064,3.9148,3.9064,3.8827,3.8952,3.9148,3.9148,3.9134,3.9245,3.9315,3.9315,3.9315,3.9285,3.9285,3.9315,3.9285,3.9067,3.8884,3.8717,3.8745,3.8772,3.8969,3.9128,3.9036,4.2508,4.2429,4.2158,4.1834,4.1572,4.1523,4.1489,4.139,4.1139,4.102,4.107,4.1306,4.124,4.1105,4.102,4.0782,4.0627,4.061,4.0539,4.0522,4.0489,4.0489,4.0489,4.0489,4.0489,4.0489,4.0489,4.0489,4.0489,4.0489,4.0489,4.0489,4.0489,4.0489,4.0489,4.0489,4.0489,4.0489,4.0489,4.0489,4.0489,4.0489,4.0136,3.9599,3.8908,3.8246,3.7615,3.6984,3.6615,3.6492,3.6492,3.6445,3.643,3.6414,3.6398,3.6507,3.6492,3.6538,3.6585,3.6616,3.6569,3.6507,3.6445,3.646,3.6492,3.6739,3.7222,3.7504,3.7836,3.7994,3.7994,3.7966,3.7966,3.798,3.7966,3.8023,3.7948,3.796,3.7933,3.7835,3.8007,3.8232,3.8288,3.8372,3.8189,3.782,3.7835,3.8078,3.8334,3.8588,3.8687,3.859,3.8562,3.8451,3.8266,3.8535,3.8816,3.8912,3.8912,3.9134,3.9315,3.9315,3.9285,3.9258,3.9272,3.9067,3.8816,3.8565,3.8395,3.8266,3.8449,3.8604,3.8939,3.9022,3.8722,4.2045,4.1785,4.172,4.1489,4.1222,4.1205,4.1004,4.0747,4.0662,4.061,4.0662,4.0662,4.0645,4.0627,4.061,4.0524,4.0541,4.0489,4.0489,4.0489,4.0489,4.0489,4.0489,4.0489,4.0489,4.0489,4.0489,4.0489,4.0489,4.0489,4.0489,4.0489,4.0489,4.0489,4.0489,4.0489,4.0489,4.0489,4.0489,4.0489,4.0489,4.0489,4.0474,3.9891,3.9122,3.8645,3.8046,3.7107,3.6676,3.6492,3.646,3.6383,3.6305,3.6273,3.6242,3.621,3.6163,3.6178,3.6194,3.6194,3.6194,3.6178,3.6178,3.6178,3.6194,3.621,3.6507,3.6523,3.6784,3.686,3.686,3.6814,3.6799,3.686,3.6875,3.7056,3.7115,3.7366,3.7543,3.7515,3.756,3.7617,3.7573,3.7632,3.7617,3.7428,3.7604,3.7822,3.7906,3.808,3.8193,3.8066,3.7951,3.7778,3.7589,3.808,3.8395,3.8521,3.8676,3.883,3.9026,3.9272,3.9258,3.8901,3.8676,3.8479,3.8238,3.7996,3.7923,3.7879,3.8193,3.8463,3.8758,3.8807,3.8398]}]]